<?xml version="1.0" encoding="UTF-8" standalone="no" ?>
<gpx xmlns="http://www.topografix.com/GPX/1/1" xmlns:xsi="http://www.w3.org/2001/XMLSchema-instance" xsi:schemaLocation="http://www.topografix.com/GPX/1/1 http://www.topografix.com/GPX/1/1/gpx.xsd" version="1.1" creator="VisuGPX - https://www.visugpx.com">
  <metadata>
    <name>Condorcet-Cougoir</name>
  </metadata>
  <trk>
    <name><![CDATA[COUGOIR CONDORCET]]></name>
    <extensions>
      <line xmlns="http://www.topografix.com/GPX/gpx_style/0/2">
        <color>0000FF</color>
        <width>4</width>
      </line>
    </extensions>
    <trkseg>
      <trkpt lat="44.40753" lon="5.19989">
        <ele>362.55</ele>
        <time>2012-08-25T05:35:45Z</time>
      </trkpt>
      <trkpt lat="44.40753" lon="5.19989">
        <ele>359.67</ele>
        <time>2012-08-25T05:35:50Z</time>
      </trkpt>
      <trkpt lat="44.40753" lon="5.19989">
        <ele>363.04</ele>
        <time>2012-08-25T05:35:51Z</time>
      </trkpt>
      <trkpt lat="44.40753" lon="5.19989">
        <ele>358.71</ele>
        <time>2012-08-25T05:35:52Z</time>
      </trkpt>
      <trkpt lat="44.40753" lon="5.19989">
        <ele>363.52</ele>
        <time>2012-08-25T05:35:54Z</time>
      </trkpt>
      <trkpt lat="44.40753" lon="5.19989">
        <ele>362.55</ele>
        <time>2012-08-25T05:35:55Z</time>
      </trkpt>
      <trkpt lat="44.4075" lon="5.19984">
        <ele>362.55</ele>
        <time>2012-08-25T05:36:09Z</time>
      </trkpt>
      <trkpt lat="44.40748" lon="5.19978">
        <ele>362.55</ele>
        <time>2012-08-25T05:36:19Z</time>
      </trkpt>
      <trkpt lat="44.40742" lon="5.19958">
        <ele>362.55</ele>
        <time>2012-08-25T05:36:33Z</time>
      </trkpt>
      <trkpt lat="44.4073" lon="5.19938">
        <ele>362.55</ele>
        <time>2012-08-25T05:36:46Z</time>
      </trkpt>
      <trkpt lat="44.40729" lon="5.19936">
        <ele>362.55</ele>
        <time>2012-08-25T05:36:47Z</time>
      </trkpt>
      <trkpt lat="44.40727" lon="5.19935">
        <ele>362.55</ele>
        <time>2012-08-25T05:36:48Z</time>
      </trkpt>
      <trkpt lat="44.40724" lon="5.19933">
        <ele>362.55</ele>
        <time>2012-08-25T05:36:50Z</time>
      </trkpt>
      <trkpt lat="44.40698" lon="5.19927">
        <ele>361.59</ele>
        <time>2012-08-25T05:37:01Z</time>
      </trkpt>
      <trkpt lat="44.40667" lon="5.1992">
        <ele>360.63</ele>
        <time>2012-08-25T05:37:14Z</time>
      </trkpt>
      <trkpt lat="44.40645" lon="5.199">
        <ele>360.63</ele>
        <time>2012-08-25T05:37:25Z</time>
      </trkpt>
      <trkpt lat="44.40641" lon="5.19896">
        <ele>362.07</ele>
        <time>2012-08-25T05:37:27Z</time>
      </trkpt>
      <trkpt lat="44.40614" lon="5.1989">
        <ele>359.67</ele>
        <time>2012-08-25T05:37:38Z</time>
      </trkpt>
      <trkpt lat="44.40598" lon="5.19905">
        <ele>359.67</ele>
        <time>2012-08-25T05:37:45Z</time>
      </trkpt>
      <trkpt lat="44.40595" lon="5.19904">
        <ele>358.23</ele>
        <time>2012-08-25T05:37:46Z</time>
      </trkpt>
      <trkpt lat="44.40593" lon="5.19903">
        <ele>357.75</ele>
        <time>2012-08-25T05:37:47Z</time>
      </trkpt>
      <trkpt lat="44.40591" lon="5.19901">
        <ele>359.19</ele>
        <time>2012-08-25T05:37:48Z</time>
      </trkpt>
      <trkpt lat="44.4059" lon="5.19898">
        <ele>358.23</ele>
        <time>2012-08-25T05:37:49Z</time>
      </trkpt>
      <trkpt lat="44.40588" lon="5.19896">
        <ele>359.19</ele>
        <time>2012-08-25T05:37:50Z</time>
      </trkpt>
      <trkpt lat="44.4057" lon="5.19873">
        <ele>358.23</ele>
        <time>2012-08-25T05:38:00Z</time>
      </trkpt>
      <trkpt lat="44.40545" lon="5.19848">
        <ele>357.27</ele>
        <time>2012-08-25T05:38:12Z</time>
      </trkpt>
      <trkpt lat="44.4051" lon="5.19829">
        <ele>356.31</ele>
        <time>2012-08-25T05:38:25Z</time>
      </trkpt>
      <trkpt lat="44.40486" lon="5.19819">
        <ele>355.83</ele>
        <time>2012-08-25T05:38:34Z</time>
      </trkpt>
      <trkpt lat="44.40443" lon="5.19795">
        <ele>353.9</ele>
        <time>2012-08-25T05:38:51Z</time>
      </trkpt>
      <trkpt lat="44.40404" lon="5.19777">
        <ele>352.94</ele>
        <time>2012-08-25T05:39:06Z</time>
      </trkpt>
      <trkpt lat="44.40361" lon="5.19758">
        <ele>349.58</ele>
        <time>2012-08-25T05:39:21Z</time>
      </trkpt>
      <trkpt lat="44.40357" lon="5.19757">
        <ele>349.58</ele>
        <time>2012-08-25T05:39:22Z</time>
      </trkpt>
      <trkpt lat="44.40314" lon="5.19735">
        <ele>348.62</ele>
        <time>2012-08-25T05:39:37Z</time>
      </trkpt>
      <trkpt lat="44.40276" lon="5.19716">
        <ele>347.17</ele>
        <time>2012-08-25T05:39:50Z</time>
      </trkpt>
      <trkpt lat="44.40264" lon="5.19711">
        <ele>346.69</ele>
        <time>2012-08-25T05:39:54Z</time>
      </trkpt>
      <trkpt lat="44.40239" lon="5.19699">
        <ele>346.21</ele>
        <time>2012-08-25T05:40:04Z</time>
      </trkpt>
      <trkpt lat="44.40228" lon="5.19687">
        <ele>347.17</ele>
        <time>2012-08-25T05:40:10Z</time>
      </trkpt>
      <trkpt lat="44.40228" lon="5.19684">
        <ele>347.65</ele>
        <time>2012-08-25T05:40:11Z</time>
      </trkpt>
      <trkpt lat="44.40229" lon="5.19681">
        <ele>347.65</ele>
        <time>2012-08-25T05:40:12Z</time>
      </trkpt>
      <trkpt lat="44.40239" lon="5.19656">
        <ele>351.02</ele>
        <time>2012-08-25T05:40:21Z</time>
      </trkpt>
      <trkpt lat="44.40255" lon="5.19615">
        <ele>353.9</ele>
        <time>2012-08-25T05:40:36Z</time>
      </trkpt>
      <trkpt lat="44.40251" lon="5.19608">
        <ele>355.34</ele>
        <time>2012-08-25T05:40:40Z</time>
      </trkpt>
      <trkpt lat="44.40249" lon="5.19607">
        <ele>354.38</ele>
        <time>2012-08-25T05:40:41Z</time>
      </trkpt>
      <trkpt lat="44.40244" lon="5.19607">
        <ele>355.34</ele>
        <time>2012-08-25T05:40:42Z</time>
      </trkpt>
      <trkpt lat="44.4024" lon="5.19607">
        <ele>356.79</ele>
        <time>2012-08-25T05:40:43Z</time>
      </trkpt>
      <trkpt lat="44.40237" lon="5.19607">
        <ele>356.31</ele>
        <time>2012-08-25T05:40:44Z</time>
      </trkpt>
      <trkpt lat="44.40199" lon="5.19605">
        <ele>359.19</ele>
        <time>2012-08-25T05:41:00Z</time>
      </trkpt>
      <trkpt lat="44.40189" lon="5.19604">
        <ele>359.67</ele>
        <time>2012-08-25T05:41:05Z</time>
      </trkpt>
      <trkpt lat="44.40178" lon="5.19602">
        <ele>360.15</ele>
        <time>2012-08-25T05:41:09Z</time>
      </trkpt>
      <trkpt lat="44.40156" lon="5.1958">
        <ele>363.04</ele>
        <time>2012-08-25T05:41:23Z</time>
      </trkpt>
      <trkpt lat="44.40168" lon="5.19556">
        <ele>364</ele>
        <time>2012-08-25T05:41:34Z</time>
      </trkpt>
      <trkpt lat="44.40192" lon="5.19545">
        <ele>366.4</ele>
        <time>2012-08-25T05:41:46Z</time>
      </trkpt>
      <trkpt lat="44.40208" lon="5.19526">
        <ele>369.76</ele>
        <time>2012-08-25T05:41:56Z</time>
      </trkpt>
      <trkpt lat="44.40225" lon="5.19512">
        <ele>370.73</ele>
        <time>2012-08-25T05:42:05Z</time>
      </trkpt>
      <trkpt lat="44.40259" lon="5.19511">
        <ele>373.61</ele>
        <time>2012-08-25T05:42:21Z</time>
      </trkpt>
      <trkpt lat="44.40292" lon="5.19491">
        <ele>373.13</ele>
        <time>2012-08-25T05:42:36Z</time>
      </trkpt>
      <trkpt lat="44.40314" lon="5.19462">
        <ele>376.01</ele>
        <time>2012-08-25T05:42:48Z</time>
      </trkpt>
      <trkpt lat="44.40337" lon="5.19436">
        <ele>377.45</ele>
        <time>2012-08-25T05:43:01Z</time>
      </trkpt>
      <trkpt lat="44.40362" lon="5.19411">
        <ele>377.94</ele>
        <time>2012-08-25T05:43:14Z</time>
      </trkpt>
      <trkpt lat="44.40392" lon="5.19378">
        <ele>378.42</ele>
        <time>2012-08-25T05:43:30Z</time>
      </trkpt>
      <trkpt lat="44.40424" lon="5.19338">
        <ele>380.82</ele>
        <time>2012-08-25T05:43:48Z</time>
      </trkpt>
      <trkpt lat="44.40451" lon="5.19306">
        <ele>382.26</ele>
        <time>2012-08-25T05:44:03Z</time>
      </trkpt>
      <trkpt lat="44.40475" lon="5.19279">
        <ele>383.22</ele>
        <time>2012-08-25T05:44:16Z</time>
      </trkpt>
      <trkpt lat="44.40503" lon="5.19242">
        <ele>383.7</ele>
        <time>2012-08-25T05:44:31Z</time>
      </trkpt>
      <trkpt lat="44.40516" lon="5.19222">
        <ele>385.15</ele>
        <time>2012-08-25T05:44:39Z</time>
      </trkpt>
      <trkpt lat="44.40539" lon="5.19175">
        <ele>387.55</ele>
        <time>2012-08-25T05:44:55Z</time>
      </trkpt>
      <trkpt lat="44.40564" lon="5.19128">
        <ele>389.47</ele>
        <time>2012-08-25T05:45:13Z</time>
      </trkpt>
      <trkpt lat="44.40593" lon="5.19084">
        <ele>391.39</ele>
        <time>2012-08-25T05:45:30Z</time>
      </trkpt>
      <trkpt lat="44.40618" lon="5.19031">
        <ele>392.36</ele>
        <time>2012-08-25T05:45:47Z</time>
      </trkpt>
      <trkpt lat="44.40638" lon="5.18993">
        <ele>394.76</ele>
        <time>2012-08-25T05:46:01Z</time>
      </trkpt>
      <trkpt lat="44.4066" lon="5.1896">
        <ele>396.2</ele>
        <time>2012-08-25T05:46:14Z</time>
      </trkpt>
      <trkpt lat="44.40687" lon="5.18954">
        <ele>395.72</ele>
        <time>2012-08-25T05:46:24Z</time>
      </trkpt>
      <trkpt lat="44.40716" lon="5.18924">
        <ele>397.16</ele>
        <time>2012-08-25T05:46:37Z</time>
      </trkpt>
      <trkpt lat="44.40739" lon="5.18883">
        <ele>398.6</ele>
        <time>2012-08-25T05:46:51Z</time>
      </trkpt>
      <trkpt lat="44.40763" lon="5.18839">
        <ele>399.57</ele>
        <time>2012-08-25T05:47:08Z</time>
      </trkpt>
      <trkpt lat="44.40766" lon="5.18834">
        <ele>401.01</ele>
        <time>2012-08-25T05:47:10Z</time>
      </trkpt>
      <trkpt lat="44.40797" lon="5.18782">
        <ele>402.45</ele>
        <time>2012-08-25T05:47:29Z</time>
      </trkpt>
      <trkpt lat="44.40827" lon="5.18737">
        <ele>404.37</ele>
        <time>2012-08-25T05:47:47Z</time>
      </trkpt>
      <trkpt lat="44.40852" lon="5.18693">
        <ele>406.29</ele>
        <time>2012-08-25T05:48:04Z</time>
      </trkpt>
      <trkpt lat="44.40856" lon="5.18685">
        <ele>407.74</ele>
        <time>2012-08-25T05:48:07Z</time>
      </trkpt>
      <trkpt lat="44.40885" lon="5.18637">
        <ele>409.18</ele>
        <time>2012-08-25T05:48:26Z</time>
      </trkpt>
      <trkpt lat="44.4091" lon="5.18592">
        <ele>411.1</ele>
        <time>2012-08-25T05:48:41Z</time>
      </trkpt>
      <trkpt lat="44.40931" lon="5.18553">
        <ele>412.06</ele>
        <time>2012-08-25T05:48:55Z</time>
      </trkpt>
      <trkpt lat="44.40951" lon="5.18518">
        <ele>414.95</ele>
        <time>2012-08-25T05:49:07Z</time>
      </trkpt>
      <trkpt lat="44.40974" lon="5.1847">
        <ele>414.47</ele>
        <time>2012-08-25T05:49:23Z</time>
      </trkpt>
      <trkpt lat="44.40989" lon="5.18427">
        <ele>416.39</ele>
        <time>2012-08-25T05:49:36Z</time>
      </trkpt>
      <trkpt lat="44.41009" lon="5.18376">
        <ele>417.83</ele>
        <time>2012-08-25T05:49:52Z</time>
      </trkpt>
      <trkpt lat="44.41021" lon="5.1833">
        <ele>419.75</ele>
        <time>2012-08-25T05:50:06Z</time>
      </trkpt>
      <trkpt lat="44.41035" lon="5.18265">
        <ele>422.64</ele>
        <time>2012-08-25T05:50:25Z</time>
      </trkpt>
      <trkpt lat="44.4104" lon="5.18214">
        <ele>423.12</ele>
        <time>2012-08-25T05:50:40Z</time>
      </trkpt>
      <trkpt lat="44.41044" lon="5.1819">
        <ele>424.56</ele>
        <time>2012-08-25T05:50:47Z</time>
      </trkpt>
      <trkpt lat="44.41061" lon="5.18151">
        <ele>424.56</ele>
        <time>2012-08-25T05:51:00Z</time>
      </trkpt>
      <trkpt lat="44.41092" lon="5.18115">
        <ele>424.56</ele>
        <time>2012-08-25T05:51:16Z</time>
      </trkpt>
      <trkpt lat="44.41114" lon="5.18072">
        <ele>421.19</ele>
        <time>2012-08-25T05:51:29Z</time>
      </trkpt>
      <trkpt lat="44.41123" lon="5.18012">
        <ele>419.27</ele>
        <time>2012-08-25T05:51:44Z</time>
      </trkpt>
      <trkpt lat="44.41126" lon="5.17967">
        <ele>419.75</ele>
        <time>2012-08-25T05:51:56Z</time>
      </trkpt>
      <trkpt lat="44.41113" lon="5.17914">
        <ele>424.08</ele>
        <time>2012-08-25T05:52:11Z</time>
      </trkpt>
      <trkpt lat="44.4111" lon="5.17909">
        <ele>423.6</ele>
        <time>2012-08-25T05:52:13Z</time>
      </trkpt>
      <trkpt lat="44.41088" lon="5.17903">
        <ele>426.96</ele>
        <time>2012-08-25T05:52:23Z</time>
      </trkpt>
      <trkpt lat="44.41071" lon="5.17882">
        <ele>430.33</ele>
        <time>2012-08-25T05:52:35Z</time>
      </trkpt>
      <trkpt lat="44.4107" lon="5.17848">
        <ele>432.25</ele>
        <time>2012-08-25T05:52:46Z</time>
      </trkpt>
      <trkpt lat="44.41065" lon="5.17801">
        <ele>434.17</ele>
        <time>2012-08-25T05:53:01Z</time>
      </trkpt>
      <trkpt lat="44.41055" lon="5.17757">
        <ele>436.58</ele>
        <time>2012-08-25T05:53:15Z</time>
      </trkpt>
      <trkpt lat="44.41055" lon="5.17754">
        <ele>436.58</ele>
        <time>2012-08-25T05:53:16Z</time>
      </trkpt>
      <trkpt lat="44.41043" lon="5.17711">
        <ele>436.58</ele>
        <time>2012-08-25T05:53:30Z</time>
      </trkpt>
      <trkpt lat="44.41036" lon="5.17685">
        <ele>433.21</ele>
        <time>2012-08-25T05:53:39Z</time>
      </trkpt>
      <trkpt lat="44.41033" lon="5.17673">
        <ele>433.69</ele>
        <time>2012-08-25T05:53:43Z</time>
      </trkpt>
      <trkpt lat="44.41032" lon="5.17654">
        <ele>429.37</ele>
        <time>2012-08-25T05:53:48Z</time>
      </trkpt>
      <trkpt lat="44.41042" lon="5.17597">
        <ele>429.85</ele>
        <time>2012-08-25T05:54:03Z</time>
      </trkpt>
      <trkpt lat="44.41051" lon="5.17541">
        <ele>426.48</ele>
        <time>2012-08-25T05:54:20Z</time>
      </trkpt>
      <trkpt lat="44.41053" lon="5.17539">
        <ele>426.48</ele>
        <time>2012-08-25T05:54:21Z</time>
      </trkpt>
      <trkpt lat="44.41061" lon="5.17526">
        <ele>424.56</ele>
        <time>2012-08-25T05:54:25Z</time>
      </trkpt>
      <trkpt lat="44.41084" lon="5.17498">
        <ele>424.56</ele>
        <time>2012-08-25T05:54:38Z</time>
      </trkpt>
      <trkpt lat="44.41094" lon="5.17487">
        <ele>423.6</ele>
        <time>2012-08-25T05:54:42Z</time>
      </trkpt>
      <trkpt lat="44.41117" lon="5.17468">
        <ele>420.23</ele>
        <time>2012-08-25T05:54:54Z</time>
      </trkpt>
      <trkpt lat="44.41156" lon="5.17442">
        <ele>420.23</ele>
        <time>2012-08-25T05:55:09Z</time>
      </trkpt>
      <trkpt lat="44.41159" lon="5.17441">
        <ele>419.75</ele>
        <time>2012-08-25T05:55:10Z</time>
      </trkpt>
      <trkpt lat="44.41168" lon="5.17429">
        <ele>417.35</ele>
        <time>2012-08-25T05:55:14Z</time>
      </trkpt>
      <trkpt lat="44.41188" lon="5.17394">
        <ele>415.43</ele>
        <time>2012-08-25T05:55:27Z</time>
      </trkpt>
      <trkpt lat="44.41204" lon="5.17371">
        <ele>412.06</ele>
        <time>2012-08-25T05:55:35Z</time>
      </trkpt>
      <trkpt lat="44.41224" lon="5.17338">
        <ele>411.1</ele>
        <time>2012-08-25T05:55:47Z</time>
      </trkpt>
      <trkpt lat="44.41242" lon="5.17331">
        <ele>411.1</ele>
        <time>2012-08-25T05:55:54Z</time>
      </trkpt>
      <trkpt lat="44.4125" lon="5.17332">
        <ele>409.18</ele>
        <time>2012-08-25T05:55:57Z</time>
      </trkpt>
      <trkpt lat="44.41271" lon="5.17328">
        <ele>405.81</ele>
        <time>2012-08-25T05:56:05Z</time>
      </trkpt>
      <trkpt lat="44.41279" lon="5.1733">
        <ele>408.7</ele>
        <time>2012-08-25T05:56:08Z</time>
      </trkpt>
      <trkpt lat="44.41289" lon="5.17338">
        <ele>406.29</ele>
        <time>2012-08-25T05:56:12Z</time>
      </trkpt>
      <trkpt lat="44.41293" lon="5.17315">
        <ele>407.74</ele>
        <time>2012-08-25T05:56:21Z</time>
      </trkpt>
      <trkpt lat="44.41286" lon="5.17302">
        <ele>404.37</ele>
        <time>2012-08-25T05:56:26Z</time>
      </trkpt>
      <trkpt lat="44.41292" lon="5.17255">
        <ele>403.41</ele>
        <time>2012-08-25T05:56:39Z</time>
      </trkpt>
      <trkpt lat="44.41293" lon="5.17238">
        <ele>402.93</ele>
        <time>2012-08-25T05:56:44Z</time>
      </trkpt>
      <trkpt lat="44.41292" lon="5.172">
        <ele>401.97</ele>
        <time>2012-08-25T05:56:55Z</time>
      </trkpt>
      <trkpt lat="44.41291" lon="5.17198">
        <ele>404.85</ele>
        <time>2012-08-25T05:56:56Z</time>
      </trkpt>
      <trkpt lat="44.41291" lon="5.17195">
        <ele>401.97</ele>
        <time>2012-08-25T05:56:57Z</time>
      </trkpt>
      <trkpt lat="44.41291" lon="5.17184">
        <ele>405.33</ele>
        <time>2012-08-25T05:57:00Z</time>
      </trkpt>
      <trkpt lat="44.4129" lon="5.17138">
        <ele>408.22</ele>
        <time>2012-08-25T05:57:15Z</time>
      </trkpt>
      <trkpt lat="44.4129" lon="5.17136">
        <ele>406.77</ele>
        <time>2012-08-25T05:57:16Z</time>
      </trkpt>
      <trkpt lat="44.4129" lon="5.17102">
        <ele>408.22</ele>
        <time>2012-08-25T05:57:28Z</time>
      </trkpt>
      <trkpt lat="44.41287" lon="5.17083">
        <ele>411.58</ele>
        <time>2012-08-25T05:57:35Z</time>
      </trkpt>
      <trkpt lat="44.41283" lon="5.17079">
        <ele>413.02</ele>
        <time>2012-08-25T05:57:39Z</time>
      </trkpt>
      <trkpt lat="44.41281" lon="5.17084">
        <ele>412.54</ele>
        <time>2012-08-25T05:57:42Z</time>
      </trkpt>
      <trkpt lat="44.41277" lon="5.17095">
        <ele>415.91</ele>
        <time>2012-08-25T05:57:47Z</time>
      </trkpt>
      <trkpt lat="44.41273" lon="5.17108">
        <ele>414.47</ele>
        <time>2012-08-25T05:57:53Z</time>
      </trkpt>
      <trkpt lat="44.41267" lon="5.17116">
        <ele>414.95</ele>
        <time>2012-08-25T05:57:57Z</time>
      </trkpt>
      <trkpt lat="44.41251" lon="5.17131">
        <ele>418.31</ele>
        <time>2012-08-25T05:58:07Z</time>
      </trkpt>
      <trkpt lat="44.4125" lon="5.17133">
        <ele>417.35</ele>
        <time>2012-08-25T05:58:08Z</time>
      </trkpt>
      <trkpt lat="44.41244" lon="5.17137">
        <ele>417.35</ele>
        <time>2012-08-25T05:58:11Z</time>
      </trkpt>
      <trkpt lat="44.41239" lon="5.17133">
        <ele>419.27</ele>
        <time>2012-08-25T05:58:15Z</time>
      </trkpt>
      <trkpt lat="44.4124" lon="5.17129">
        <ele>420.71</ele>
        <time>2012-08-25T05:58:17Z</time>
      </trkpt>
      <trkpt lat="44.41242" lon="5.1712">
        <ele>422.16</ele>
        <time>2012-08-25T05:58:22Z</time>
      </trkpt>
      <trkpt lat="44.41248" lon="5.17109">
        <ele>421.68</ele>
        <time>2012-08-25T05:58:28Z</time>
      </trkpt>
      <trkpt lat="44.41256" lon="5.17096">
        <ele>425.04</ele>
        <time>2012-08-25T05:58:35Z</time>
      </trkpt>
      <trkpt lat="44.41257" lon="5.17094">
        <ele>423.6</ele>
        <time>2012-08-25T05:58:36Z</time>
      </trkpt>
      <trkpt lat="44.41256" lon="5.17087">
        <ele>425.04</ele>
        <time>2012-08-25T05:58:39Z</time>
      </trkpt>
      <trkpt lat="44.41256" lon="5.17084">
        <ele>424.56</ele>
        <time>2012-08-25T05:58:40Z</time>
      </trkpt>
      <trkpt lat="44.41254" lon="5.17082">
        <ele>426.96</ele>
        <time>2012-08-25T05:58:42Z</time>
      </trkpt>
      <trkpt lat="44.41239" lon="5.17093">
        <ele>429.37</ele>
        <time>2012-08-25T05:58:52Z</time>
      </trkpt>
      <trkpt lat="44.41215" lon="5.17103">
        <ele>430.33</ele>
        <time>2012-08-25T05:59:04Z</time>
      </trkpt>
      <trkpt lat="44.412" lon="5.17112">
        <ele>433.69</ele>
        <time>2012-08-25T05:59:13Z</time>
      </trkpt>
      <trkpt lat="44.41198" lon="5.17113">
        <ele>430.81</ele>
        <time>2012-08-25T05:59:14Z</time>
      </trkpt>
      <trkpt lat="44.41187" lon="5.17115">
        <ele>434.17</ele>
        <time>2012-08-25T05:59:19Z</time>
      </trkpt>
      <trkpt lat="44.4116" lon="5.17101">
        <ele>437.54</ele>
        <time>2012-08-25T05:59:37Z</time>
      </trkpt>
      <trkpt lat="44.41159" lon="5.17099">
        <ele>437.54</ele>
        <time>2012-08-25T05:59:38Z</time>
      </trkpt>
      <trkpt lat="44.41157" lon="5.17096">
        <ele>436.58</ele>
        <time>2012-08-25T05:59:40Z</time>
      </trkpt>
      <trkpt lat="44.41154" lon="5.17085">
        <ele>438.5</ele>
        <time>2012-08-25T05:59:46Z</time>
      </trkpt>
      <trkpt lat="44.41155" lon="5.17082">
        <ele>439.94</ele>
        <time>2012-08-25T05:59:49Z</time>
      </trkpt>
      <trkpt lat="44.41159" lon="5.17081">
        <ele>439.94</ele>
        <time>2012-08-25T05:59:52Z</time>
      </trkpt>
      <trkpt lat="44.41178" lon="5.17084">
        <ele>443.31</ele>
        <time>2012-08-25T06:00:04Z</time>
      </trkpt>
      <trkpt lat="44.41187" lon="5.17075">
        <ele>444.27</ele>
        <time>2012-08-25T06:00:11Z</time>
      </trkpt>
      <trkpt lat="44.41189" lon="5.17042">
        <ele>447.15</ele>
        <time>2012-08-25T06:00:25Z</time>
      </trkpt>
      <trkpt lat="44.41186" lon="5.17029">
        <ele>452.92</ele>
        <time>2012-08-25T06:00:31Z</time>
      </trkpt>
      <trkpt lat="44.41185" lon="5.17027">
        <ele>450.52</ele>
        <time>2012-08-25T06:00:32Z</time>
      </trkpt>
      <trkpt lat="44.41182" lon="5.17021">
        <ele>449.07</ele>
        <time>2012-08-25T06:00:34Z</time>
      </trkpt>
      <trkpt lat="44.41179" lon="5.17017">
        <ele>452.44</ele>
        <time>2012-08-25T06:00:36Z</time>
      </trkpt>
      <trkpt lat="44.41168" lon="5.17007">
        <ele>455.32</ele>
        <time>2012-08-25T06:00:44Z</time>
      </trkpt>
      <trkpt lat="44.41161" lon="5.16975">
        <ele>456.76</ele>
        <time>2012-08-25T06:00:59Z</time>
      </trkpt>
      <trkpt lat="44.41161" lon="5.16973">
        <ele>460.13</ele>
        <time>2012-08-25T06:01:00Z</time>
      </trkpt>
      <trkpt lat="44.41161" lon="5.16971">
        <ele>458.21</ele>
        <time>2012-08-25T06:01:01Z</time>
      </trkpt>
      <trkpt lat="44.4116" lon="5.16962">
        <ele>462.05</ele>
        <time>2012-08-25T06:01:06Z</time>
      </trkpt>
      <trkpt lat="44.41157" lon="5.16958">
        <ele>459.65</ele>
        <time>2012-08-25T06:01:09Z</time>
      </trkpt>
      <trkpt lat="44.41145" lon="5.16954">
        <ele>463.97</ele>
        <time>2012-08-25T06:01:15Z</time>
      </trkpt>
      <trkpt lat="44.41143" lon="5.16953">
        <ele>463.49</ele>
        <time>2012-08-25T06:01:17Z</time>
      </trkpt>
      <trkpt lat="44.41131" lon="5.16939">
        <ele>465.9</ele>
        <time>2012-08-25T06:01:28Z</time>
      </trkpt>
      <trkpt lat="44.4112" lon="5.16924">
        <ele>469.26</ele>
        <time>2012-08-25T06:01:39Z</time>
      </trkpt>
      <trkpt lat="44.41119" lon="5.16923">
        <ele>468.78</ele>
        <time>2012-08-25T06:01:40Z</time>
      </trkpt>
      <trkpt lat="44.41117" lon="5.16918">
        <ele>469.74</ele>
        <time>2012-08-25T06:01:44Z</time>
      </trkpt>
      <trkpt lat="44.41108" lon="5.16903">
        <ele>474.07</ele>
        <time>2012-08-25T06:01:53Z</time>
      </trkpt>
      <trkpt lat="44.41107" lon="5.16902">
        <ele>474.07</ele>
        <time>2012-08-25T06:01:54Z</time>
      </trkpt>
      <trkpt lat="44.41094" lon="5.16887">
        <ele>477.91</ele>
        <time>2012-08-25T06:02:06Z</time>
      </trkpt>
      <trkpt lat="44.41086" lon="5.1687">
        <ele>479.35</ele>
        <time>2012-08-25T06:02:15Z</time>
      </trkpt>
      <trkpt lat="44.41076" lon="5.16841">
        <ele>480.8</ele>
        <time>2012-08-25T06:02:29Z</time>
      </trkpt>
      <trkpt lat="44.41074" lon="5.16837">
        <ele>481.76</ele>
        <time>2012-08-25T06:02:31Z</time>
      </trkpt>
      <trkpt lat="44.41064" lon="5.16811">
        <ele>485.12</ele>
        <time>2012-08-25T06:02:43Z</time>
      </trkpt>
      <trkpt lat="44.4106" lon="5.16798">
        <ele>485.12</ele>
        <time>2012-08-25T06:02:49Z</time>
      </trkpt>
      <trkpt lat="44.41055" lon="5.16787">
        <ele>487.05</ele>
        <time>2012-08-25T06:02:54Z</time>
      </trkpt>
      <trkpt lat="44.41048" lon="5.16765">
        <ele>490.89</ele>
        <time>2012-08-25T06:03:06Z</time>
      </trkpt>
      <trkpt lat="44.41042" lon="5.16742">
        <ele>492.81</ele>
        <time>2012-08-25T06:03:17Z</time>
      </trkpt>
      <trkpt lat="44.4104" lon="5.16733">
        <ele>494.74</ele>
        <time>2012-08-25T06:03:21Z</time>
      </trkpt>
      <trkpt lat="44.41039" lon="5.16724">
        <ele>496.66</ele>
        <time>2012-08-25T06:03:25Z</time>
      </trkpt>
      <trkpt lat="44.41031" lon="5.16694">
        <ele>500.02</ele>
        <time>2012-08-25T06:03:40Z</time>
      </trkpt>
      <trkpt lat="44.41027" lon="5.16687">
        <ele>495.7</ele>
        <time>2012-08-25T06:03:52Z</time>
      </trkpt>
      <trkpt lat="44.41027" lon="5.16686">
        <ele>499.06</ele>
        <time>2012-08-25T06:03:53Z</time>
      </trkpt>
      <trkpt lat="44.41028" lon="5.16679">
        <ele>500.5</ele>
        <time>2012-08-25T06:03:57Z</time>
      </trkpt>
      <trkpt lat="44.41029" lon="5.16674">
        <ele>502.43</ele>
        <time>2012-08-25T06:04:00Z</time>
      </trkpt>
      <trkpt lat="44.4103" lon="5.16665">
        <ele>499.54</ele>
        <time>2012-08-25T06:04:04Z</time>
      </trkpt>
      <trkpt lat="44.4103" lon="5.16663">
        <ele>499.06</ele>
        <time>2012-08-25T06:04:05Z</time>
      </trkpt>
      <trkpt lat="44.4103" lon="5.16649">
        <ele>502.91</ele>
        <time>2012-08-25T06:04:11Z</time>
      </trkpt>
      <trkpt lat="44.41028" lon="5.16642">
        <ele>501.95</ele>
        <time>2012-08-25T06:04:15Z</time>
      </trkpt>
      <trkpt lat="44.41026" lon="5.16638">
        <ele>504.83</ele>
        <time>2012-08-25T06:04:17Z</time>
      </trkpt>
      <trkpt lat="44.41024" lon="5.1663">
        <ele>506.75</ele>
        <time>2012-08-25T06:04:21Z</time>
      </trkpt>
      <trkpt lat="44.41022" lon="5.16612">
        <ele>510.12</ele>
        <time>2012-08-25T06:04:31Z</time>
      </trkpt>
      <trkpt lat="44.41022" lon="5.16602">
        <ele>510.6</ele>
        <time>2012-08-25T06:04:38Z</time>
      </trkpt>
      <trkpt lat="44.41037" lon="5.1657">
        <ele>512.04</ele>
        <time>2012-08-25T06:04:53Z</time>
      </trkpt>
      <trkpt lat="44.41038" lon="5.16566">
        <ele>513</ele>
        <time>2012-08-25T06:04:55Z</time>
      </trkpt>
      <trkpt lat="44.4104" lon="5.16548">
        <ele>516.85</ele>
        <time>2012-08-25T06:05:02Z</time>
      </trkpt>
      <trkpt lat="44.41049" lon="5.16525">
        <ele>517.33</ele>
        <time>2012-08-25T06:05:13Z</time>
      </trkpt>
      <trkpt lat="44.41054" lon="5.16509">
        <ele>519.73</ele>
        <time>2012-08-25T06:05:20Z</time>
      </trkpt>
      <trkpt lat="44.41053" lon="5.165">
        <ele>518.77</ele>
        <time>2012-08-25T06:05:24Z</time>
      </trkpt>
      <trkpt lat="44.41054" lon="5.16481">
        <ele>524.06</ele>
        <time>2012-08-25T06:05:33Z</time>
      </trkpt>
      <trkpt lat="44.41061" lon="5.16449">
        <ele>524.06</ele>
        <time>2012-08-25T06:05:47Z</time>
      </trkpt>
      <trkpt lat="44.41062" lon="5.16447">
        <ele>527.42</ele>
        <time>2012-08-25T06:05:48Z</time>
      </trkpt>
      <trkpt lat="44.41067" lon="5.16422">
        <ele>530.79</ele>
        <time>2012-08-25T06:06:00Z</time>
      </trkpt>
      <trkpt lat="44.4107" lon="5.16411">
        <ele>527.42</ele>
        <time>2012-08-25T06:06:05Z</time>
      </trkpt>
      <trkpt lat="44.4107" lon="5.16409">
        <ele>527.9</ele>
        <time>2012-08-25T06:06:06Z</time>
      </trkpt>
      <trkpt lat="44.41071" lon="5.16405">
        <ele>528.86</ele>
        <time>2012-08-25T06:06:08Z</time>
      </trkpt>
      <trkpt lat="44.41071" lon="5.16404">
        <ele>529.34</ele>
        <time>2012-08-25T06:06:09Z</time>
      </trkpt>
      <trkpt lat="44.41074" lon="5.16399">
        <ele>527.9</ele>
        <time>2012-08-25T06:06:12Z</time>
      </trkpt>
      <trkpt lat="44.41078" lon="5.16391">
        <ele>531.27</ele>
        <time>2012-08-25T06:06:16Z</time>
      </trkpt>
      <trkpt lat="44.41078" lon="5.16389">
        <ele>533.67</ele>
        <time>2012-08-25T06:06:17Z</time>
      </trkpt>
      <trkpt lat="44.41079" lon="5.16385">
        <ele>535.11</ele>
        <time>2012-08-25T06:06:19Z</time>
      </trkpt>
      <trkpt lat="44.41082" lon="5.16382">
        <ele>533.19</ele>
        <time>2012-08-25T06:06:21Z</time>
      </trkpt>
      <trkpt lat="44.41084" lon="5.16378">
        <ele>534.63</ele>
        <time>2012-08-25T06:06:23Z</time>
      </trkpt>
      <trkpt lat="44.4109" lon="5.16364">
        <ele>534.63</ele>
        <time>2012-08-25T06:06:30Z</time>
      </trkpt>
      <trkpt lat="44.41097" lon="5.1636">
        <ele>536.55</ele>
        <time>2012-08-25T06:06:35Z</time>
      </trkpt>
      <trkpt lat="44.41119" lon="5.16346">
        <ele>538.96</ele>
        <time>2012-08-25T06:06:48Z</time>
      </trkpt>
      <trkpt lat="44.41139" lon="5.16335">
        <ele>541.84</ele>
        <time>2012-08-25T06:07:01Z</time>
      </trkpt>
      <trkpt lat="44.41157" lon="5.16313">
        <ele>544.24</ele>
        <time>2012-08-25T06:07:14Z</time>
      </trkpt>
      <trkpt lat="44.4116" lon="5.16306">
        <ele>544.24</ele>
        <time>2012-08-25T06:07:18Z</time>
      </trkpt>
      <trkpt lat="44.41168" lon="5.16287">
        <ele>544.24</ele>
        <time>2012-08-25T06:07:27Z</time>
      </trkpt>
      <trkpt lat="44.41171" lon="5.16279">
        <ele>546.17</ele>
        <time>2012-08-25T06:07:30Z</time>
      </trkpt>
      <trkpt lat="44.41173" lon="5.16264">
        <ele>547.13</ele>
        <time>2012-08-25T06:07:37Z</time>
      </trkpt>
      <trkpt lat="44.41176" lon="5.16252">
        <ele>549.05</ele>
        <time>2012-08-25T06:07:42Z</time>
      </trkpt>
      <trkpt lat="44.41183" lon="5.16222">
        <ele>553.38</ele>
        <time>2012-08-25T06:07:57Z</time>
      </trkpt>
      <trkpt lat="44.41192" lon="5.16201">
        <ele>555.3</ele>
        <time>2012-08-25T06:08:08Z</time>
      </trkpt>
      <trkpt lat="44.41206" lon="5.16177">
        <ele>558.18</ele>
        <time>2012-08-25T06:08:21Z</time>
      </trkpt>
      <trkpt lat="44.41216" lon="5.16144">
        <ele>562.99</ele>
        <time>2012-08-25T06:08:36Z</time>
      </trkpt>
      <trkpt lat="44.41228" lon="5.16121">
        <ele>565.39</ele>
        <time>2012-08-25T06:08:48Z</time>
      </trkpt>
      <trkpt lat="44.4123" lon="5.16115">
        <ele>563.95</ele>
        <time>2012-08-25T06:08:51Z</time>
      </trkpt>
      <trkpt lat="44.41244" lon="5.16088">
        <ele>567.8</ele>
        <time>2012-08-25T06:09:05Z</time>
      </trkpt>
      <trkpt lat="44.41258" lon="5.16072">
        <ele>569.72</ele>
        <time>2012-08-25T06:09:16Z</time>
      </trkpt>
      <trkpt lat="44.41275" lon="5.16059">
        <ele>570.68</ele>
        <time>2012-08-25T06:09:26Z</time>
      </trkpt>
      <trkpt lat="44.41296" lon="5.16045">
        <ele>574.04</ele>
        <time>2012-08-25T06:09:38Z</time>
      </trkpt>
      <trkpt lat="44.41313" lon="5.16031">
        <ele>573.08</ele>
        <time>2012-08-25T06:09:49Z</time>
      </trkpt>
      <trkpt lat="44.41321" lon="5.16022">
        <ele>574.53</ele>
        <time>2012-08-25T06:09:54Z</time>
      </trkpt>
      <trkpt lat="44.41343" lon="5.15991">
        <ele>574.53</ele>
        <time>2012-08-25T06:10:06Z</time>
      </trkpt>
      <trkpt lat="44.41357" lon="5.15965">
        <ele>576.45</ele>
        <time>2012-08-25T06:10:17Z</time>
      </trkpt>
      <trkpt lat="44.41376" lon="5.15947">
        <ele>578.37</ele>
        <time>2012-08-25T06:10:29Z</time>
      </trkpt>
      <trkpt lat="44.41378" lon="5.15946">
        <ele>578.37</ele>
        <time>2012-08-25T06:10:30Z</time>
      </trkpt>
      <trkpt lat="44.4139" lon="5.15938">
        <ele>579.33</ele>
        <time>2012-08-25T06:10:38Z</time>
      </trkpt>
      <trkpt lat="44.41404" lon="5.15919">
        <ele>581.25</ele>
        <time>2012-08-25T06:10:49Z</time>
      </trkpt>
      <trkpt lat="44.41409" lon="5.15903">
        <ele>584.14</ele>
        <time>2012-08-25T06:10:55Z</time>
      </trkpt>
      <trkpt lat="44.4141" lon="5.15901">
        <ele>583.66</ele>
        <time>2012-08-25T06:10:56Z</time>
      </trkpt>
      <trkpt lat="44.41417" lon="5.15876">
        <ele>585.1</ele>
        <time>2012-08-25T06:11:07Z</time>
      </trkpt>
      <trkpt lat="44.41423" lon="5.15865">
        <ele>588.46</ele>
        <time>2012-08-25T06:11:13Z</time>
      </trkpt>
      <trkpt lat="44.41427" lon="5.15864">
        <ele>584.14</ele>
        <time>2012-08-25T06:11:15Z</time>
      </trkpt>
      <trkpt lat="44.41428" lon="5.15864">
        <ele>587.5</ele>
        <time>2012-08-25T06:11:16Z</time>
      </trkpt>
      <trkpt lat="44.41441" lon="5.15881">
        <ele>586.54</ele>
        <time>2012-08-25T06:11:24Z</time>
      </trkpt>
      <trkpt lat="44.41452" lon="5.15896">
        <ele>583.18</ele>
        <time>2012-08-25T06:11:31Z</time>
      </trkpt>
      <trkpt lat="44.41458" lon="5.15901">
        <ele>586.54</ele>
        <time>2012-08-25T06:11:34Z</time>
      </trkpt>
      <trkpt lat="44.41464" lon="5.15904">
        <ele>586.06</ele>
        <time>2012-08-25T06:11:38Z</time>
      </trkpt>
      <trkpt lat="44.41473" lon="5.15903">
        <ele>590.39</ele>
        <time>2012-08-25T06:11:46Z</time>
      </trkpt>
      <trkpt lat="44.41471" lon="5.15894">
        <ele>588.95</ele>
        <time>2012-08-25T06:11:50Z</time>
      </trkpt>
      <trkpt lat="44.41471" lon="5.15891">
        <ele>588.95</ele>
        <time>2012-08-25T06:11:51Z</time>
      </trkpt>
      <trkpt lat="44.41477" lon="5.15881">
        <ele>592.31</ele>
        <time>2012-08-25T06:11:59Z</time>
      </trkpt>
      <trkpt lat="44.41484" lon="5.15881">
        <ele>590.39</ele>
        <time>2012-08-25T06:12:02Z</time>
      </trkpt>
      <trkpt lat="44.41488" lon="5.15881">
        <ele>593.75</ele>
        <time>2012-08-25T06:12:04Z</time>
      </trkpt>
      <trkpt lat="44.41492" lon="5.1588">
        <ele>590.39</ele>
        <time>2012-08-25T06:12:07Z</time>
      </trkpt>
      <trkpt lat="44.41493" lon="5.15878">
        <ele>590.39</ele>
        <time>2012-08-25T06:12:08Z</time>
      </trkpt>
      <trkpt lat="44.41495" lon="5.15874">
        <ele>594.71</ele>
        <time>2012-08-25T06:12:10Z</time>
      </trkpt>
      <trkpt lat="44.41502" lon="5.15844">
        <ele>598.08</ele>
        <time>2012-08-25T06:12:23Z</time>
      </trkpt>
      <trkpt lat="44.41503" lon="5.15829">
        <ele>599.52</ele>
        <time>2012-08-25T06:12:29Z</time>
      </trkpt>
      <trkpt lat="44.41512" lon="5.15815">
        <ele>599.52</ele>
        <time>2012-08-25T06:12:38Z</time>
      </trkpt>
      <trkpt lat="44.41516" lon="5.15812">
        <ele>601.44</ele>
        <time>2012-08-25T06:12:41Z</time>
      </trkpt>
      <trkpt lat="44.41521" lon="5.1581">
        <ele>598.56</ele>
        <time>2012-08-25T06:12:45Z</time>
      </trkpt>
      <trkpt lat="44.41522" lon="5.1581">
        <ele>602.4</ele>
        <time>2012-08-25T06:12:46Z</time>
      </trkpt>
      <trkpt lat="44.41525" lon="5.15809">
        <ele>604.33</ele>
        <time>2012-08-25T06:12:49Z</time>
      </trkpt>
      <trkpt lat="44.41548" lon="5.15805">
        <ele>607.69</ele>
        <time>2012-08-25T06:13:04Z</time>
      </trkpt>
      <trkpt lat="44.41556" lon="5.15808">
        <ele>607.21</ele>
        <time>2012-08-25T06:13:10Z</time>
      </trkpt>
      <trkpt lat="44.41578" lon="5.15817">
        <ele>607.21</ele>
        <time>2012-08-25T06:13:26Z</time>
      </trkpt>
      <trkpt lat="44.41581" lon="5.15819">
        <ele>607.21</ele>
        <time>2012-08-25T06:13:29Z</time>
      </trkpt>
      <trkpt lat="44.41585" lon="5.15816">
        <ele>609.13</ele>
        <time>2012-08-25T06:13:33Z</time>
      </trkpt>
      <trkpt lat="44.41586" lon="5.15815">
        <ele>608.65</ele>
        <time>2012-08-25T06:13:34Z</time>
      </trkpt>
      <trkpt lat="44.41587" lon="5.15814">
        <ele>609.13</ele>
        <time>2012-08-25T06:13:35Z</time>
      </trkpt>
      <trkpt lat="44.41598" lon="5.15795">
        <ele>612.5</ele>
        <time>2012-08-25T06:13:50Z</time>
      </trkpt>
      <trkpt lat="44.41613" lon="5.15767">
        <ele>615.38</ele>
        <time>2012-08-25T06:14:05Z</time>
      </trkpt>
      <trkpt lat="44.41625" lon="5.15743">
        <ele>618.26</ele>
        <time>2012-08-25T06:14:20Z</time>
      </trkpt>
      <trkpt lat="44.41629" lon="5.15738">
        <ele>615.86</ele>
        <time>2012-08-25T06:14:23Z</time>
      </trkpt>
      <trkpt lat="44.41634" lon="5.15733">
        <ele>617.3</ele>
        <time>2012-08-25T06:14:26Z</time>
      </trkpt>
      <trkpt lat="44.41643" lon="5.1572">
        <ele>620.67</ele>
        <time>2012-08-25T06:14:36Z</time>
      </trkpt>
      <trkpt lat="44.41651" lon="5.15709">
        <ele>621.63</ele>
        <time>2012-08-25T06:14:43Z</time>
      </trkpt>
      <trkpt lat="44.41654" lon="5.15691">
        <ele>624.51</ele>
        <time>2012-08-25T06:14:52Z</time>
      </trkpt>
      <trkpt lat="44.41653" lon="5.15687">
        <ele>624.99</ele>
        <time>2012-08-25T06:14:54Z</time>
      </trkpt>
      <trkpt lat="44.4166" lon="5.15674">
        <ele>625.96</ele>
        <time>2012-08-25T06:15:03Z</time>
      </trkpt>
      <trkpt lat="44.41667" lon="5.1565">
        <ele>629.32</ele>
        <time>2012-08-25T06:15:15Z</time>
      </trkpt>
      <trkpt lat="44.41668" lon="5.15639">
        <ele>630.76</ele>
        <time>2012-08-25T06:15:22Z</time>
      </trkpt>
      <trkpt lat="44.41669" lon="5.15635">
        <ele>630.28</ele>
        <time>2012-08-25T06:15:24Z</time>
      </trkpt>
      <trkpt lat="44.41668" lon="5.15626">
        <ele>633.17</ele>
        <time>2012-08-25T06:15:29Z</time>
      </trkpt>
      <trkpt lat="44.41669" lon="5.15623">
        <ele>633.65</ele>
        <time>2012-08-25T06:15:31Z</time>
      </trkpt>
      <trkpt lat="44.41681" lon="5.15607">
        <ele>636.05</ele>
        <time>2012-08-25T06:15:44Z</time>
      </trkpt>
      <trkpt lat="44.41689" lon="5.15595">
        <ele>640.38</ele>
        <time>2012-08-25T06:15:54Z</time>
      </trkpt>
      <trkpt lat="44.41692" lon="5.15587">
        <ele>639.89</ele>
        <time>2012-08-25T06:15:59Z</time>
      </trkpt>
      <trkpt lat="44.41692" lon="5.15573">
        <ele>643.74</ele>
        <time>2012-08-25T06:16:05Z</time>
      </trkpt>
      <trkpt lat="44.41692" lon="5.15566">
        <ele>643.26</ele>
        <time>2012-08-25T06:16:09Z</time>
      </trkpt>
      <trkpt lat="44.41695" lon="5.15549">
        <ele>647.1</ele>
        <time>2012-08-25T06:16:19Z</time>
      </trkpt>
      <trkpt lat="44.41695" lon="5.15547">
        <ele>646.62</ele>
        <time>2012-08-25T06:16:20Z</time>
      </trkpt>
      <trkpt lat="44.41695" lon="5.15545">
        <ele>644.7</ele>
        <time>2012-08-25T06:16:22Z</time>
      </trkpt>
      <trkpt lat="44.41696" lon="5.1554">
        <ele>648.07</ele>
        <time>2012-08-25T06:16:25Z</time>
      </trkpt>
      <trkpt lat="44.41696" lon="5.15539">
        <ele>648.07</ele>
        <time>2012-08-25T06:16:26Z</time>
      </trkpt>
      <trkpt lat="44.41698" lon="5.15527">
        <ele>647.59</ele>
        <time>2012-08-25T06:16:33Z</time>
      </trkpt>
      <trkpt lat="44.417" lon="5.15524">
        <ele>646.14</ele>
        <time>2012-08-25T06:16:35Z</time>
      </trkpt>
      <trkpt lat="44.41701" lon="5.1552">
        <ele>650.47</ele>
        <time>2012-08-25T06:16:38Z</time>
      </trkpt>
      <trkpt lat="44.41702" lon="5.15517">
        <ele>652.39</ele>
        <time>2012-08-25T06:16:40Z</time>
      </trkpt>
      <trkpt lat="44.41702" lon="5.15515">
        <ele>648.07</ele>
        <time>2012-08-25T06:16:42Z</time>
      </trkpt>
      <trkpt lat="44.41702" lon="5.15514">
        <ele>648.55</ele>
        <time>2012-08-25T06:16:43Z</time>
      </trkpt>
      <trkpt lat="44.41703" lon="5.15513">
        <ele>649.99</ele>
        <time>2012-08-25T06:16:44Z</time>
      </trkpt>
      <trkpt lat="44.41706" lon="5.1551">
        <ele>652.87</ele>
        <time>2012-08-25T06:16:48Z</time>
      </trkpt>
      <trkpt lat="44.41707" lon="5.15509">
        <ele>653.83</ele>
        <time>2012-08-25T06:16:50Z</time>
      </trkpt>
      <trkpt lat="44.4171" lon="5.155">
        <ele>652.39</ele>
        <time>2012-08-25T06:16:57Z</time>
      </trkpt>
      <trkpt lat="44.4171" lon="5.15494">
        <ele>656.24</ele>
        <time>2012-08-25T06:17:01Z</time>
      </trkpt>
      <trkpt lat="44.41711" lon="5.1549">
        <ele>654.31</ele>
        <time>2012-08-25T06:17:05Z</time>
      </trkpt>
      <trkpt lat="44.41714" lon="5.15488">
        <ele>658.16</ele>
        <time>2012-08-25T06:17:08Z</time>
      </trkpt>
      <trkpt lat="44.41716" lon="5.15484">
        <ele>654.31</ele>
        <time>2012-08-25T06:17:13Z</time>
      </trkpt>
      <trkpt lat="44.41716" lon="5.15483">
        <ele>657.2</ele>
        <time>2012-08-25T06:17:14Z</time>
      </trkpt>
      <trkpt lat="44.41717" lon="5.15481">
        <ele>660.56</ele>
        <time>2012-08-25T06:17:16Z</time>
      </trkpt>
      <trkpt lat="44.41718" lon="5.1548">
        <ele>660.56</ele>
        <time>2012-08-25T06:17:17Z</time>
      </trkpt>
      <trkpt lat="44.4172" lon="5.15476">
        <ele>658.64</ele>
        <time>2012-08-25T06:17:20Z</time>
      </trkpt>
      <trkpt lat="44.41721" lon="5.15474">
        <ele>660.08</ele>
        <time>2012-08-25T06:17:22Z</time>
      </trkpt>
      <trkpt lat="44.41723" lon="5.15471">
        <ele>661.04</ele>
        <time>2012-08-25T06:17:25Z</time>
      </trkpt>
      <trkpt lat="44.41724" lon="5.15462">
        <ele>665.37</ele>
        <time>2012-08-25T06:17:32Z</time>
      </trkpt>
      <trkpt lat="44.41725" lon="5.15457">
        <ele>661.52</ele>
        <time>2012-08-25T06:17:35Z</time>
      </trkpt>
      <trkpt lat="44.41726" lon="5.15456">
        <ele>662.97</ele>
        <time>2012-08-25T06:17:36Z</time>
      </trkpt>
      <trkpt lat="44.41727" lon="5.15454">
        <ele>666.33</ele>
        <time>2012-08-25T06:17:38Z</time>
      </trkpt>
      <trkpt lat="44.41727" lon="5.15452">
        <ele>665.37</ele>
        <time>2012-08-25T06:17:39Z</time>
      </trkpt>
      <trkpt lat="44.41733" lon="5.15447">
        <ele>667.29</ele>
        <time>2012-08-25T06:17:46Z</time>
      </trkpt>
      <trkpt lat="44.41733" lon="5.15447">
        <ele>663.45</ele>
        <time>2012-08-25T06:17:47Z</time>
      </trkpt>
      <trkpt lat="44.41735" lon="5.15445">
        <ele>667.77</ele>
        <time>2012-08-25T06:17:49Z</time>
      </trkpt>
      <trkpt lat="44.4174" lon="5.1544">
        <ele>671.62</ele>
        <time>2012-08-25T06:17:58Z</time>
      </trkpt>
      <trkpt lat="44.41741" lon="5.15439">
        <ele>670.66</ele>
        <time>2012-08-25T06:17:59Z</time>
      </trkpt>
      <trkpt lat="44.41743" lon="5.15437">
        <ele>668.73</ele>
        <time>2012-08-25T06:18:01Z</time>
      </trkpt>
      <trkpt lat="44.41745" lon="5.15435">
        <ele>673.06</ele>
        <time>2012-08-25T06:18:03Z</time>
      </trkpt>
      <trkpt lat="44.41745" lon="5.15434">
        <ele>668.25</ele>
        <time>2012-08-25T06:18:04Z</time>
      </trkpt>
      <trkpt lat="44.41746" lon="5.15433">
        <ele>669.22</ele>
        <time>2012-08-25T06:18:05Z</time>
      </trkpt>
      <trkpt lat="44.41748" lon="5.15432">
        <ele>673.06</ele>
        <time>2012-08-25T06:18:08Z</time>
      </trkpt>
      <trkpt lat="44.4175" lon="5.1543">
        <ele>670.18</ele>
        <time>2012-08-25T06:18:10Z</time>
      </trkpt>
      <trkpt lat="44.41751" lon="5.15428">
        <ele>674.5</ele>
        <time>2012-08-25T06:18:12Z</time>
      </trkpt>
      <trkpt lat="44.41751" lon="5.15427">
        <ele>671.14</ele>
        <time>2012-08-25T06:18:14Z</time>
      </trkpt>
      <trkpt lat="44.41753" lon="5.15426">
        <ele>674.5</ele>
        <time>2012-08-25T06:18:16Z</time>
      </trkpt>
      <trkpt lat="44.41754" lon="5.15425">
        <ele>671.62</ele>
        <time>2012-08-25T06:18:19Z</time>
      </trkpt>
      <trkpt lat="44.41755" lon="5.15425">
        <ele>674.98</ele>
        <time>2012-08-25T06:18:21Z</time>
      </trkpt>
      <trkpt lat="44.41759" lon="5.15424">
        <ele>675.46</ele>
        <time>2012-08-25T06:18:27Z</time>
      </trkpt>
      <trkpt lat="44.41765" lon="5.15422">
        <ele>680.27</ele>
        <time>2012-08-25T06:18:33Z</time>
      </trkpt>
      <trkpt lat="44.41765" lon="5.15422">
        <ele>676.91</ele>
        <time>2012-08-25T06:18:34Z</time>
      </trkpt>
      <trkpt lat="44.41768" lon="5.15423">
        <ele>681.23</ele>
        <time>2012-08-25T06:18:38Z</time>
      </trkpt>
      <trkpt lat="44.41769" lon="5.15423">
        <ele>675.94</ele>
        <time>2012-08-25T06:18:40Z</time>
      </trkpt>
      <trkpt lat="44.4177" lon="5.15423">
        <ele>680.27</ele>
        <time>2012-08-25T06:18:41Z</time>
      </trkpt>
      <trkpt lat="44.41773" lon="5.15422">
        <ele>681.71</ele>
        <time>2012-08-25T06:18:46Z</time>
      </trkpt>
      <trkpt lat="44.41775" lon="5.15422">
        <ele>679.31</ele>
        <time>2012-08-25T06:18:48Z</time>
      </trkpt>
      <trkpt lat="44.41777" lon="5.15421">
        <ele>683.15</ele>
        <time>2012-08-25T06:18:50Z</time>
      </trkpt>
      <trkpt lat="44.41789" lon="5.15415">
        <ele>687</ele>
        <time>2012-08-25T06:19:04Z</time>
      </trkpt>
      <trkpt lat="44.41791" lon="5.15415">
        <ele>687.48</ele>
        <time>2012-08-25T06:19:08Z</time>
      </trkpt>
      <trkpt lat="44.41795" lon="5.15415">
        <ele>688.44</ele>
        <time>2012-08-25T06:19:12Z</time>
      </trkpt>
      <trkpt lat="44.41797" lon="5.15414">
        <ele>686.52</ele>
        <time>2012-08-25T06:19:14Z</time>
      </trkpt>
      <trkpt lat="44.41799" lon="5.15413">
        <ele>689.88</ele>
        <time>2012-08-25T06:19:16Z</time>
      </trkpt>
      <trkpt lat="44.41801" lon="5.15412">
        <ele>685.56</ele>
        <time>2012-08-25T06:19:22Z</time>
      </trkpt>
      <trkpt lat="44.41802" lon="5.15413">
        <ele>689.4</ele>
        <time>2012-08-25T06:19:23Z</time>
      </trkpt>
      <trkpt lat="44.41803" lon="5.15413">
        <ele>689.4</ele>
        <time>2012-08-25T06:19:24Z</time>
      </trkpt>
      <trkpt lat="44.41804" lon="5.15414">
        <ele>693.25</ele>
        <time>2012-08-25T06:19:26Z</time>
      </trkpt>
      <trkpt lat="44.41807" lon="5.15413">
        <ele>692.77</ele>
        <time>2012-08-25T06:19:30Z</time>
      </trkpt>
      <trkpt lat="44.41808" lon="5.15413">
        <ele>690.36</ele>
        <time>2012-08-25T06:19:31Z</time>
      </trkpt>
      <trkpt lat="44.41809" lon="5.15411">
        <ele>694.21</ele>
        <time>2012-08-25T06:19:33Z</time>
      </trkpt>
      <trkpt lat="44.4181" lon="5.1541">
        <ele>693.73</ele>
        <time>2012-08-25T06:19:34Z</time>
      </trkpt>
      <trkpt lat="44.41811" lon="5.15408">
        <ele>690.36</ele>
        <time>2012-08-25T06:19:35Z</time>
      </trkpt>
      <trkpt lat="44.41812" lon="5.15406">
        <ele>695.65</ele>
        <time>2012-08-25T06:19:37Z</time>
      </trkpt>
      <trkpt lat="44.41813" lon="5.15405">
        <ele>695.17</ele>
        <time>2012-08-25T06:19:38Z</time>
      </trkpt>
      <trkpt lat="44.41822" lon="5.15398">
        <ele>698.53</ele>
        <time>2012-08-25T06:19:47Z</time>
      </trkpt>
      <trkpt lat="44.41822" lon="5.15397">
        <ele>694.69</ele>
        <time>2012-08-25T06:19:48Z</time>
      </trkpt>
      <trkpt lat="44.41825" lon="5.15395">
        <ele>698.53</ele>
        <time>2012-08-25T06:19:52Z</time>
      </trkpt>
      <trkpt lat="44.41827" lon="5.15394">
        <ele>697.09</ele>
        <time>2012-08-25T06:19:55Z</time>
      </trkpt>
      <trkpt lat="44.41829" lon="5.15392">
        <ele>701.42</ele>
        <time>2012-08-25T06:20:02Z</time>
      </trkpt>
      <trkpt lat="44.41829" lon="5.15392">
        <ele>699.98</ele>
        <time>2012-08-25T06:20:03Z</time>
      </trkpt>
      <trkpt lat="44.41832" lon="5.15391">
        <ele>698.05</ele>
        <time>2012-08-25T06:20:07Z</time>
      </trkpt>
      <trkpt lat="44.41835" lon="5.15389">
        <ele>701.9</ele>
        <time>2012-08-25T06:20:10Z</time>
      </trkpt>
      <trkpt lat="44.41842" lon="5.15382">
        <ele>705.26</ele>
        <time>2012-08-25T06:20:19Z</time>
      </trkpt>
      <trkpt lat="44.41843" lon="5.15382">
        <ele>705.26</ele>
        <time>2012-08-25T06:20:20Z</time>
      </trkpt>
      <trkpt lat="44.41844" lon="5.15382">
        <ele>701.9</ele>
        <time>2012-08-25T06:20:22Z</time>
      </trkpt>
      <trkpt lat="44.41846" lon="5.15381">
        <ele>705.26</ele>
        <time>2012-08-25T06:20:25Z</time>
      </trkpt>
      <trkpt lat="44.41848" lon="5.15381">
        <ele>702.38</ele>
        <time>2012-08-25T06:20:27Z</time>
      </trkpt>
      <trkpt lat="44.41849" lon="5.15381">
        <ele>705.75</ele>
        <time>2012-08-25T06:20:28Z</time>
      </trkpt>
      <trkpt lat="44.41853" lon="5.15378">
        <ele>706.23</ele>
        <time>2012-08-25T06:20:34Z</time>
      </trkpt>
      <trkpt lat="44.41855" lon="5.15376">
        <ele>709.59</ele>
        <time>2012-08-25T06:20:36Z</time>
      </trkpt>
      <trkpt lat="44.41857" lon="5.15374">
        <ele>705.26</ele>
        <time>2012-08-25T06:20:38Z</time>
      </trkpt>
      <trkpt lat="44.41858" lon="5.15372">
        <ele>705.75</ele>
        <time>2012-08-25T06:20:39Z</time>
      </trkpt>
      <trkpt lat="44.41859" lon="5.1537">
        <ele>710.07</ele>
        <time>2012-08-25T06:20:41Z</time>
      </trkpt>
      <trkpt lat="44.41861" lon="5.15366">
        <ele>708.15</ele>
        <time>2012-08-25T06:20:44Z</time>
      </trkpt>
      <trkpt lat="44.41862" lon="5.15364">
        <ele>710.07</ele>
        <time>2012-08-25T06:20:46Z</time>
      </trkpt>
      <trkpt lat="44.41868" lon="5.15366">
        <ele>714.4</ele>
        <time>2012-08-25T06:20:54Z</time>
      </trkpt>
      <trkpt lat="44.41869" lon="5.15366">
        <ele>708.63</ele>
        <time>2012-08-25T06:20:55Z</time>
      </trkpt>
      <trkpt lat="44.4187" lon="5.15366">
        <ele>711.99</ele>
        <time>2012-08-25T06:20:56Z</time>
      </trkpt>
      <trkpt lat="44.41872" lon="5.15368">
        <ele>711.99</ele>
        <time>2012-08-25T06:21:00Z</time>
      </trkpt>
      <trkpt lat="44.41874" lon="5.15368">
        <ele>714.4</ele>
        <time>2012-08-25T06:21:02Z</time>
      </trkpt>
      <trkpt lat="44.4188" lon="5.15368">
        <ele>717.28</ele>
        <time>2012-08-25T06:21:10Z</time>
      </trkpt>
      <trkpt lat="44.41882" lon="5.15368">
        <ele>713.44</ele>
        <time>2012-08-25T06:21:12Z</time>
      </trkpt>
      <trkpt lat="44.41883" lon="5.15366">
        <ele>717.76</ele>
        <time>2012-08-25T06:21:14Z</time>
      </trkpt>
      <trkpt lat="44.41884" lon="5.15364">
        <ele>717.76</ele>
        <time>2012-08-25T06:21:15Z</time>
      </trkpt>
      <trkpt lat="44.41886" lon="5.15362">
        <ele>713.92</ele>
        <time>2012-08-25T06:21:17Z</time>
      </trkpt>
      <trkpt lat="44.41886" lon="5.15361">
        <ele>720.16</ele>
        <time>2012-08-25T06:21:18Z</time>
      </trkpt>
      <trkpt lat="44.4189" lon="5.15357">
        <ele>715.36</ele>
        <time>2012-08-25T06:21:21Z</time>
      </trkpt>
      <trkpt lat="44.41899" lon="5.15349">
        <ele>723.05</ele>
        <time>2012-08-25T06:21:31Z</time>
      </trkpt>
      <trkpt lat="44.41904" lon="5.15348">
        <ele>717.76</ele>
        <time>2012-08-25T06:21:35Z</time>
      </trkpt>
      <trkpt lat="44.41905" lon="5.15348">
        <ele>722.09</ele>
        <time>2012-08-25T06:21:36Z</time>
      </trkpt>
      <trkpt lat="44.41907" lon="5.15349">
        <ele>723.53</ele>
        <time>2012-08-25T06:21:38Z</time>
      </trkpt>
      <trkpt lat="44.41919" lon="5.15348">
        <ele>727.37</ele>
        <time>2012-08-25T06:21:50Z</time>
      </trkpt>
      <trkpt lat="44.41922" lon="5.15348">
        <ele>724.01</ele>
        <time>2012-08-25T06:21:52Z</time>
      </trkpt>
      <trkpt lat="44.41925" lon="5.15348">
        <ele>726.41</ele>
        <time>2012-08-25T06:21:56Z</time>
      </trkpt>
      <trkpt lat="44.41929" lon="5.15344">
        <ele>725.93</ele>
        <time>2012-08-25T06:22:03Z</time>
      </trkpt>
      <trkpt lat="44.41933" lon="5.15339">
        <ele>728.82</ele>
        <time>2012-08-25T06:22:06Z</time>
      </trkpt>
      <trkpt lat="44.41935" lon="5.15336">
        <ele>730.26</ele>
        <time>2012-08-25T06:22:09Z</time>
      </trkpt>
      <trkpt lat="44.41938" lon="5.15337">
        <ele>728.82</ele>
        <time>2012-08-25T06:22:11Z</time>
      </trkpt>
      <trkpt lat="44.41946" lon="5.15342">
        <ele>731.7</ele>
        <time>2012-08-25T06:22:17Z</time>
      </trkpt>
      <trkpt lat="44.4195" lon="5.15344">
        <ele>733.14</ele>
        <time>2012-08-25T06:22:21Z</time>
      </trkpt>
      <trkpt lat="44.41951" lon="5.15344">
        <ele>729.78</ele>
        <time>2012-08-25T06:22:22Z</time>
      </trkpt>
      <trkpt lat="44.41952" lon="5.15345">
        <ele>731.22</ele>
        <time>2012-08-25T06:22:23Z</time>
      </trkpt>
      <trkpt lat="44.41954" lon="5.15346">
        <ele>736.03</ele>
        <time>2012-08-25T06:22:26Z</time>
      </trkpt>
      <trkpt lat="44.41955" lon="5.15346">
        <ele>730.74</ele>
        <time>2012-08-25T06:22:27Z</time>
      </trkpt>
      <trkpt lat="44.41957" lon="5.15346">
        <ele>733.62</ele>
        <time>2012-08-25T06:22:28Z</time>
      </trkpt>
      <trkpt lat="44.41958" lon="5.15346">
        <ele>735.07</ele>
        <time>2012-08-25T06:22:29Z</time>
      </trkpt>
      <trkpt lat="44.41961" lon="5.15346">
        <ele>730.74</ele>
        <time>2012-08-25T06:22:31Z</time>
      </trkpt>
      <trkpt lat="44.41963" lon="5.15345">
        <ele>733.62</ele>
        <time>2012-08-25T06:22:32Z</time>
      </trkpt>
      <trkpt lat="44.41966" lon="5.15343">
        <ele>732.18</ele>
        <time>2012-08-25T06:22:35Z</time>
      </trkpt>
      <trkpt lat="44.41967" lon="5.15342">
        <ele>736.51</ele>
        <time>2012-08-25T06:22:36Z</time>
      </trkpt>
      <trkpt lat="44.41969" lon="5.1534">
        <ele>737.95</ele>
        <time>2012-08-25T06:22:38Z</time>
      </trkpt>
      <trkpt lat="44.4197" lon="5.15339">
        <ele>734.1</ele>
        <time>2012-08-25T06:22:39Z</time>
      </trkpt>
      <trkpt lat="44.41973" lon="5.15338">
        <ele>737.95</ele>
        <time>2012-08-25T06:22:42Z</time>
      </trkpt>
      <trkpt lat="44.41976" lon="5.15336">
        <ele>735.07</ele>
        <time>2012-08-25T06:22:45Z</time>
      </trkpt>
      <trkpt lat="44.41977" lon="5.15336">
        <ele>738.91</ele>
        <time>2012-08-25T06:22:46Z</time>
      </trkpt>
      <trkpt lat="44.41978" lon="5.15336">
        <ele>740.35</ele>
        <time>2012-08-25T06:22:48Z</time>
      </trkpt>
      <trkpt lat="44.4198" lon="5.15334">
        <ele>735.07</ele>
        <time>2012-08-25T06:22:50Z</time>
      </trkpt>
      <trkpt lat="44.41983" lon="5.15329">
        <ele>741.31</ele>
        <time>2012-08-25T06:22:53Z</time>
      </trkpt>
      <trkpt lat="44.41985" lon="5.15328">
        <ele>737.95</ele>
        <time>2012-08-25T06:22:55Z</time>
      </trkpt>
      <trkpt lat="44.41987" lon="5.15326">
        <ele>741.31</ele>
        <time>2012-08-25T06:22:57Z</time>
      </trkpt>
      <trkpt lat="44.41987" lon="5.15326">
        <ele>738.43</ele>
        <time>2012-08-25T06:22:58Z</time>
      </trkpt>
      <trkpt lat="44.41989" lon="5.15321">
        <ele>743.24</ele>
        <time>2012-08-25T06:23:03Z</time>
      </trkpt>
      <trkpt lat="44.4199" lon="5.1532">
        <ele>742.28</ele>
        <time>2012-08-25T06:23:05Z</time>
      </trkpt>
      <trkpt lat="44.41993" lon="5.15319">
        <ele>743.72</ele>
        <time>2012-08-25T06:23:08Z</time>
      </trkpt>
      <trkpt lat="44.41994" lon="5.15321">
        <ele>747.56</ele>
        <time>2012-08-25T06:23:11Z</time>
      </trkpt>
      <trkpt lat="44.41995" lon="5.15321">
        <ele>742.28</ele>
        <time>2012-08-25T06:23:12Z</time>
      </trkpt>
      <trkpt lat="44.41998" lon="5.15319">
        <ele>746.12</ele>
        <time>2012-08-25T06:23:15Z</time>
      </trkpt>
      <trkpt lat="44.42001" lon="5.15315">
        <ele>742.76</ele>
        <time>2012-08-25T06:23:19Z</time>
      </trkpt>
      <trkpt lat="44.42001" lon="5.15315">
        <ele>748.04</ele>
        <time>2012-08-25T06:23:20Z</time>
      </trkpt>
      <trkpt lat="44.42002" lon="5.15313">
        <ele>749</ele>
        <time>2012-08-25T06:23:22Z</time>
      </trkpt>
      <trkpt lat="44.42003" lon="5.15313">
        <ele>745.64</ele>
        <time>2012-08-25T06:23:23Z</time>
      </trkpt>
      <trkpt lat="44.42003" lon="5.15312">
        <ele>746.12</ele>
        <time>2012-08-25T06:23:24Z</time>
      </trkpt>
      <trkpt lat="44.42005" lon="5.15311">
        <ele>749.49</ele>
        <time>2012-08-25T06:23:26Z</time>
      </trkpt>
      <trkpt lat="44.42006" lon="5.15308">
        <ele>749.49</ele>
        <time>2012-08-25T06:23:29Z</time>
      </trkpt>
      <trkpt lat="44.42009" lon="5.15305">
        <ele>746.6</ele>
        <time>2012-08-25T06:23:33Z</time>
      </trkpt>
      <trkpt lat="44.42009" lon="5.15304">
        <ele>749.97</ele>
        <time>2012-08-25T06:23:34Z</time>
      </trkpt>
      <trkpt lat="44.42014" lon="5.15298">
        <ele>753.33</ele>
        <time>2012-08-25T06:23:42Z</time>
      </trkpt>
      <trkpt lat="44.42016" lon="5.15296">
        <ele>749.97</ele>
        <time>2012-08-25T06:23:44Z</time>
      </trkpt>
      <trkpt lat="44.42016" lon="5.15295">
        <ele>753.33</ele>
        <time>2012-08-25T06:23:45Z</time>
      </trkpt>
      <trkpt lat="44.42019" lon="5.15288">
        <ele>755.25</ele>
        <time>2012-08-25T06:23:50Z</time>
      </trkpt>
      <trkpt lat="44.42019" lon="5.15287">
        <ele>751.89</ele>
        <time>2012-08-25T06:23:51Z</time>
      </trkpt>
      <trkpt lat="44.4202" lon="5.15286">
        <ele>755.25</ele>
        <time>2012-08-25T06:23:53Z</time>
      </trkpt>
      <trkpt lat="44.42026" lon="5.15282">
        <ele>759.1</ele>
        <time>2012-08-25T06:24:01Z</time>
      </trkpt>
      <trkpt lat="44.42029" lon="5.1528">
        <ele>758.62</ele>
        <time>2012-08-25T06:24:05Z</time>
      </trkpt>
      <trkpt lat="44.4203" lon="5.1528">
        <ele>757.66</ele>
        <time>2012-08-25T06:24:06Z</time>
      </trkpt>
      <trkpt lat="44.42032" lon="5.15279">
        <ele>760.54</ele>
        <time>2012-08-25T06:24:09Z</time>
      </trkpt>
      <trkpt lat="44.42033" lon="5.15278">
        <ele>756.69</ele>
        <time>2012-08-25T06:24:10Z</time>
      </trkpt>
      <trkpt lat="44.42034" lon="5.15277">
        <ele>757.66</ele>
        <time>2012-08-25T06:24:11Z</time>
      </trkpt>
      <trkpt lat="44.42034" lon="5.15276">
        <ele>761.5</ele>
        <time>2012-08-25T06:24:13Z</time>
      </trkpt>
      <trkpt lat="44.42035" lon="5.15275">
        <ele>761.02</ele>
        <time>2012-08-25T06:24:14Z</time>
      </trkpt>
      <trkpt lat="44.42035" lon="5.15275">
        <ele>757.66</ele>
        <time>2012-08-25T06:24:17Z</time>
      </trkpt>
      <trkpt lat="44.42035" lon="5.15275">
        <ele>761.02</ele>
        <time>2012-08-25T06:24:18Z</time>
      </trkpt>
      <trkpt lat="44.42042" lon="5.15269">
        <ele>763.42</ele>
        <time>2012-08-25T06:24:29Z</time>
      </trkpt>
      <trkpt lat="44.42047" lon="5.15266">
        <ele>766.31</ele>
        <time>2012-08-25T06:24:35Z</time>
      </trkpt>
      <trkpt lat="44.42048" lon="5.15266">
        <ele>766.31</ele>
        <time>2012-08-25T06:24:36Z</time>
      </trkpt>
      <trkpt lat="44.42048" lon="5.15265">
        <ele>764.87</ele>
        <time>2012-08-25T06:24:37Z</time>
      </trkpt>
      <trkpt lat="44.42049" lon="5.15264">
        <ele>763.9</ele>
        <time>2012-08-25T06:24:39Z</time>
      </trkpt>
      <trkpt lat="44.42051" lon="5.15262">
        <ele>767.75</ele>
        <time>2012-08-25T06:24:41Z</time>
      </trkpt>
      <trkpt lat="44.42051" lon="5.15262">
        <ele>767.75</ele>
        <time>2012-08-25T06:24:42Z</time>
      </trkpt>
      <trkpt lat="44.42051" lon="5.15259">
        <ele>763.42</ele>
        <time>2012-08-25T06:24:44Z</time>
      </trkpt>
      <trkpt lat="44.42053" lon="5.15256">
        <ele>767.27</ele>
        <time>2012-08-25T06:24:47Z</time>
      </trkpt>
      <trkpt lat="44.42058" lon="5.15251">
        <ele>767.27</ele>
        <time>2012-08-25T06:24:54Z</time>
      </trkpt>
      <trkpt lat="44.4206" lon="5.15248">
        <ele>770.15</ele>
        <time>2012-08-25T06:24:56Z</time>
      </trkpt>
      <trkpt lat="44.42064" lon="5.15244">
        <ele>767.75</ele>
        <time>2012-08-25T06:25:00Z</time>
      </trkpt>
      <trkpt lat="44.42065" lon="5.15241">
        <ele>772.08</ele>
        <time>2012-08-25T06:25:02Z</time>
      </trkpt>
      <trkpt lat="44.42066" lon="5.1524">
        <ele>770.15</ele>
        <time>2012-08-25T06:25:03Z</time>
      </trkpt>
      <trkpt lat="44.42067" lon="5.15237">
        <ele>773.52</ele>
        <time>2012-08-25T06:25:05Z</time>
      </trkpt>
      <trkpt lat="44.42067" lon="5.15236">
        <ele>773.52</ele>
        <time>2012-08-25T06:25:06Z</time>
      </trkpt>
      <trkpt lat="44.42068" lon="5.15235">
        <ele>769.19</ele>
        <time>2012-08-25T06:25:07Z</time>
      </trkpt>
      <trkpt lat="44.42068" lon="5.15233">
        <ele>772.56</ele>
        <time>2012-08-25T06:25:08Z</time>
      </trkpt>
      <trkpt lat="44.42068" lon="5.15224">
        <ele>771.6</ele>
        <time>2012-08-25T06:25:15Z</time>
      </trkpt>
      <trkpt lat="44.42066" lon="5.15215">
        <ele>774.48</ele>
        <time>2012-08-25T06:25:19Z</time>
      </trkpt>
      <trkpt lat="44.42065" lon="5.15214">
        <ele>773.04</ele>
        <time>2012-08-25T06:25:20Z</time>
      </trkpt>
      <trkpt lat="44.4206" lon="5.15206">
        <ele>775.92</ele>
        <time>2012-08-25T06:25:25Z</time>
      </trkpt>
      <trkpt lat="44.4206" lon="5.15198">
        <ele>777.36</ele>
        <time>2012-08-25T06:25:31Z</time>
      </trkpt>
      <trkpt lat="44.4206" lon="5.15193">
        <ele>779.29</ele>
        <time>2012-08-25T06:25:39Z</time>
      </trkpt>
      <trkpt lat="44.42061" lon="5.15187">
        <ele>777.36</ele>
        <time>2012-08-25T06:25:44Z</time>
      </trkpt>
      <trkpt lat="44.42062" lon="5.15184">
        <ele>780.25</ele>
        <time>2012-08-25T06:25:46Z</time>
      </trkpt>
      <trkpt lat="44.42062" lon="5.15181">
        <ele>777.84</ele>
        <time>2012-08-25T06:25:49Z</time>
      </trkpt>
      <trkpt lat="44.42063" lon="5.15178">
        <ele>781.69</ele>
        <time>2012-08-25T06:25:51Z</time>
      </trkpt>
      <trkpt lat="44.42063" lon="5.15176">
        <ele>781.69</ele>
        <time>2012-08-25T06:25:52Z</time>
      </trkpt>
      <trkpt lat="44.42063" lon="5.15171">
        <ele>784.09</ele>
        <time>2012-08-25T06:25:55Z</time>
      </trkpt>
      <trkpt lat="44.42062" lon="5.15167">
        <ele>780.25</ele>
        <time>2012-08-25T06:25:58Z</time>
      </trkpt>
      <trkpt lat="44.42062" lon="5.15165">
        <ele>780.25</ele>
        <time>2012-08-25T06:25:59Z</time>
      </trkpt>
      <trkpt lat="44.42062" lon="5.15163">
        <ele>784.09</ele>
        <time>2012-08-25T06:26:01Z</time>
      </trkpt>
      <trkpt lat="44.4206" lon="5.15147">
        <ele>782.65</ele>
        <time>2012-08-25T06:26:10Z</time>
      </trkpt>
      <trkpt lat="44.42059" lon="5.15143">
        <ele>787.94</ele>
        <time>2012-08-25T06:26:13Z</time>
      </trkpt>
      <trkpt lat="44.42059" lon="5.15143">
        <ele>787.94</ele>
        <time>2012-08-25T06:26:14Z</time>
      </trkpt>
      <trkpt lat="44.42058" lon="5.15142">
        <ele>785.53</ele>
        <time>2012-08-25T06:26:15Z</time>
      </trkpt>
      <trkpt lat="44.42056" lon="5.15139">
        <ele>788.9</ele>
        <time>2012-08-25T06:26:17Z</time>
      </trkpt>
      <trkpt lat="44.42055" lon="5.15138">
        <ele>787.94</ele>
        <time>2012-08-25T06:26:18Z</time>
      </trkpt>
      <trkpt lat="44.42051" lon="5.15133">
        <ele>790.82</ele>
        <time>2012-08-25T06:26:24Z</time>
      </trkpt>
      <trkpt lat="44.4205" lon="5.15131">
        <ele>789.86</ele>
        <time>2012-08-25T06:26:25Z</time>
      </trkpt>
      <trkpt lat="44.42049" lon="5.15128">
        <ele>786.02</ele>
        <time>2012-08-25T06:26:27Z</time>
      </trkpt>
      <trkpt lat="44.42048" lon="5.15126">
        <ele>789.86</ele>
        <time>2012-08-25T06:26:28Z</time>
      </trkpt>
      <trkpt lat="44.42045" lon="5.15119">
        <ele>790.82</ele>
        <time>2012-08-25T06:26:33Z</time>
      </trkpt>
      <trkpt lat="44.42041" lon="5.15112">
        <ele>793.71</ele>
        <time>2012-08-25T06:26:38Z</time>
      </trkpt>
      <trkpt lat="44.42038" lon="5.15104">
        <ele>791.3</ele>
        <time>2012-08-25T06:26:44Z</time>
      </trkpt>
      <trkpt lat="44.42036" lon="5.15101">
        <ele>796.11</ele>
        <time>2012-08-25T06:26:47Z</time>
      </trkpt>
      <trkpt lat="44.42036" lon="5.151">
        <ele>795.63</ele>
        <time>2012-08-25T06:26:48Z</time>
      </trkpt>
      <trkpt lat="44.42035" lon="5.15095">
        <ele>792.26</ele>
        <time>2012-08-25T06:26:51Z</time>
      </trkpt>
      <trkpt lat="44.42034" lon="5.15094">
        <ele>792.26</ele>
        <time>2012-08-25T06:26:52Z</time>
      </trkpt>
      <trkpt lat="44.42033" lon="5.15093">
        <ele>797.07</ele>
        <time>2012-08-25T06:26:53Z</time>
      </trkpt>
      <trkpt lat="44.42033" lon="5.15091">
        <ele>794.67</ele>
        <time>2012-08-25T06:26:54Z</time>
      </trkpt>
      <trkpt lat="44.42031" lon="5.15087">
        <ele>798.99</ele>
        <time>2012-08-25T06:26:59Z</time>
      </trkpt>
      <trkpt lat="44.4203" lon="5.15086">
        <ele>798.51</ele>
        <time>2012-08-25T06:27:00Z</time>
      </trkpt>
      <trkpt lat="44.42028" lon="5.15083">
        <ele>795.15</ele>
        <time>2012-08-25T06:27:03Z</time>
      </trkpt>
      <trkpt lat="44.42026" lon="5.15082">
        <ele>795.15</ele>
        <time>2012-08-25T06:27:04Z</time>
      </trkpt>
      <trkpt lat="44.42024" lon="5.1508">
        <ele>797.07</ele>
        <time>2012-08-25T06:27:06Z</time>
      </trkpt>
      <trkpt lat="44.42021" lon="5.15078">
        <ele>796.11</ele>
        <time>2012-08-25T06:27:08Z</time>
      </trkpt>
      <trkpt lat="44.42019" lon="5.15077">
        <ele>799.47</ele>
        <time>2012-08-25T06:27:10Z</time>
      </trkpt>
      <trkpt lat="44.42018" lon="5.15075">
        <ele>801.4</ele>
        <time>2012-08-25T06:27:12Z</time>
      </trkpt>
      <trkpt lat="44.42016" lon="5.15072">
        <ele>796.59</ele>
        <time>2012-08-25T06:27:15Z</time>
      </trkpt>
      <trkpt lat="44.42015" lon="5.15071">
        <ele>796.59</ele>
        <time>2012-08-25T06:27:16Z</time>
      </trkpt>
      <trkpt lat="44.42015" lon="5.1507">
        <ele>799.95</ele>
        <time>2012-08-25T06:27:17Z</time>
      </trkpt>
      <trkpt lat="44.42013" lon="5.15067">
        <ele>801.88</ele>
        <time>2012-08-25T06:27:20Z</time>
      </trkpt>
      <trkpt lat="44.42012" lon="5.15066">
        <ele>798.99</ele>
        <time>2012-08-25T06:27:22Z</time>
      </trkpt>
      <trkpt lat="44.42011" lon="5.15065">
        <ele>798.03</ele>
        <time>2012-08-25T06:27:23Z</time>
      </trkpt>
      <trkpt lat="44.42003" lon="5.15058">
        <ele>805.24</ele>
        <time>2012-08-25T06:27:36Z</time>
      </trkpt>
      <trkpt lat="44.42002" lon="5.15058">
        <ele>803.8</ele>
        <time>2012-08-25T06:27:37Z</time>
      </trkpt>
      <trkpt lat="44.41997" lon="5.15053">
        <ele>807.16</ele>
        <time>2012-08-25T06:27:43Z</time>
      </trkpt>
      <trkpt lat="44.41996" lon="5.15052">
        <ele>803.32</ele>
        <time>2012-08-25T06:27:44Z</time>
      </trkpt>
      <trkpt lat="44.41995" lon="5.1505">
        <ele>808.13</ele>
        <time>2012-08-25T06:27:47Z</time>
      </trkpt>
      <trkpt lat="44.41995" lon="5.15049">
        <ele>807.64</ele>
        <time>2012-08-25T06:27:48Z</time>
      </trkpt>
      <trkpt lat="44.41992" lon="5.15043">
        <ele>804.28</ele>
        <time>2012-08-25T06:27:52Z</time>
      </trkpt>
      <trkpt lat="44.41991" lon="5.15042">
        <ele>808.13</ele>
        <time>2012-08-25T06:27:53Z</time>
      </trkpt>
      <trkpt lat="44.41987" lon="5.15036">
        <ele>810.53</ele>
        <time>2012-08-25T06:28:00Z</time>
      </trkpt>
      <trkpt lat="44.41985" lon="5.15035">
        <ele>806.2</ele>
        <time>2012-08-25T06:28:04Z</time>
      </trkpt>
      <trkpt lat="44.41985" lon="5.15035">
        <ele>809.09</ele>
        <time>2012-08-25T06:28:05Z</time>
      </trkpt>
      <trkpt lat="44.41984" lon="5.15033">
        <ele>812.45</ele>
        <time>2012-08-25T06:28:08Z</time>
      </trkpt>
      <trkpt lat="44.41983" lon="5.15031">
        <ele>807.16</ele>
        <time>2012-08-25T06:28:10Z</time>
      </trkpt>
      <trkpt lat="44.41981" lon="5.1503">
        <ele>811.01</ele>
        <time>2012-08-25T06:28:12Z</time>
      </trkpt>
      <trkpt lat="44.4198" lon="5.15025">
        <ele>810.05</ele>
        <time>2012-08-25T06:28:18Z</time>
      </trkpt>
      <trkpt lat="44.41979" lon="5.15023">
        <ele>813.89</ele>
        <time>2012-08-25T06:28:20Z</time>
      </trkpt>
      <trkpt lat="44.41976" lon="5.15021">
        <ele>811.01</ele>
        <time>2012-08-25T06:28:23Z</time>
      </trkpt>
      <trkpt lat="44.41976" lon="5.15021">
        <ele>813.89</ele>
        <time>2012-08-25T06:28:24Z</time>
      </trkpt>
      <trkpt lat="44.41975" lon="5.15019">
        <ele>815.34</ele>
        <time>2012-08-25T06:28:26Z</time>
      </trkpt>
      <trkpt lat="44.41969" lon="5.15009">
        <ele>817.74</ele>
        <time>2012-08-25T06:28:37Z</time>
      </trkpt>
      <trkpt lat="44.41967" lon="5.15007">
        <ele>819.18</ele>
        <time>2012-08-25T06:28:40Z</time>
      </trkpt>
      <trkpt lat="44.41965" lon="5.15006">
        <ele>815.34</ele>
        <time>2012-08-25T06:28:42Z</time>
      </trkpt>
      <trkpt lat="44.41964" lon="5.15005">
        <ele>816.3</ele>
        <time>2012-08-25T06:28:43Z</time>
      </trkpt>
      <trkpt lat="44.41963" lon="5.15004">
        <ele>821.1</ele>
        <time>2012-08-25T06:28:45Z</time>
      </trkpt>
      <trkpt lat="44.41962" lon="5.15004">
        <ele>820.14</ele>
        <time>2012-08-25T06:28:46Z</time>
      </trkpt>
      <trkpt lat="44.41959" lon="5.15003">
        <ele>815.34</ele>
        <time>2012-08-25T06:28:48Z</time>
      </trkpt>
      <trkpt lat="44.41958" lon="5.15003">
        <ele>819.18</ele>
        <time>2012-08-25T06:28:49Z</time>
      </trkpt>
      <trkpt lat="44.41954" lon="5.15002">
        <ele>823.03</ele>
        <time>2012-08-25T06:28:52Z</time>
      </trkpt>
      <trkpt lat="44.41952" lon="5.15">
        <ele>816.3</ele>
        <time>2012-08-25T06:28:54Z</time>
      </trkpt>
      <trkpt lat="44.41951" lon="5.14999">
        <ele>820.62</ele>
        <time>2012-08-25T06:28:55Z</time>
      </trkpt>
      <trkpt lat="44.41942" lon="5.14987">
        <ele>824.95</ele>
        <time>2012-08-25T06:29:06Z</time>
      </trkpt>
      <trkpt lat="44.4194" lon="5.14983">
        <ele>822.55</ele>
        <time>2012-08-25T06:29:10Z</time>
      </trkpt>
      <trkpt lat="44.41939" lon="5.14982">
        <ele>827.35</ele>
        <time>2012-08-25T06:29:12Z</time>
      </trkpt>
      <trkpt lat="44.41938" lon="5.14982">
        <ele>826.39</ele>
        <time>2012-08-25T06:29:13Z</time>
      </trkpt>
      <trkpt lat="44.41936" lon="5.1498">
        <ele>827.83</ele>
        <time>2012-08-25T06:29:16Z</time>
      </trkpt>
      <trkpt lat="44.41936" lon="5.14979">
        <ele>823.03</ele>
        <time>2012-08-25T06:29:17Z</time>
      </trkpt>
      <trkpt lat="44.41936" lon="5.14977">
        <ele>826.39</ele>
        <time>2012-08-25T06:29:18Z</time>
      </trkpt>
      <trkpt lat="44.41934" lon="5.14971">
        <ele>828.31</ele>
        <time>2012-08-25T06:29:24Z</time>
      </trkpt>
      <trkpt lat="44.41932" lon="5.14968">
        <ele>827.35</ele>
        <time>2012-08-25T06:29:27Z</time>
      </trkpt>
      <trkpt lat="44.41929" lon="5.14965">
        <ele>831.2</ele>
        <time>2012-08-25T06:29:30Z</time>
      </trkpt>
      <trkpt lat="44.41928" lon="5.14964">
        <ele>828.79</ele>
        <time>2012-08-25T06:29:32Z</time>
      </trkpt>
      <trkpt lat="44.41927" lon="5.14961">
        <ele>832.16</ele>
        <time>2012-08-25T06:29:36Z</time>
      </trkpt>
      <trkpt lat="44.41926" lon="5.14952">
        <ele>834.56</ele>
        <time>2012-08-25T06:29:46Z</time>
      </trkpt>
      <trkpt lat="44.41926" lon="5.1495">
        <ele>831.2</ele>
        <time>2012-08-25T06:29:48Z</time>
      </trkpt>
      <trkpt lat="44.41926" lon="5.14949">
        <ele>836.48</ele>
        <time>2012-08-25T06:29:50Z</time>
      </trkpt>
      <trkpt lat="44.41925" lon="5.14947">
        <ele>832.16</ele>
        <time>2012-08-25T06:29:52Z</time>
      </trkpt>
      <trkpt lat="44.41924" lon="5.14946">
        <ele>836.96</ele>
        <time>2012-08-25T06:29:54Z</time>
      </trkpt>
      <trkpt lat="44.41923" lon="5.14945">
        <ele>832.16</ele>
        <time>2012-08-25T06:29:56Z</time>
      </trkpt>
      <trkpt lat="44.41922" lon="5.14944">
        <ele>837.45</ele>
        <time>2012-08-25T06:29:57Z</time>
      </trkpt>
      <trkpt lat="44.41922" lon="5.14943">
        <ele>836</ele>
        <time>2012-08-25T06:29:58Z</time>
      </trkpt>
      <trkpt lat="44.41915" lon="5.14937">
        <ele>839.37</ele>
        <time>2012-08-25T06:30:08Z</time>
      </trkpt>
      <trkpt lat="44.41914" lon="5.14935">
        <ele>840.33</ele>
        <time>2012-08-25T06:30:10Z</time>
      </trkpt>
      <trkpt lat="44.41913" lon="5.14934">
        <ele>836</ele>
        <time>2012-08-25T06:30:12Z</time>
      </trkpt>
      <trkpt lat="44.41913" lon="5.14933">
        <ele>840.81</ele>
        <time>2012-08-25T06:30:14Z</time>
      </trkpt>
      <trkpt lat="44.41913" lon="5.14932">
        <ele>840.33</ele>
        <time>2012-08-25T06:30:15Z</time>
      </trkpt>
      <trkpt lat="44.41912" lon="5.14932">
        <ele>837.45</ele>
        <time>2012-08-25T06:30:16Z</time>
      </trkpt>
      <trkpt lat="44.41912" lon="5.1493">
        <ele>841.29</ele>
        <time>2012-08-25T06:30:18Z</time>
      </trkpt>
      <trkpt lat="44.41911" lon="5.14929">
        <ele>841.77</ele>
        <time>2012-08-25T06:30:19Z</time>
      </trkpt>
      <trkpt lat="44.41909" lon="5.14926">
        <ele>842.25</ele>
        <time>2012-08-25T06:30:23Z</time>
      </trkpt>
      <trkpt lat="44.41907" lon="5.14924">
        <ele>843.21</ele>
        <time>2012-08-25T06:30:25Z</time>
      </trkpt>
      <trkpt lat="44.41906" lon="5.14923">
        <ele>842.73</ele>
        <time>2012-08-25T06:30:26Z</time>
      </trkpt>
      <trkpt lat="44.41902" lon="5.14919">
        <ele>844.66</ele>
        <time>2012-08-25T06:30:31Z</time>
      </trkpt>
      <trkpt lat="44.41896" lon="5.14909">
        <ele>848.02</ele>
        <time>2012-08-25T06:30:41Z</time>
      </trkpt>
      <trkpt lat="44.41893" lon="5.14905">
        <ele>848.5</ele>
        <time>2012-08-25T06:30:46Z</time>
      </trkpt>
      <trkpt lat="44.41885" lon="5.14896">
        <ele>851.38</ele>
        <time>2012-08-25T06:30:59Z</time>
      </trkpt>
      <trkpt lat="44.41881" lon="5.14892">
        <ele>852.83</ele>
        <time>2012-08-25T06:31:03Z</time>
      </trkpt>
      <trkpt lat="44.41879" lon="5.14889">
        <ele>850.42</ele>
        <time>2012-08-25T06:31:05Z</time>
      </trkpt>
      <trkpt lat="44.41876" lon="5.14887">
        <ele>853.79</ele>
        <time>2012-08-25T06:31:07Z</time>
      </trkpt>
      <trkpt lat="44.41859" lon="5.14878">
        <ele>857.15</ele>
        <time>2012-08-25T06:31:23Z</time>
      </trkpt>
      <trkpt lat="44.41852" lon="5.14869">
        <ele>860.52</ele>
        <time>2012-08-25T06:31:34Z</time>
      </trkpt>
      <trkpt lat="44.4185" lon="5.14865">
        <ele>860.52</ele>
        <time>2012-08-25T06:31:38Z</time>
      </trkpt>
      <trkpt lat="44.41849" lon="5.1486">
        <ele>864.36</ele>
        <time>2012-08-25T06:31:53Z</time>
      </trkpt>
      <trkpt lat="44.41848" lon="5.14856">
        <ele>860.04</ele>
        <time>2012-08-25T06:31:56Z</time>
      </trkpt>
      <trkpt lat="44.41847" lon="5.14855">
        <ele>864.36</ele>
        <time>2012-08-25T06:31:57Z</time>
      </trkpt>
      <trkpt lat="44.41845" lon="5.1485">
        <ele>865.32</ele>
        <time>2012-08-25T06:32:02Z</time>
      </trkpt>
      <trkpt lat="44.41838" lon="5.14841">
        <ele>868.69</ele>
        <time>2012-08-25T06:32:12Z</time>
      </trkpt>
      <trkpt lat="44.41832" lon="5.14832">
        <ele>866.29</ele>
        <time>2012-08-25T06:32:21Z</time>
      </trkpt>
      <trkpt lat="44.41831" lon="5.14831">
        <ele>870.13</ele>
        <time>2012-08-25T06:32:22Z</time>
      </trkpt>
      <trkpt lat="44.4183" lon="5.1483">
        <ele>870.13</ele>
        <time>2012-08-25T06:32:23Z</time>
      </trkpt>
      <trkpt lat="44.41828" lon="5.14827">
        <ele>872.05</ele>
        <time>2012-08-25T06:32:26Z</time>
      </trkpt>
      <trkpt lat="44.41827" lon="5.14825">
        <ele>869.65</ele>
        <time>2012-08-25T06:32:28Z</time>
      </trkpt>
      <trkpt lat="44.41824" lon="5.14823">
        <ele>872.53</ele>
        <time>2012-08-25T06:32:31Z</time>
      </trkpt>
      <trkpt lat="44.41814" lon="5.14817">
        <ele>875.9</ele>
        <time>2012-08-25T06:32:40Z</time>
      </trkpt>
      <trkpt lat="44.41813" lon="5.14816">
        <ele>873.01</ele>
        <time>2012-08-25T06:32:41Z</time>
      </trkpt>
      <trkpt lat="44.41809" lon="5.14813">
        <ele>875.9</ele>
        <time>2012-08-25T06:32:46Z</time>
      </trkpt>
      <trkpt lat="44.41808" lon="5.14812">
        <ele>876.38</ele>
        <time>2012-08-25T06:32:47Z</time>
      </trkpt>
      <trkpt lat="44.418" lon="5.14806">
        <ele>879.26</ele>
        <time>2012-08-25T06:32:57Z</time>
      </trkpt>
      <trkpt lat="44.418" lon="5.14804">
        <ele>874.46</ele>
        <time>2012-08-25T06:32:59Z</time>
      </trkpt>
      <trkpt lat="44.41798" lon="5.14803">
        <ele>878.78</ele>
        <time>2012-08-25T06:33:01Z</time>
      </trkpt>
      <trkpt lat="44.41792" lon="5.14801">
        <ele>881.19</ele>
        <time>2012-08-25T06:33:07Z</time>
      </trkpt>
      <trkpt lat="44.41788" lon="5.14798">
        <ele>880.22</ele>
        <time>2012-08-25T06:33:12Z</time>
      </trkpt>
      <trkpt lat="44.41787" lon="5.14797">
        <ele>883.59</ele>
        <time>2012-08-25T06:33:14Z</time>
      </trkpt>
      <trkpt lat="44.41786" lon="5.14796">
        <ele>880.22</ele>
        <time>2012-08-25T06:33:15Z</time>
      </trkpt>
      <trkpt lat="44.41786" lon="5.14795">
        <ele>879.74</ele>
        <time>2012-08-25T06:33:16Z</time>
      </trkpt>
      <trkpt lat="44.41784" lon="5.14794">
        <ele>883.11</ele>
        <time>2012-08-25T06:33:18Z</time>
      </trkpt>
      <trkpt lat="44.41783" lon="5.14794">
        <ele>882.15</ele>
        <time>2012-08-25T06:33:19Z</time>
      </trkpt>
      <trkpt lat="44.41776" lon="5.14791">
        <ele>886.47</ele>
        <time>2012-08-25T06:33:25Z</time>
      </trkpt>
      <trkpt lat="44.41775" lon="5.14791">
        <ele>883.11</ele>
        <time>2012-08-25T06:33:26Z</time>
      </trkpt>
      <trkpt lat="44.41775" lon="5.1479">
        <ele>886.47</ele>
        <time>2012-08-25T06:33:27Z</time>
      </trkpt>
      <trkpt lat="44.41774" lon="5.14789">
        <ele>883.11</ele>
        <time>2012-08-25T06:33:29Z</time>
      </trkpt>
      <trkpt lat="44.4177" lon="5.14787">
        <ele>886.95</ele>
        <time>2012-08-25T06:33:34Z</time>
      </trkpt>
      <trkpt lat="44.41767" lon="5.14785">
        <ele>888.4</ele>
        <time>2012-08-25T06:33:37Z</time>
      </trkpt>
      <trkpt lat="44.41765" lon="5.14785">
        <ele>886.95</ele>
        <time>2012-08-25T06:33:39Z</time>
      </trkpt>
      <trkpt lat="44.41753" lon="5.14782">
        <ele>890.32</ele>
        <time>2012-08-25T06:33:53Z</time>
      </trkpt>
      <trkpt lat="44.41753" lon="5.14781">
        <ele>886.47</ele>
        <time>2012-08-25T06:33:55Z</time>
      </trkpt>
      <trkpt lat="44.41752" lon="5.1478">
        <ele>886.95</ele>
        <time>2012-08-25T06:33:56Z</time>
      </trkpt>
      <trkpt lat="44.41751" lon="5.14778">
        <ele>890.8</ele>
        <time>2012-08-25T06:33:58Z</time>
      </trkpt>
      <trkpt lat="44.4175" lon="5.14777">
        <ele>892.24</ele>
        <time>2012-08-25T06:34:00Z</time>
      </trkpt>
      <trkpt lat="44.41748" lon="5.14775">
        <ele>890.8</ele>
        <time>2012-08-25T06:34:02Z</time>
      </trkpt>
      <trkpt lat="44.41747" lon="5.14774">
        <ele>889.36</ele>
        <time>2012-08-25T06:34:03Z</time>
      </trkpt>
      <trkpt lat="44.41742" lon="5.14771">
        <ele>889.36</ele>
        <time>2012-08-25T06:34:07Z</time>
      </trkpt>
      <trkpt lat="44.4174" lon="5.14769">
        <ele>893.2</ele>
        <time>2012-08-25T06:34:09Z</time>
      </trkpt>
      <trkpt lat="44.41738" lon="5.14768">
        <ele>894.16</ele>
        <time>2012-08-25T06:34:11Z</time>
      </trkpt>
      <trkpt lat="44.41736" lon="5.14768">
        <ele>889.36</ele>
        <time>2012-08-25T06:34:13Z</time>
      </trkpt>
      <trkpt lat="44.41735" lon="5.14767">
        <ele>894.64</ele>
        <time>2012-08-25T06:34:14Z</time>
      </trkpt>
      <trkpt lat="44.41733" lon="5.14767">
        <ele>895.61</ele>
        <time>2012-08-25T06:34:16Z</time>
      </trkpt>
      <trkpt lat="44.41732" lon="5.14766">
        <ele>892.72</ele>
        <time>2012-08-25T06:34:17Z</time>
      </trkpt>
      <trkpt lat="44.41731" lon="5.14765">
        <ele>895.61</ele>
        <time>2012-08-25T06:34:18Z</time>
      </trkpt>
      <trkpt lat="44.41728" lon="5.14763">
        <ele>894.64</ele>
        <time>2012-08-25T06:34:23Z</time>
      </trkpt>
      <trkpt lat="44.41726" lon="5.14762">
        <ele>898.49</ele>
        <time>2012-08-25T06:34:26Z</time>
      </trkpt>
      <trkpt lat="44.41725" lon="5.14761">
        <ele>894.16</ele>
        <time>2012-08-25T06:34:27Z</time>
      </trkpt>
      <trkpt lat="44.41725" lon="5.14761">
        <ele>895.61</ele>
        <time>2012-08-25T06:34:28Z</time>
      </trkpt>
      <trkpt lat="44.41724" lon="5.1476">
        <ele>900.89</ele>
        <time>2012-08-25T06:34:30Z</time>
      </trkpt>
      <trkpt lat="44.41724" lon="5.1476">
        <ele>898.97</ele>
        <time>2012-08-25T06:34:31Z</time>
      </trkpt>
      <trkpt lat="44.41723" lon="5.14759">
        <ele>897.53</ele>
        <time>2012-08-25T06:34:33Z</time>
      </trkpt>
      <trkpt lat="44.41721" lon="5.14757">
        <ele>900.89</ele>
        <time>2012-08-25T06:34:35Z</time>
      </trkpt>
      <trkpt lat="44.4172" lon="5.14757">
        <ele>900.89</ele>
        <time>2012-08-25T06:34:36Z</time>
      </trkpt>
      <trkpt lat="44.41712" lon="5.14752">
        <ele>899.93</ele>
        <time>2012-08-25T06:34:44Z</time>
      </trkpt>
      <trkpt lat="44.41708" lon="5.14751">
        <ele>904.26</ele>
        <time>2012-08-25T06:34:47Z</time>
      </trkpt>
      <trkpt lat="44.41708" lon="5.14751">
        <ele>903.78</ele>
        <time>2012-08-25T06:34:48Z</time>
      </trkpt>
      <trkpt lat="44.41705" lon="5.14749">
        <ele>899.93</ele>
        <time>2012-08-25T06:34:50Z</time>
      </trkpt>
      <trkpt lat="44.41704" lon="5.14748">
        <ele>901.37</ele>
        <time>2012-08-25T06:34:51Z</time>
      </trkpt>
      <trkpt lat="44.41702" lon="5.14746">
        <ele>906.66</ele>
        <time>2012-08-25T06:34:54Z</time>
      </trkpt>
      <trkpt lat="44.41702" lon="5.14745">
        <ele>901.85</ele>
        <time>2012-08-25T06:34:55Z</time>
      </trkpt>
      <trkpt lat="44.417" lon="5.14744">
        <ele>906.66</ele>
        <time>2012-08-25T06:34:58Z</time>
      </trkpt>
      <trkpt lat="44.41698" lon="5.14743">
        <ele>902.82</ele>
        <time>2012-08-25T06:35:01Z</time>
      </trkpt>
      <trkpt lat="44.41698" lon="5.14742">
        <ele>906.18</ele>
        <time>2012-08-25T06:35:02Z</time>
      </trkpt>
      <trkpt lat="44.41697" lon="5.14741">
        <ele>907.14</ele>
        <time>2012-08-25T06:35:04Z</time>
      </trkpt>
      <trkpt lat="44.41695" lon="5.14737">
        <ele>908.58</ele>
        <time>2012-08-25T06:35:17Z</time>
      </trkpt>
      <trkpt lat="44.41697" lon="5.14735">
        <ele>907.62</ele>
        <time>2012-08-25T06:35:29Z</time>
      </trkpt>
      <trkpt lat="44.417" lon="5.14735">
        <ele>911.47</ele>
        <time>2012-08-25T06:35:31Z</time>
      </trkpt>
      <trkpt lat="44.417" lon="5.14736">
        <ele>910.99</ele>
        <time>2012-08-25T06:35:32Z</time>
      </trkpt>
      <trkpt lat="44.41702" lon="5.14735">
        <ele>910.99</ele>
        <time>2012-08-25T06:35:35Z</time>
      </trkpt>
      <trkpt lat="44.41706" lon="5.14736">
        <ele>909.06</ele>
        <time>2012-08-25T06:35:39Z</time>
      </trkpt>
      <trkpt lat="44.41707" lon="5.14735">
        <ele>914.35</ele>
        <time>2012-08-25T06:35:41Z</time>
      </trkpt>
      <trkpt lat="44.41707" lon="5.1473">
        <ele>913.39</ele>
        <time>2012-08-25T06:35:46Z</time>
      </trkpt>
      <trkpt lat="44.41703" lon="5.14722">
        <ele>918.68</ele>
        <time>2012-08-25T06:35:56Z</time>
      </trkpt>
      <trkpt lat="44.41703" lon="5.14721">
        <ele>918.2</ele>
        <time>2012-08-25T06:35:57Z</time>
      </trkpt>
      <trkpt lat="44.41702" lon="5.1472">
        <ele>915.31</ele>
        <time>2012-08-25T06:35:59Z</time>
      </trkpt>
      <trkpt lat="44.41701" lon="5.14719">
        <ele>919.16</ele>
        <time>2012-08-25T06:36:00Z</time>
      </trkpt>
      <trkpt lat="44.417" lon="5.14718">
        <ele>915.31</ele>
        <time>2012-08-25T06:36:01Z</time>
      </trkpt>
      <trkpt lat="44.417" lon="5.14718">
        <ele>919.64</ele>
        <time>2012-08-25T06:36:02Z</time>
      </trkpt>
      <trkpt lat="44.41699" lon="5.14717">
        <ele>915.31</ele>
        <time>2012-08-25T06:36:05Z</time>
      </trkpt>
      <trkpt lat="44.41698" lon="5.14717">
        <ele>918.68</ele>
        <time>2012-08-25T06:36:06Z</time>
      </trkpt>
      <trkpt lat="44.41696" lon="5.14715">
        <ele>917.72</ele>
        <time>2012-08-25T06:36:09Z</time>
      </trkpt>
      <trkpt lat="44.41694" lon="5.14714">
        <ele>921.56</ele>
        <time>2012-08-25T06:36:11Z</time>
      </trkpt>
      <trkpt lat="44.41689" lon="5.1471">
        <ele>922.52</ele>
        <time>2012-08-25T06:36:19Z</time>
      </trkpt>
      <trkpt lat="44.41687" lon="5.14709">
        <ele>920.6</ele>
        <time>2012-08-25T06:36:21Z</time>
      </trkpt>
      <trkpt lat="44.41684" lon="5.14706">
        <ele>925.41</ele>
        <time>2012-08-25T06:36:26Z</time>
      </trkpt>
      <trkpt lat="44.41684" lon="5.14705">
        <ele>924.93</ele>
        <time>2012-08-25T06:36:27Z</time>
      </trkpt>
      <trkpt lat="44.41684" lon="5.14704">
        <ele>921.08</ele>
        <time>2012-08-25T06:36:28Z</time>
      </trkpt>
      <trkpt lat="44.41684" lon="5.14703">
        <ele>925.41</ele>
        <time>2012-08-25T06:36:29Z</time>
      </trkpt>
      <trkpt lat="44.41684" lon="5.147">
        <ele>927.81</ele>
        <time>2012-08-25T06:36:38Z</time>
      </trkpt>
      <trkpt lat="44.41683" lon="5.147">
        <ele>924.45</ele>
        <time>2012-08-25T06:36:39Z</time>
      </trkpt>
      <trkpt lat="44.41682" lon="5.14699">
        <ele>928.29</ele>
        <time>2012-08-25T06:36:40Z</time>
      </trkpt>
      <trkpt lat="44.41681" lon="5.14699">
        <ele>924.93</ele>
        <time>2012-08-25T06:36:42Z</time>
      </trkpt>
      <trkpt lat="44.4168" lon="5.14699">
        <ele>925.89</ele>
        <time>2012-08-25T06:36:43Z</time>
      </trkpt>
      <trkpt lat="44.41679" lon="5.14698">
        <ele>929.25</ele>
        <time>2012-08-25T06:36:45Z</time>
      </trkpt>
      <trkpt lat="44.41679" lon="5.14699">
        <ele>931.17</ele>
        <time>2012-08-25T06:36:52Z</time>
      </trkpt>
      <trkpt lat="44.41682" lon="5.14697">
        <ele>931.65</ele>
        <time>2012-08-25T06:36:56Z</time>
      </trkpt>
      <trkpt lat="44.41683" lon="5.14697">
        <ele>928.29</ele>
        <time>2012-08-25T06:36:57Z</time>
      </trkpt>
      <trkpt lat="44.41683" lon="5.14691">
        <ele>935.02</ele>
        <time>2012-08-25T06:37:04Z</time>
      </trkpt>
      <trkpt lat="44.41682" lon="5.1469">
        <ele>930.69</ele>
        <time>2012-08-25T06:37:05Z</time>
      </trkpt>
      <trkpt lat="44.41682" lon="5.14689">
        <ele>934.06</ele>
        <time>2012-08-25T06:37:06Z</time>
      </trkpt>
      <trkpt lat="44.41679" lon="5.14685">
        <ele>934.06</ele>
        <time>2012-08-25T06:37:16Z</time>
      </trkpt>
      <trkpt lat="44.41679" lon="5.14684">
        <ele>936.94</ele>
        <time>2012-08-25T06:37:18Z</time>
      </trkpt>
      <trkpt lat="44.41678" lon="5.14683">
        <ele>935.98</ele>
        <time>2012-08-25T06:37:19Z</time>
      </trkpt>
      <trkpt lat="44.41678" lon="5.14682">
        <ele>934.06</ele>
        <time>2012-08-25T06:37:21Z</time>
      </trkpt>
      <trkpt lat="44.41677" lon="5.14681">
        <ele>938.38</ele>
        <time>2012-08-25T06:37:23Z</time>
      </trkpt>
      <trkpt lat="44.41676" lon="5.14681">
        <ele>937.42</ele>
        <time>2012-08-25T06:37:24Z</time>
      </trkpt>
      <trkpt lat="44.41673" lon="5.14679">
        <ele>936.94</ele>
        <time>2012-08-25T06:37:29Z</time>
      </trkpt>
      <trkpt lat="44.41672" lon="5.1468">
        <ele>940.31</ele>
        <time>2012-08-25T06:37:30Z</time>
      </trkpt>
      <trkpt lat="44.41671" lon="5.1468">
        <ele>937.42</ele>
        <time>2012-08-25T06:37:31Z</time>
      </trkpt>
      <trkpt lat="44.41671" lon="5.14681">
        <ele>939.35</ele>
        <time>2012-08-25T06:37:35Z</time>
      </trkpt>
      <trkpt lat="44.41673" lon="5.14679">
        <ele>943.19</ele>
        <time>2012-08-25T06:37:41Z</time>
      </trkpt>
      <trkpt lat="44.41674" lon="5.14679">
        <ele>942.71</ele>
        <time>2012-08-25T06:37:42Z</time>
      </trkpt>
      <trkpt lat="44.41675" lon="5.14678">
        <ele>938.86</ele>
        <time>2012-08-25T06:37:43Z</time>
      </trkpt>
      <trkpt lat="44.41675" lon="5.14678">
        <ele>941.27</ele>
        <time>2012-08-25T06:37:44Z</time>
      </trkpt>
      <trkpt lat="44.41676" lon="5.14677">
        <ele>944.15</ele>
        <time>2012-08-25T06:37:47Z</time>
      </trkpt>
      <trkpt lat="44.41676" lon="5.14677">
        <ele>944.15</ele>
        <time>2012-08-25T06:37:48Z</time>
      </trkpt>
      <trkpt lat="44.41676" lon="5.14674">
        <ele>942.71</ele>
        <time>2012-08-25T06:37:50Z</time>
      </trkpt>
      <trkpt lat="44.41675" lon="5.1467">
        <ele>946.07</ele>
        <time>2012-08-25T06:38:02Z</time>
      </trkpt>
      <trkpt lat="44.41675" lon="5.1467">
        <ele>945.59</ele>
        <time>2012-08-25T06:38:03Z</time>
      </trkpt>
      <trkpt lat="44.41675" lon="5.1467">
        <ele>943.67</ele>
        <time>2012-08-25T06:38:05Z</time>
      </trkpt>
      <trkpt lat="44.41672" lon="5.14669">
        <ele>947.04</ele>
        <time>2012-08-25T06:38:10Z</time>
      </trkpt>
      <trkpt lat="44.41671" lon="5.1467">
        <ele>949.92</ele>
        <time>2012-08-25T06:38:17Z</time>
      </trkpt>
      <trkpt lat="44.4167" lon="5.1467">
        <ele>949.92</ele>
        <time>2012-08-25T06:38:18Z</time>
      </trkpt>
      <trkpt lat="44.4167" lon="5.1467">
        <ele>946.56</ele>
        <time>2012-08-25T06:38:19Z</time>
      </trkpt>
      <trkpt lat="44.4167" lon="5.14669">
        <ele>948</ele>
        <time>2012-08-25T06:38:21Z</time>
      </trkpt>
      <trkpt lat="44.41672" lon="5.14667">
        <ele>949.92</ele>
        <time>2012-08-25T06:38:23Z</time>
      </trkpt>
      <trkpt lat="44.41671" lon="5.14665">
        <ele>948</ele>
        <time>2012-08-25T06:38:26Z</time>
      </trkpt>
      <trkpt lat="44.41669" lon="5.14666">
        <ele>952.8</ele>
        <time>2012-08-25T06:38:29Z</time>
      </trkpt>
      <trkpt lat="44.41668" lon="5.14666">
        <ele>952.8</ele>
        <time>2012-08-25T06:38:30Z</time>
      </trkpt>
      <trkpt lat="44.41667" lon="5.14666">
        <ele>947.52</ele>
        <time>2012-08-25T06:38:32Z</time>
      </trkpt>
      <trkpt lat="44.41666" lon="5.14666">
        <ele>951.36</ele>
        <time>2012-08-25T06:38:33Z</time>
      </trkpt>
      <trkpt lat="44.41663" lon="5.14662">
        <ele>954.73</ele>
        <time>2012-08-25T06:38:39Z</time>
      </trkpt>
      <trkpt lat="44.41657" lon="5.14648">
        <ele>955.21</ele>
        <time>2012-08-25T06:38:52Z</time>
      </trkpt>
      <trkpt lat="44.41655" lon="5.14647">
        <ele>958.57</ele>
        <time>2012-08-25T06:38:54Z</time>
      </trkpt>
      <trkpt lat="44.4165" lon="5.14644">
        <ele>955.21</ele>
        <time>2012-08-25T06:39:00Z</time>
      </trkpt>
      <trkpt lat="44.41649" lon="5.14644">
        <ele>958.57</ele>
        <time>2012-08-25T06:39:01Z</time>
      </trkpt>
      <trkpt lat="44.41649" lon="5.14644">
        <ele>961.94</ele>
        <time>2012-08-25T06:39:02Z</time>
      </trkpt>
      <trkpt lat="44.4165" lon="5.14644">
        <ele>958.09</ele>
        <time>2012-08-25T06:39:03Z</time>
      </trkpt>
      <trkpt lat="44.41651" lon="5.14644">
        <ele>960.49</ele>
        <time>2012-08-25T06:39:06Z</time>
      </trkpt>
      <trkpt lat="44.41652" lon="5.14644">
        <ele>961.94</ele>
        <time>2012-08-25T06:39:11Z</time>
      </trkpt>
      <trkpt lat="44.41652" lon="5.14643">
        <ele>957.61</ele>
        <time>2012-08-25T06:39:12Z</time>
      </trkpt>
      <trkpt lat="44.41653" lon="5.14642">
        <ele>958.57</ele>
        <time>2012-08-25T06:39:13Z</time>
      </trkpt>
      <trkpt lat="44.41654" lon="5.14641">
        <ele>962.42</ele>
        <time>2012-08-25T06:39:14Z</time>
      </trkpt>
      <trkpt lat="44.4166" lon="5.14646">
        <ele>962.9</ele>
        <time>2012-08-25T06:39:27Z</time>
      </trkpt>
      <trkpt lat="44.41661" lon="5.14646">
        <ele>964.34</ele>
        <time>2012-08-25T06:39:29Z</time>
      </trkpt>
      <trkpt lat="44.41666" lon="5.14645">
        <ele>960.98</ele>
        <time>2012-08-25T06:39:34Z</time>
      </trkpt>
      <trkpt lat="44.41666" lon="5.14645">
        <ele>964.34</ele>
        <time>2012-08-25T06:39:35Z</time>
      </trkpt>
      <trkpt lat="44.41667" lon="5.14646">
        <ele>967.7</ele>
        <time>2012-08-25T06:39:36Z</time>
      </trkpt>
      <trkpt lat="44.41668" lon="5.14646">
        <ele>966.26</ele>
        <time>2012-08-25T06:39:37Z</time>
      </trkpt>
      <trkpt lat="44.41671" lon="5.14648">
        <ele>966.74</ele>
        <time>2012-08-25T06:39:41Z</time>
      </trkpt>
      <trkpt lat="44.41671" lon="5.14647">
        <ele>964.34</ele>
        <time>2012-08-25T06:39:43Z</time>
      </trkpt>
      <trkpt lat="44.41671" lon="5.14648">
        <ele>966.74</ele>
        <time>2012-08-25T06:39:44Z</time>
      </trkpt>
      <trkpt lat="44.41672" lon="5.14646">
        <ele>970.59</ele>
        <time>2012-08-25T06:39:49Z</time>
      </trkpt>
      <trkpt lat="44.41673" lon="5.14647">
        <ele>970.11</ele>
        <time>2012-08-25T06:39:50Z</time>
      </trkpt>
      <trkpt lat="44.41674" lon="5.14647">
        <ele>966.26</ele>
        <time>2012-08-25T06:39:51Z</time>
      </trkpt>
      <trkpt lat="44.41675" lon="5.14647">
        <ele>969.15</ele>
        <time>2012-08-25T06:39:52Z</time>
      </trkpt>
      <trkpt lat="44.41676" lon="5.14647">
        <ele>972.03</ele>
        <time>2012-08-25T06:39:54Z</time>
      </trkpt>
      <trkpt lat="44.41677" lon="5.14646">
        <ele>972.51</ele>
        <time>2012-08-25T06:39:55Z</time>
      </trkpt>
      <trkpt lat="44.41678" lon="5.14644">
        <ele>971.55</ele>
        <time>2012-08-25T06:39:57Z</time>
      </trkpt>
      <trkpt lat="44.41679" lon="5.14631">
        <ele>975.88</ele>
        <time>2012-08-25T06:40:07Z</time>
      </trkpt>
      <trkpt lat="44.41677" lon="5.14626">
        <ele>973.47</ele>
        <time>2012-08-25T06:40:10Z</time>
      </trkpt>
      <trkpt lat="44.4168" lon="5.14624">
        <ele>976.84</ele>
        <time>2012-08-25T06:40:17Z</time>
      </trkpt>
      <trkpt lat="44.41684" lon="5.14626">
        <ele>980.2</ele>
        <time>2012-08-25T06:40:23Z</time>
      </trkpt>
      <trkpt lat="44.41685" lon="5.14626">
        <ele>974.43</ele>
        <time>2012-08-25T06:40:24Z</time>
      </trkpt>
      <trkpt lat="44.41686" lon="5.14625">
        <ele>979.72</ele>
        <time>2012-08-25T06:40:26Z</time>
      </trkpt>
      <trkpt lat="44.41686" lon="5.14624">
        <ele>975.88</ele>
        <time>2012-08-25T06:40:27Z</time>
      </trkpt>
      <trkpt lat="44.41685" lon="5.14621">
        <ele>979.24</ele>
        <time>2012-08-25T06:40:30Z</time>
      </trkpt>
      <trkpt lat="44.41686" lon="5.14615">
        <ele>983.09</ele>
        <time>2012-08-25T06:40:37Z</time>
      </trkpt>
      <trkpt lat="44.41686" lon="5.14614">
        <ele>979.72</ele>
        <time>2012-08-25T06:40:38Z</time>
      </trkpt>
      <trkpt lat="44.41686" lon="5.1461">
        <ele>984.05</ele>
        <time>2012-08-25T06:40:41Z</time>
      </trkpt>
      <trkpt lat="44.41686" lon="5.14609">
        <ele>983.57</ele>
        <time>2012-08-25T06:40:42Z</time>
      </trkpt>
      <trkpt lat="44.41687" lon="5.14608">
        <ele>980.68</ele>
        <time>2012-08-25T06:40:44Z</time>
      </trkpt>
      <trkpt lat="44.41687" lon="5.14606">
        <ele>984.53</ele>
        <time>2012-08-25T06:40:46Z</time>
      </trkpt>
      <trkpt lat="44.41688" lon="5.14604">
        <ele>985.01</ele>
        <time>2012-08-25T06:40:48Z</time>
      </trkpt>
      <trkpt lat="44.41687" lon="5.14599">
        <ele>983.09</ele>
        <time>2012-08-25T06:40:51Z</time>
      </trkpt>
      <trkpt lat="44.41687" lon="5.14596">
        <ele>986.93</ele>
        <time>2012-08-25T06:40:53Z</time>
      </trkpt>
      <trkpt lat="44.41687" lon="5.14596">
        <ele>982.6</ele>
        <time>2012-08-25T06:41:03Z</time>
      </trkpt>
      <trkpt lat="44.41688" lon="5.14595">
        <ele>985.97</ele>
        <time>2012-08-25T06:41:11Z</time>
      </trkpt>
      <trkpt lat="44.41687" lon="5.14595">
        <ele>985.49</ele>
        <time>2012-08-25T06:41:29Z</time>
      </trkpt>
      <trkpt lat="44.41689" lon="5.14595">
        <ele>985.49</ele>
        <time>2012-08-25T06:41:44Z</time>
      </trkpt>
      <trkpt lat="44.41689" lon="5.14594">
        <ele>982.12</ele>
        <time>2012-08-25T06:41:45Z</time>
      </trkpt>
      <trkpt lat="44.41689" lon="5.14594">
        <ele>985.97</ele>
        <time>2012-08-25T06:41:48Z</time>
      </trkpt>
      <trkpt lat="44.41689" lon="5.14592">
        <ele>985.49</ele>
        <time>2012-08-25T06:42:10Z</time>
      </trkpt>
      <trkpt lat="44.4169" lon="5.14592">
        <ele>985.01</ele>
        <time>2012-08-25T06:42:31Z</time>
      </trkpt>
      <trkpt lat="44.4169" lon="5.14592">
        <ele>986.93</ele>
        <time>2012-08-25T06:42:33Z</time>
      </trkpt>
      <trkpt lat="44.41691" lon="5.14593">
        <ele>983.57</ele>
        <time>2012-08-25T06:42:34Z</time>
      </trkpt>
      <trkpt lat="44.41692" lon="5.14593">
        <ele>985.97</ele>
        <time>2012-08-25T06:42:35Z</time>
      </trkpt>
      <trkpt lat="44.41695" lon="5.14595">
        <ele>988.37</ele>
        <time>2012-08-25T06:42:39Z</time>
      </trkpt>
      <trkpt lat="44.41695" lon="5.14596">
        <ele>986.45</ele>
        <time>2012-08-25T06:42:41Z</time>
      </trkpt>
      <trkpt lat="44.41696" lon="5.14596">
        <ele>989.33</ele>
        <time>2012-08-25T06:42:43Z</time>
      </trkpt>
      <trkpt lat="44.41697" lon="5.14596">
        <ele>985.01</ele>
        <time>2012-08-25T06:42:44Z</time>
      </trkpt>
      <trkpt lat="44.41697" lon="5.14596">
        <ele>988.85</ele>
        <time>2012-08-25T06:42:45Z</time>
      </trkpt>
      <trkpt lat="44.41699" lon="5.14595">
        <ele>991.74</ele>
        <time>2012-08-25T06:42:47Z</time>
      </trkpt>
      <trkpt lat="44.41708" lon="5.14597">
        <ele>993.66</ele>
        <time>2012-08-25T06:42:58Z</time>
      </trkpt>
      <trkpt lat="44.41708" lon="5.14597">
        <ele>992.22</ele>
        <time>2012-08-25T06:42:59Z</time>
      </trkpt>
      <trkpt lat="44.41713" lon="5.14599">
        <ele>994.62</ele>
        <time>2012-08-25T06:43:06Z</time>
      </trkpt>
      <trkpt lat="44.41714" lon="5.14599">
        <ele>993.18</ele>
        <time>2012-08-25T06:43:08Z</time>
      </trkpt>
      <trkpt lat="44.41717" lon="5.14599">
        <ele>998.47</ele>
        <time>2012-08-25T06:43:11Z</time>
      </trkpt>
      <trkpt lat="44.41719" lon="5.14601">
        <ele>994.62</ele>
        <time>2012-08-25T06:43:13Z</time>
      </trkpt>
      <trkpt lat="44.4172" lon="5.14601">
        <ele>999.43</ele>
        <time>2012-08-25T06:43:14Z</time>
      </trkpt>
      <trkpt lat="44.4172" lon="5.14602">
        <ele>997.02</ele>
        <time>2012-08-25T06:43:15Z</time>
      </trkpt>
      <trkpt lat="44.41721" lon="5.14602">
        <ele>999.91</ele>
        <time>2012-08-25T06:43:16Z</time>
      </trkpt>
      <trkpt lat="44.41726" lon="5.14602">
        <ele>995.58</ele>
        <time>2012-08-25T06:43:21Z</time>
      </trkpt>
      <trkpt lat="44.41727" lon="5.14602">
        <ele>1001.35</ele>
        <time>2012-08-25T06:43:22Z</time>
      </trkpt>
      <trkpt lat="44.41729" lon="5.14601">
        <ele>1002.31</ele>
        <time>2012-08-25T06:43:24Z</time>
      </trkpt>
      <trkpt lat="44.41732" lon="5.14598">
        <ele>997.99</ele>
        <time>2012-08-25T06:43:27Z</time>
      </trkpt>
      <trkpt lat="44.41734" lon="5.14598">
        <ele>999.43</ele>
        <time>2012-08-25T06:43:28Z</time>
      </trkpt>
      <trkpt lat="44.41735" lon="5.14598">
        <ele>1003.27</ele>
        <time>2012-08-25T06:43:29Z</time>
      </trkpt>
      <trkpt lat="44.41736" lon="5.14596">
        <ele>999.43</ele>
        <time>2012-08-25T06:43:31Z</time>
      </trkpt>
      <trkpt lat="44.41746" lon="5.14592">
        <ele>1000.39</ele>
        <time>2012-08-25T06:43:39Z</time>
      </trkpt>
      <trkpt lat="44.41751" lon="5.14591">
        <ele>1002.79</ele>
        <time>2012-08-25T06:43:43Z</time>
      </trkpt>
      <trkpt lat="44.41753" lon="5.14591">
        <ele>1006.16</ele>
        <time>2012-08-25T06:43:45Z</time>
      </trkpt>
      <trkpt lat="44.41753" lon="5.14591">
        <ele>1005.2</ele>
        <time>2012-08-25T06:43:46Z</time>
      </trkpt>
      <trkpt lat="44.41755" lon="5.1459">
        <ele>1004.23</ele>
        <time>2012-08-25T06:43:48Z</time>
      </trkpt>
      <trkpt lat="44.41757" lon="5.14589">
        <ele>1005.2</ele>
        <time>2012-08-25T06:43:50Z</time>
      </trkpt>
      <trkpt lat="44.41765" lon="5.14584">
        <ele>1008.08</ele>
        <time>2012-08-25T06:43:58Z</time>
      </trkpt>
      <trkpt lat="44.41767" lon="5.14584">
        <ele>1008.56</ele>
        <time>2012-08-25T06:44:00Z</time>
      </trkpt>
      <trkpt lat="44.41769" lon="5.14582">
        <ele>1008.56</ele>
        <time>2012-08-25T06:44:02Z</time>
      </trkpt>
      <trkpt lat="44.41772" lon="5.14581">
        <ele>1003.75</ele>
        <time>2012-08-25T06:44:04Z</time>
      </trkpt>
      <trkpt lat="44.41772" lon="5.14581">
        <ele>1008.56</ele>
        <time>2012-08-25T06:44:05Z</time>
      </trkpt>
      <trkpt lat="44.41774" lon="5.1458">
        <ele>1006.64</ele>
        <time>2012-08-25T06:44:07Z</time>
      </trkpt>
      <trkpt lat="44.41775" lon="5.14579">
        <ele>1007.12</ele>
        <time>2012-08-25T06:44:08Z</time>
      </trkpt>
      <trkpt lat="44.41777" lon="5.14578">
        <ele>1011.44</ele>
        <time>2012-08-25T06:44:10Z</time>
      </trkpt>
      <trkpt lat="44.41778" lon="5.14578">
        <ele>1010.96</ele>
        <time>2012-08-25T06:44:11Z</time>
      </trkpt>
      <trkpt lat="44.41783" lon="5.14577">
        <ele>1007.12</ele>
        <time>2012-08-25T06:44:16Z</time>
      </trkpt>
      <trkpt lat="44.41784" lon="5.14576">
        <ele>1008.56</ele>
        <time>2012-08-25T06:44:17Z</time>
      </trkpt>
      <trkpt lat="44.41788" lon="5.14576">
        <ele>1011.93</ele>
        <time>2012-08-25T06:44:20Z</time>
      </trkpt>
      <trkpt lat="44.41789" lon="5.14576">
        <ele>1011.93</ele>
        <time>2012-08-25T06:44:21Z</time>
      </trkpt>
      <trkpt lat="44.41791" lon="5.14576">
        <ele>1014.81</ele>
        <time>2012-08-25T06:44:23Z</time>
      </trkpt>
      <trkpt lat="44.41799" lon="5.14573">
        <ele>1010</ele>
        <time>2012-08-25T06:44:29Z</time>
      </trkpt>
      <trkpt lat="44.41801" lon="5.14573">
        <ele>1014.33</ele>
        <time>2012-08-25T06:44:31Z</time>
      </trkpt>
      <trkpt lat="44.41802" lon="5.14572">
        <ele>1014.33</ele>
        <time>2012-08-25T06:44:32Z</time>
      </trkpt>
      <trkpt lat="44.41804" lon="5.14571">
        <ele>1017.69</ele>
        <time>2012-08-25T06:44:34Z</time>
      </trkpt>
      <trkpt lat="44.41805" lon="5.14571">
        <ele>1016.25</ele>
        <time>2012-08-25T06:44:35Z</time>
      </trkpt>
      <trkpt lat="44.41809" lon="5.14567">
        <ele>1018.17</ele>
        <time>2012-08-25T06:44:40Z</time>
      </trkpt>
      <trkpt lat="44.41811" lon="5.14567">
        <ele>1012.89</ele>
        <time>2012-08-25T06:44:42Z</time>
      </trkpt>
      <trkpt lat="44.41812" lon="5.14567">
        <ele>1016.25</ele>
        <time>2012-08-25T06:44:43Z</time>
      </trkpt>
      <trkpt lat="44.41816" lon="5.14566">
        <ele>1019.13</ele>
        <time>2012-08-25T06:44:47Z</time>
      </trkpt>
      <trkpt lat="44.41818" lon="5.14565">
        <ele>1019.13</ele>
        <time>2012-08-25T06:44:49Z</time>
      </trkpt>
      <trkpt lat="44.41819" lon="5.14565">
        <ele>1015.77</ele>
        <time>2012-08-25T06:44:50Z</time>
      </trkpt>
      <trkpt lat="44.41821" lon="5.14565">
        <ele>1019.62</ele>
        <time>2012-08-25T06:44:52Z</time>
      </trkpt>
      <trkpt lat="44.41824" lon="5.14564">
        <ele>1016.25</ele>
        <time>2012-08-25T06:44:55Z</time>
      </trkpt>
      <trkpt lat="44.41825" lon="5.14564">
        <ele>1019.62</ele>
        <time>2012-08-25T06:44:56Z</time>
      </trkpt>
      <trkpt lat="44.41828" lon="5.14563">
        <ele>1022.5</ele>
        <time>2012-08-25T06:44:59Z</time>
      </trkpt>
      <trkpt lat="44.4183" lon="5.14563">
        <ele>1021.54</ele>
        <time>2012-08-25T06:45:01Z</time>
      </trkpt>
      <trkpt lat="44.41832" lon="5.14563">
        <ele>1019.62</ele>
        <time>2012-08-25T06:45:03Z</time>
      </trkpt>
      <trkpt lat="44.41834" lon="5.14563">
        <ele>1022.98</ele>
        <time>2012-08-25T06:45:05Z</time>
      </trkpt>
      <trkpt lat="44.41835" lon="5.14563">
        <ele>1020.58</ele>
        <time>2012-08-25T06:45:06Z</time>
      </trkpt>
      <trkpt lat="44.41841" lon="5.14561">
        <ele>1022.02</ele>
        <time>2012-08-25T06:45:12Z</time>
      </trkpt>
      <trkpt lat="44.41845" lon="5.14561">
        <ele>1028.27</ele>
        <time>2012-08-25T06:45:16Z</time>
      </trkpt>
      <trkpt lat="44.41846" lon="5.1456">
        <ele>1022.02</ele>
        <time>2012-08-25T06:45:17Z</time>
      </trkpt>
      <trkpt lat="44.41846" lon="5.1456">
        <ele>1026.34</ele>
        <time>2012-08-25T06:45:18Z</time>
      </trkpt>
      <trkpt lat="44.41849" lon="5.1456">
        <ele>1023.46</ele>
        <time>2012-08-25T06:45:20Z</time>
      </trkpt>
      <trkpt lat="44.4185" lon="5.14559">
        <ele>1026.83</ele>
        <time>2012-08-25T06:45:21Z</time>
      </trkpt>
      <trkpt lat="44.41852" lon="5.14559">
        <ele>1023.46</ele>
        <time>2012-08-25T06:45:23Z</time>
      </trkpt>
      <trkpt lat="44.41854" lon="5.14558">
        <ele>1027.79</ele>
        <time>2012-08-25T06:45:25Z</time>
      </trkpt>
      <trkpt lat="44.41858" lon="5.14557">
        <ele>1031.15</ele>
        <time>2012-08-25T06:45:29Z</time>
      </trkpt>
      <trkpt lat="44.41859" lon="5.14556">
        <ele>1025.38</ele>
        <time>2012-08-25T06:45:30Z</time>
      </trkpt>
      <trkpt lat="44.41859" lon="5.14556">
        <ele>1029.71</ele>
        <time>2012-08-25T06:45:31Z</time>
      </trkpt>
      <trkpt lat="44.41861" lon="5.14556">
        <ele>1024.9</ele>
        <time>2012-08-25T06:45:33Z</time>
      </trkpt>
      <trkpt lat="44.41862" lon="5.14556">
        <ele>1030.67</ele>
        <time>2012-08-25T06:45:34Z</time>
      </trkpt>
      <trkpt lat="44.4187" lon="5.14553">
        <ele>1034.04</ele>
        <time>2012-08-25T06:45:43Z</time>
      </trkpt>
      <trkpt lat="44.41871" lon="5.14553">
        <ele>1029.71</ele>
        <time>2012-08-25T06:45:44Z</time>
      </trkpt>
      <trkpt lat="44.41872" lon="5.14552">
        <ele>1033.07</ele>
        <time>2012-08-25T06:45:45Z</time>
      </trkpt>
      <trkpt lat="44.41882" lon="5.14549">
        <ele>1036.44</ele>
        <time>2012-08-25T06:45:55Z</time>
      </trkpt>
      <trkpt lat="44.41887" lon="5.14547">
        <ele>1036.92</ele>
        <time>2012-08-25T06:46:00Z</time>
      </trkpt>
      <trkpt lat="44.41889" lon="5.14547">
        <ele>1038.36</ele>
        <time>2012-08-25T06:46:03Z</time>
      </trkpt>
      <trkpt lat="44.4189" lon="5.14546">
        <ele>1035</ele>
        <time>2012-08-25T06:46:04Z</time>
      </trkpt>
      <trkpt lat="44.41891" lon="5.14545">
        <ele>1039.32</ele>
        <time>2012-08-25T06:46:05Z</time>
      </trkpt>
      <trkpt lat="44.41892" lon="5.14545">
        <ele>1035.48</ele>
        <time>2012-08-25T06:46:06Z</time>
      </trkpt>
      <trkpt lat="44.41893" lon="5.14544">
        <ele>1039.8</ele>
        <time>2012-08-25T06:46:08Z</time>
      </trkpt>
      <trkpt lat="44.41895" lon="5.14543">
        <ele>1036.44</ele>
        <time>2012-08-25T06:46:10Z</time>
      </trkpt>
      <trkpt lat="44.41896" lon="5.14543">
        <ele>1037.4</ele>
        <time>2012-08-25T06:46:11Z</time>
      </trkpt>
      <trkpt lat="44.41897" lon="5.14544">
        <ele>1040.76</ele>
        <time>2012-08-25T06:46:12Z</time>
      </trkpt>
      <trkpt lat="44.41899" lon="5.14543">
        <ele>1040.76</ele>
        <time>2012-08-25T06:46:13Z</time>
      </trkpt>
      <trkpt lat="44.419" lon="5.14543">
        <ele>1037.4</ele>
        <time>2012-08-25T06:46:14Z</time>
      </trkpt>
      <trkpt lat="44.41902" lon="5.14543">
        <ele>1041.73</ele>
        <time>2012-08-25T06:46:16Z</time>
      </trkpt>
      <trkpt lat="44.41908" lon="5.1454">
        <ele>1040.76</ele>
        <time>2012-08-25T06:46:23Z</time>
      </trkpt>
      <trkpt lat="44.4191" lon="5.14539">
        <ele>1044.13</ele>
        <time>2012-08-25T06:46:25Z</time>
      </trkpt>
      <trkpt lat="44.4191" lon="5.14538">
        <ele>1043.65</ele>
        <time>2012-08-25T06:46:26Z</time>
      </trkpt>
      <trkpt lat="44.41911" lon="5.14537">
        <ele>1040.28</ele>
        <time>2012-08-25T06:46:27Z</time>
      </trkpt>
      <trkpt lat="44.41912" lon="5.14536">
        <ele>1041.25</ele>
        <time>2012-08-25T06:46:28Z</time>
      </trkpt>
      <trkpt lat="44.41913" lon="5.14535">
        <ele>1045.57</ele>
        <time>2012-08-25T06:46:30Z</time>
      </trkpt>
      <trkpt lat="44.41914" lon="5.14535">
        <ele>1041.73</ele>
        <time>2012-08-25T06:46:32Z</time>
      </trkpt>
      <trkpt lat="44.41916" lon="5.14535">
        <ele>1047.01</ele>
        <time>2012-08-25T06:46:34Z</time>
      </trkpt>
      <trkpt lat="44.41924" lon="5.14525">
        <ele>1049.9</ele>
        <time>2012-08-25T06:46:48Z</time>
      </trkpt>
      <trkpt lat="44.41928" lon="5.14523">
        <ele>1049.9</ele>
        <time>2012-08-25T06:46:52Z</time>
      </trkpt>
      <trkpt lat="44.41932" lon="5.14521">
        <ele>1050.38</ele>
        <time>2012-08-25T06:46:59Z</time>
      </trkpt>
      <trkpt lat="44.41933" lon="5.14519">
        <ele>1053.26</ele>
        <time>2012-08-25T06:47:01Z</time>
      </trkpt>
      <trkpt lat="44.41934" lon="5.14518">
        <ele>1049.42</ele>
        <time>2012-08-25T06:47:03Z</time>
      </trkpt>
      <trkpt lat="44.41935" lon="5.14517">
        <ele>1053.74</ele>
        <time>2012-08-25T06:47:04Z</time>
      </trkpt>
      <trkpt lat="44.41938" lon="5.14517">
        <ele>1054.7</ele>
        <time>2012-08-25T06:47:09Z</time>
      </trkpt>
      <trkpt lat="44.41943" lon="5.14515">
        <ele>1057.11</ele>
        <time>2012-08-25T06:47:16Z</time>
      </trkpt>
      <trkpt lat="44.41944" lon="5.14515">
        <ele>1057.11</ele>
        <time>2012-08-25T06:47:17Z</time>
      </trkpt>
      <trkpt lat="44.41945" lon="5.14515">
        <ele>1055.67</ele>
        <time>2012-08-25T06:47:19Z</time>
      </trkpt>
      <trkpt lat="44.41947" lon="5.14516">
        <ele>1058.07</ele>
        <time>2012-08-25T06:47:21Z</time>
      </trkpt>
      <trkpt lat="44.41951" lon="5.14516">
        <ele>1057.59</ele>
        <time>2012-08-25T06:47:26Z</time>
      </trkpt>
      <trkpt lat="44.41955" lon="5.14517">
        <ele>1058.07</ele>
        <time>2012-08-25T06:47:30Z</time>
      </trkpt>
      <trkpt lat="44.41956" lon="5.14517">
        <ele>1060.95</ele>
        <time>2012-08-25T06:47:32Z</time>
      </trkpt>
      <trkpt lat="44.41957" lon="5.14516">
        <ele>1060.95</ele>
        <time>2012-08-25T06:47:33Z</time>
      </trkpt>
      <trkpt lat="44.41961" lon="5.14515">
        <ele>1062.39</ele>
        <time>2012-08-25T06:47:39Z</time>
      </trkpt>
      <trkpt lat="44.41964" lon="5.14515">
        <ele>1063.84</ele>
        <time>2012-08-25T06:47:42Z</time>
      </trkpt>
      <trkpt lat="44.41965" lon="5.14513">
        <ele>1064.32</ele>
        <time>2012-08-25T06:47:44Z</time>
      </trkpt>
      <trkpt lat="44.41966" lon="5.14512">
        <ele>1059.99</ele>
        <time>2012-08-25T06:47:46Z</time>
      </trkpt>
      <trkpt lat="44.41967" lon="5.14511">
        <ele>1061.43</ele>
        <time>2012-08-25T06:47:47Z</time>
      </trkpt>
      <trkpt lat="44.41968" lon="5.14511">
        <ele>1065.28</ele>
        <time>2012-08-25T06:47:48Z</time>
      </trkpt>
      <trkpt lat="44.41969" lon="5.1451">
        <ele>1065.28</ele>
        <time>2012-08-25T06:47:49Z</time>
      </trkpt>
      <trkpt lat="44.4197" lon="5.1451">
        <ele>1062.39</ele>
        <time>2012-08-25T06:47:50Z</time>
      </trkpt>
      <trkpt lat="44.41971" lon="5.1451">
        <ele>1062.87</ele>
        <time>2012-08-25T06:47:51Z</time>
      </trkpt>
      <trkpt lat="44.41972" lon="5.14509">
        <ele>1066.72</ele>
        <time>2012-08-25T06:47:53Z</time>
      </trkpt>
      <trkpt lat="44.41973" lon="5.14508">
        <ele>1063.36</ele>
        <time>2012-08-25T06:47:55Z</time>
      </trkpt>
      <trkpt lat="44.41974" lon="5.14508">
        <ele>1068.16</ele>
        <time>2012-08-25T06:47:56Z</time>
      </trkpt>
      <trkpt lat="44.41978" lon="5.14505">
        <ele>1067.2</ele>
        <time>2012-08-25T06:48:00Z</time>
      </trkpt>
      <trkpt lat="44.41979" lon="5.14505">
        <ele>1069.6</ele>
        <time>2012-08-25T06:48:02Z</time>
      </trkpt>
      <trkpt lat="44.41981" lon="5.14504">
        <ele>1065.76</ele>
        <time>2012-08-25T06:48:04Z</time>
      </trkpt>
      <trkpt lat="44.41985" lon="5.14505">
        <ele>1068.64</ele>
        <time>2012-08-25T06:48:09Z</time>
      </trkpt>
      <trkpt lat="44.41988" lon="5.14505">
        <ele>1070.08</ele>
        <time>2012-08-25T06:48:11Z</time>
      </trkpt>
      <trkpt lat="44.4199" lon="5.14505">
        <ele>1069.12</ele>
        <time>2012-08-25T06:48:14Z</time>
      </trkpt>
      <trkpt lat="44.41996" lon="5.14502">
        <ele>1072.49</ele>
        <time>2012-08-25T06:48:21Z</time>
      </trkpt>
      <trkpt lat="44.42004" lon="5.145">
        <ele>1072.49</ele>
        <time>2012-08-25T06:48:30Z</time>
      </trkpt>
      <trkpt lat="44.42008" lon="5.14499">
        <ele>1074.41</ele>
        <time>2012-08-25T06:48:33Z</time>
      </trkpt>
      <trkpt lat="44.42009" lon="5.14498">
        <ele>1073.45</ele>
        <time>2012-08-25T06:48:34Z</time>
      </trkpt>
      <trkpt lat="44.42012" lon="5.14497">
        <ele>1076.33</ele>
        <time>2012-08-25T06:48:39Z</time>
      </trkpt>
      <trkpt lat="44.42016" lon="5.14495">
        <ele>1073.45</ele>
        <time>2012-08-25T06:48:43Z</time>
      </trkpt>
      <trkpt lat="44.42019" lon="5.14495">
        <ele>1076.81</ele>
        <time>2012-08-25T06:48:46Z</time>
      </trkpt>
      <trkpt lat="44.42021" lon="5.14495">
        <ele>1077.78</ele>
        <time>2012-08-25T06:48:48Z</time>
      </trkpt>
      <trkpt lat="44.42022" lon="5.14495">
        <ele>1073.93</ele>
        <time>2012-08-25T06:48:49Z</time>
      </trkpt>
      <trkpt lat="44.42023" lon="5.14496">
        <ele>1076.81</ele>
        <time>2012-08-25T06:48:50Z</time>
      </trkpt>
      <trkpt lat="44.42025" lon="5.14496">
        <ele>1075.37</ele>
        <time>2012-08-25T06:48:52Z</time>
      </trkpt>
      <trkpt lat="44.42028" lon="5.14498">
        <ele>1079.7</ele>
        <time>2012-08-25T06:48:55Z</time>
      </trkpt>
      <trkpt lat="44.42029" lon="5.14499">
        <ele>1079.7</ele>
        <time>2012-08-25T06:48:56Z</time>
      </trkpt>
      <trkpt lat="44.4204" lon="5.14502">
        <ele>1083.06</ele>
        <time>2012-08-25T06:49:07Z</time>
      </trkpt>
      <trkpt lat="44.42044" lon="5.14502">
        <ele>1079.7</ele>
        <time>2012-08-25T06:49:12Z</time>
      </trkpt>
      <trkpt lat="44.42046" lon="5.14503">
        <ele>1083.06</ele>
        <time>2012-08-25T06:49:14Z</time>
      </trkpt>
      <trkpt lat="44.42049" lon="5.14504">
        <ele>1082.58</ele>
        <time>2012-08-25T06:49:17Z</time>
      </trkpt>
      <trkpt lat="44.42055" lon="5.14504">
        <ele>1086.91</ele>
        <time>2012-08-25T06:49:24Z</time>
      </trkpt>
      <trkpt lat="44.42056" lon="5.14504">
        <ele>1084.02</ele>
        <time>2012-08-25T06:49:25Z</time>
      </trkpt>
      <trkpt lat="44.42057" lon="5.14504">
        <ele>1085.95</ele>
        <time>2012-08-25T06:49:27Z</time>
      </trkpt>
      <trkpt lat="44.4206" lon="5.14504">
        <ele>1087.87</ele>
        <time>2012-08-25T06:49:30Z</time>
      </trkpt>
      <trkpt lat="44.42062" lon="5.14504">
        <ele>1083.06</ele>
        <time>2012-08-25T06:49:32Z</time>
      </trkpt>
      <trkpt lat="44.42063" lon="5.14505">
        <ele>1086.91</ele>
        <time>2012-08-25T06:49:33Z</time>
      </trkpt>
      <trkpt lat="44.42065" lon="5.14505">
        <ele>1088.35</ele>
        <time>2012-08-25T06:49:35Z</time>
      </trkpt>
      <trkpt lat="44.42066" lon="5.14505">
        <ele>1085.47</ele>
        <time>2012-08-25T06:49:37Z</time>
      </trkpt>
      <trkpt lat="44.42067" lon="5.14505">
        <ele>1086.43</ele>
        <time>2012-08-25T06:49:38Z</time>
      </trkpt>
      <trkpt lat="44.42069" lon="5.14505">
        <ele>1090.27</ele>
        <time>2012-08-25T06:49:41Z</time>
      </trkpt>
      <trkpt lat="44.4207" lon="5.14505">
        <ele>1090.27</ele>
        <time>2012-08-25T06:49:42Z</time>
      </trkpt>
      <trkpt lat="44.42071" lon="5.14505">
        <ele>1086.43</ele>
        <time>2012-08-25T06:49:43Z</time>
      </trkpt>
      <trkpt lat="44.42072" lon="5.14505">
        <ele>1087.39</ele>
        <time>2012-08-25T06:49:44Z</time>
      </trkpt>
      <trkpt lat="44.42073" lon="5.14505">
        <ele>1090.75</ele>
        <time>2012-08-25T06:49:45Z</time>
      </trkpt>
      <trkpt lat="44.42074" lon="5.14504">
        <ele>1091.71</ele>
        <time>2012-08-25T06:49:47Z</time>
      </trkpt>
      <trkpt lat="44.42074" lon="5.14504">
        <ele>1089.31</ele>
        <time>2012-08-25T06:49:48Z</time>
      </trkpt>
      <trkpt lat="44.42076" lon="5.14502">
        <ele>1088.35</ele>
        <time>2012-08-25T06:49:50Z</time>
      </trkpt>
      <trkpt lat="44.42078" lon="5.145">
        <ele>1092.68</ele>
        <time>2012-08-25T06:49:52Z</time>
      </trkpt>
      <trkpt lat="44.42079" lon="5.145">
        <ele>1092.2</ele>
        <time>2012-08-25T06:49:53Z</time>
      </trkpt>
      <trkpt lat="44.42082" lon="5.145">
        <ele>1093.64</ele>
        <time>2012-08-25T06:49:57Z</time>
      </trkpt>
      <trkpt lat="44.42085" lon="5.145">
        <ele>1092.2</ele>
        <time>2012-08-25T06:49:59Z</time>
      </trkpt>
      <trkpt lat="44.42086" lon="5.14501">
        <ele>1094.6</ele>
        <time>2012-08-25T06:50:01Z</time>
      </trkpt>
      <trkpt lat="44.42094" lon="5.14503">
        <ele>1097.48</ele>
        <time>2012-08-25T06:50:11Z</time>
      </trkpt>
      <trkpt lat="44.42094" lon="5.14503">
        <ele>1097.48</ele>
        <time>2012-08-25T06:50:12Z</time>
      </trkpt>
      <trkpt lat="44.42096" lon="5.14503">
        <ele>1094.12</ele>
        <time>2012-08-25T06:50:16Z</time>
      </trkpt>
      <trkpt lat="44.42096" lon="5.14502">
        <ele>1097.96</ele>
        <time>2012-08-25T06:50:17Z</time>
      </trkpt>
      <trkpt lat="44.42097" lon="5.14502">
        <ele>1095.08</ele>
        <time>2012-08-25T06:50:19Z</time>
      </trkpt>
      <trkpt lat="44.421" lon="5.14502">
        <ele>1098.44</ele>
        <time>2012-08-25T06:50:22Z</time>
      </trkpt>
      <trkpt lat="44.42104" lon="5.14501">
        <ele>1101.81</ele>
        <time>2012-08-25T06:50:28Z</time>
      </trkpt>
      <trkpt lat="44.42104" lon="5.14501">
        <ele>1098.44</ele>
        <time>2012-08-25T06:50:29Z</time>
      </trkpt>
      <trkpt lat="44.42105" lon="5.14502">
        <ele>1101.33</ele>
        <time>2012-08-25T06:50:30Z</time>
      </trkpt>
      <trkpt lat="44.42108" lon="5.14503">
        <ele>1099.4</ele>
        <time>2012-08-25T06:50:35Z</time>
      </trkpt>
      <trkpt lat="44.42111" lon="5.14502">
        <ele>1104.69</ele>
        <time>2012-08-25T06:50:39Z</time>
      </trkpt>
      <trkpt lat="44.42112" lon="5.14501">
        <ele>1104.69</ele>
        <time>2012-08-25T06:50:40Z</time>
      </trkpt>
      <trkpt lat="44.42113" lon="5.14501">
        <ele>1101.33</ele>
        <time>2012-08-25T06:50:41Z</time>
      </trkpt>
      <trkpt lat="44.42114" lon="5.14502">
        <ele>1104.69</ele>
        <time>2012-08-25T06:50:42Z</time>
      </trkpt>
      <trkpt lat="44.42116" lon="5.14501">
        <ele>1102.29</ele>
        <time>2012-08-25T06:50:45Z</time>
      </trkpt>
      <trkpt lat="44.42126" lon="5.145">
        <ele>1107.58</ele>
        <time>2012-08-25T06:50:55Z</time>
      </trkpt>
      <trkpt lat="44.42127" lon="5.14499">
        <ele>1103.25</ele>
        <time>2012-08-25T06:50:56Z</time>
      </trkpt>
      <trkpt lat="44.42128" lon="5.145">
        <ele>1108.06</ele>
        <time>2012-08-25T06:50:57Z</time>
      </trkpt>
      <trkpt lat="44.4213" lon="5.14501">
        <ele>1104.69</ele>
        <time>2012-08-25T06:51:00Z</time>
      </trkpt>
      <trkpt lat="44.42131" lon="5.14501">
        <ele>1108.54</ele>
        <time>2012-08-25T06:51:02Z</time>
      </trkpt>
      <trkpt lat="44.42133" lon="5.14503">
        <ele>1106.61</ele>
        <time>2012-08-25T06:51:05Z</time>
      </trkpt>
      <trkpt lat="44.42135" lon="5.14502">
        <ele>1109.98</ele>
        <time>2012-08-25T06:51:07Z</time>
      </trkpt>
      <trkpt lat="44.42135" lon="5.14502">
        <ele>1106.61</ele>
        <time>2012-08-25T06:51:08Z</time>
      </trkpt>
      <trkpt lat="44.42136" lon="5.14501">
        <ele>1107.1</ele>
        <time>2012-08-25T06:51:09Z</time>
      </trkpt>
      <trkpt lat="44.42138" lon="5.14501">
        <ele>1110.94</ele>
        <time>2012-08-25T06:51:11Z</time>
      </trkpt>
      <trkpt lat="44.4214" lon="5.145">
        <ele>1107.1</ele>
        <time>2012-08-25T06:51:14Z</time>
      </trkpt>
      <trkpt lat="44.42141" lon="5.145">
        <ele>1109.98</ele>
        <time>2012-08-25T06:51:15Z</time>
      </trkpt>
      <trkpt lat="44.42143" lon="5.145">
        <ele>1111.42</ele>
        <time>2012-08-25T06:51:17Z</time>
      </trkpt>
      <trkpt lat="44.42144" lon="5.14499">
        <ele>1107.58</ele>
        <time>2012-08-25T06:51:18Z</time>
      </trkpt>
      <trkpt lat="44.42144" lon="5.14499">
        <ele>1111.42</ele>
        <time>2012-08-25T06:51:19Z</time>
      </trkpt>
      <trkpt lat="44.4215" lon="5.14498">
        <ele>1113.82</ele>
        <time>2012-08-25T06:51:26Z</time>
      </trkpt>
      <trkpt lat="44.42151" lon="5.14497">
        <ele>1109.98</ele>
        <time>2012-08-25T06:51:27Z</time>
      </trkpt>
      <trkpt lat="44.42152" lon="5.14497">
        <ele>1111.42</ele>
        <time>2012-08-25T06:51:28Z</time>
      </trkpt>
      <trkpt lat="44.42155" lon="5.14497">
        <ele>1114.79</ele>
        <time>2012-08-25T06:51:31Z</time>
      </trkpt>
      <trkpt lat="44.42157" lon="5.14497">
        <ele>1111.9</ele>
        <time>2012-08-25T06:51:33Z</time>
      </trkpt>
      <trkpt lat="44.42158" lon="5.14498">
        <ele>1112.38</ele>
        <time>2012-08-25T06:51:34Z</time>
      </trkpt>
      <trkpt lat="44.42161" lon="5.14499">
        <ele>1115.27</ele>
        <time>2012-08-25T06:51:36Z</time>
      </trkpt>
      <trkpt lat="44.42169" lon="5.14502">
        <ele>1118.63</ele>
        <time>2012-08-25T06:51:46Z</time>
      </trkpt>
      <trkpt lat="44.42171" lon="5.14503">
        <ele>1114.79</ele>
        <time>2012-08-25T06:51:48Z</time>
      </trkpt>
      <trkpt lat="44.42174" lon="5.145">
        <ele>1118.15</ele>
        <time>2012-08-25T06:51:51Z</time>
      </trkpt>
      <trkpt lat="44.42175" lon="5.14499">
        <ele>1118.63</ele>
        <time>2012-08-25T06:51:52Z</time>
      </trkpt>
      <trkpt lat="44.42177" lon="5.14498">
        <ele>1119.59</ele>
        <time>2012-08-25T06:51:54Z</time>
      </trkpt>
      <trkpt lat="44.42195" lon="5.14494">
        <ele>1120.55</ele>
        <time>2012-08-25T06:52:09Z</time>
      </trkpt>
      <trkpt lat="44.42201" lon="5.14492">
        <ele>1122.48</ele>
        <time>2012-08-25T06:52:15Z</time>
      </trkpt>
      <trkpt lat="44.42203" lon="5.14492">
        <ele>1118.63</ele>
        <time>2012-08-25T06:52:17Z</time>
      </trkpt>
      <trkpt lat="44.42204" lon="5.14492">
        <ele>1122</ele>
        <time>2012-08-25T06:52:18Z</time>
      </trkpt>
      <trkpt lat="44.42207" lon="5.14491">
        <ele>1123.44</ele>
        <time>2012-08-25T06:52:21Z</time>
      </trkpt>
      <trkpt lat="44.42214" lon="5.14484">
        <ele>1125.36</ele>
        <time>2012-08-25T06:52:29Z</time>
      </trkpt>
      <trkpt lat="44.42217" lon="5.14483">
        <ele>1122.96</ele>
        <time>2012-08-25T06:52:32Z</time>
      </trkpt>
      <trkpt lat="44.4222" lon="5.14484">
        <ele>1124.4</ele>
        <time>2012-08-25T06:52:35Z</time>
      </trkpt>
      <trkpt lat="44.42222" lon="5.14483">
        <ele>1127.76</ele>
        <time>2012-08-25T06:52:37Z</time>
      </trkpt>
      <trkpt lat="44.42224" lon="5.14483">
        <ele>1122.48</ele>
        <time>2012-08-25T06:52:39Z</time>
      </trkpt>
      <trkpt lat="44.42224" lon="5.14483">
        <ele>1128.24</ele>
        <time>2012-08-25T06:52:40Z</time>
      </trkpt>
      <trkpt lat="44.42232" lon="5.14489">
        <ele>1131.13</ele>
        <time>2012-08-25T06:52:50Z</time>
      </trkpt>
      <trkpt lat="44.42233" lon="5.1449">
        <ele>1129.69</ele>
        <time>2012-08-25T06:52:51Z</time>
      </trkpt>
      <trkpt lat="44.4224" lon="5.14491">
        <ele>1130.17</ele>
        <time>2012-08-25T06:52:59Z</time>
      </trkpt>
      <trkpt lat="44.42244" lon="5.14489">
        <ele>1134.49</ele>
        <time>2012-08-25T06:53:03Z</time>
      </trkpt>
      <trkpt lat="44.42245" lon="5.14489">
        <ele>1134.01</ele>
        <time>2012-08-25T06:53:04Z</time>
      </trkpt>
      <trkpt lat="44.42247" lon="5.14487">
        <ele>1130.17</ele>
        <time>2012-08-25T06:53:06Z</time>
      </trkpt>
      <trkpt lat="44.42249" lon="5.14486">
        <ele>1134.49</ele>
        <time>2012-08-25T06:53:08Z</time>
      </trkpt>
      <trkpt lat="44.42251" lon="5.14485">
        <ele>1130.65</ele>
        <time>2012-08-25T06:53:10Z</time>
      </trkpt>
      <trkpt lat="44.42252" lon="5.14485">
        <ele>1134.49</ele>
        <time>2012-08-25T06:53:11Z</time>
      </trkpt>
      <trkpt lat="44.42256" lon="5.14483">
        <ele>1133.53</ele>
        <time>2012-08-25T06:53:17Z</time>
      </trkpt>
      <trkpt lat="44.42258" lon="5.14483">
        <ele>1138.34</ele>
        <time>2012-08-25T06:53:19Z</time>
      </trkpt>
      <trkpt lat="44.42265" lon="5.14483">
        <ele>1139.3</ele>
        <time>2012-08-25T06:53:27Z</time>
      </trkpt>
      <trkpt lat="44.4227" lon="5.14484">
        <ele>1141.22</ele>
        <time>2012-08-25T06:53:32Z</time>
      </trkpt>
      <trkpt lat="44.42273" lon="5.14482">
        <ele>1137.86</ele>
        <time>2012-08-25T06:53:35Z</time>
      </trkpt>
      <trkpt lat="44.42276" lon="5.14481">
        <ele>1141.22</ele>
        <time>2012-08-25T06:53:38Z</time>
      </trkpt>
      <trkpt lat="44.42277" lon="5.14481">
        <ele>1140.26</ele>
        <time>2012-08-25T06:53:39Z</time>
      </trkpt>
      <trkpt lat="44.4228" lon="5.14482">
        <ele>1143.14</ele>
        <time>2012-08-25T06:53:41Z</time>
      </trkpt>
      <trkpt lat="44.42281" lon="5.14482">
        <ele>1139.78</ele>
        <time>2012-08-25T06:53:42Z</time>
      </trkpt>
      <trkpt lat="44.42283" lon="5.14482">
        <ele>1143.14</ele>
        <time>2012-08-25T06:53:45Z</time>
      </trkpt>
      <trkpt lat="44.42289" lon="5.14483">
        <ele>1142.66</ele>
        <time>2012-08-25T06:53:50Z</time>
      </trkpt>
      <trkpt lat="44.42292" lon="5.14482">
        <ele>1144.59</ele>
        <time>2012-08-25T06:53:52Z</time>
      </trkpt>
      <trkpt lat="44.42294" lon="5.14482">
        <ele>1142.18</ele>
        <time>2012-08-25T06:53:54Z</time>
      </trkpt>
      <trkpt lat="44.42298" lon="5.14482">
        <ele>1146.03</ele>
        <time>2012-08-25T06:53:57Z</time>
      </trkpt>
      <trkpt lat="44.42299" lon="5.14482">
        <ele>1147.47</ele>
        <time>2012-08-25T06:53:59Z</time>
      </trkpt>
      <trkpt lat="44.42306" lon="5.14476">
        <ele>1149.39</ele>
        <time>2012-08-25T06:54:07Z</time>
      </trkpt>
      <trkpt lat="44.4231" lon="5.14473">
        <ele>1146.03</ele>
        <time>2012-08-25T06:54:10Z</time>
      </trkpt>
      <trkpt lat="44.42311" lon="5.14472">
        <ele>1146.99</ele>
        <time>2012-08-25T06:54:11Z</time>
      </trkpt>
      <trkpt lat="44.42313" lon="5.14471">
        <ele>1150.84</ele>
        <time>2012-08-25T06:54:13Z</time>
      </trkpt>
      <trkpt lat="44.42316" lon="5.14468">
        <ele>1147.95</ele>
        <time>2012-08-25T06:54:19Z</time>
      </trkpt>
      <trkpt lat="44.42317" lon="5.14468">
        <ele>1151.8</ele>
        <time>2012-08-25T06:54:21Z</time>
      </trkpt>
      <trkpt lat="44.42319" lon="5.14468">
        <ele>1153.24</ele>
        <time>2012-08-25T06:54:23Z</time>
      </trkpt>
      <trkpt lat="44.42321" lon="5.14468">
        <ele>1149.87</ele>
        <time>2012-08-25T06:54:25Z</time>
      </trkpt>
      <trkpt lat="44.42323" lon="5.14468">
        <ele>1152.28</ele>
        <time>2012-08-25T06:54:26Z</time>
      </trkpt>
      <trkpt lat="44.4233" lon="5.14469">
        <ele>1154.68</ele>
        <time>2012-08-25T06:54:31Z</time>
      </trkpt>
      <trkpt lat="44.42335" lon="5.14471">
        <ele>1152.76</ele>
        <time>2012-08-25T06:54:36Z</time>
      </trkpt>
      <trkpt lat="44.4234" lon="5.14473">
        <ele>1156.6</ele>
        <time>2012-08-25T06:54:39Z</time>
      </trkpt>
      <trkpt lat="44.4235" lon="5.14478">
        <ele>1156.6</ele>
        <time>2012-08-25T06:54:48Z</time>
      </trkpt>
      <trkpt lat="44.42361" lon="5.14476">
        <ele>1158.53</ele>
        <time>2012-08-25T06:54:57Z</time>
      </trkpt>
      <trkpt lat="44.42365" lon="5.14474">
        <ele>1160.93</ele>
        <time>2012-08-25T06:55:00Z</time>
      </trkpt>
      <trkpt lat="44.4238" lon="5.14466">
        <ele>1162.85</ele>
        <time>2012-08-25T06:55:13Z</time>
      </trkpt>
      <trkpt lat="44.42394" lon="5.14457">
        <ele>1165.26</ele>
        <time>2012-08-25T06:55:26Z</time>
      </trkpt>
      <trkpt lat="44.42403" lon="5.14448">
        <ele>1161.41</ele>
        <time>2012-08-25T06:55:33Z</time>
      </trkpt>
      <trkpt lat="44.42404" lon="5.14448">
        <ele>1166.22</ele>
        <time>2012-08-25T06:55:34Z</time>
      </trkpt>
      <trkpt lat="44.42406" lon="5.14448">
        <ele>1163.81</ele>
        <time>2012-08-25T06:55:36Z</time>
      </trkpt>
      <trkpt lat="44.42413" lon="5.14448">
        <ele>1166.22</ele>
        <time>2012-08-25T06:55:42Z</time>
      </trkpt>
      <trkpt lat="44.42418" lon="5.14448">
        <ele>1170.54</ele>
        <time>2012-08-25T06:55:47Z</time>
      </trkpt>
      <trkpt lat="44.4242" lon="5.14448">
        <ele>1166.7</ele>
        <time>2012-08-25T06:55:49Z</time>
      </trkpt>
      <trkpt lat="44.42421" lon="5.14448">
        <ele>1171.02</ele>
        <time>2012-08-25T06:55:50Z</time>
      </trkpt>
      <trkpt lat="44.42428" lon="5.14449">
        <ele>1172.47</ele>
        <time>2012-08-25T06:55:57Z</time>
      </trkpt>
      <trkpt lat="44.42434" lon="5.14446">
        <ele>1173.91</ele>
        <time>2012-08-25T06:56:03Z</time>
      </trkpt>
      <trkpt lat="44.42444" lon="5.14441">
        <ele>1176.79</ele>
        <time>2012-08-25T06:56:13Z</time>
      </trkpt>
      <trkpt lat="44.42446" lon="5.1444">
        <ele>1173.43</ele>
        <time>2012-08-25T06:56:15Z</time>
      </trkpt>
      <trkpt lat="44.42447" lon="5.1444">
        <ele>1176.31</ele>
        <time>2012-08-25T06:56:16Z</time>
      </trkpt>
      <trkpt lat="44.42449" lon="5.1444">
        <ele>1178.71</ele>
        <time>2012-08-25T06:56:19Z</time>
      </trkpt>
      <trkpt lat="44.42454" lon="5.1444">
        <ele>1179.67</ele>
        <time>2012-08-25T06:56:25Z</time>
      </trkpt>
      <trkpt lat="44.42457" lon="5.14439">
        <ele>1177.75</ele>
        <time>2012-08-25T06:56:28Z</time>
      </trkpt>
      <trkpt lat="44.4246" lon="5.14438">
        <ele>1182.56</ele>
        <time>2012-08-25T06:56:31Z</time>
      </trkpt>
      <trkpt lat="44.42471" lon="5.14438">
        <ele>1184.48</ele>
        <time>2012-08-25T06:56:42Z</time>
      </trkpt>
      <trkpt lat="44.42476" lon="5.1444">
        <ele>1187.37</ele>
        <time>2012-08-25T06:56:48Z</time>
      </trkpt>
      <trkpt lat="44.42477" lon="5.14442">
        <ele>1183.52</ele>
        <time>2012-08-25T06:56:53Z</time>
      </trkpt>
      <trkpt lat="44.42478" lon="5.14442">
        <ele>1188.33</ele>
        <time>2012-08-25T06:56:54Z</time>
      </trkpt>
      <trkpt lat="44.42481" lon="5.14443">
        <ele>1190.73</ele>
        <time>2012-08-25T06:56:59Z</time>
      </trkpt>
      <trkpt lat="44.42484" lon="5.14442">
        <ele>1186.88</ele>
        <time>2012-08-25T06:57:02Z</time>
      </trkpt>
      <trkpt lat="44.42485" lon="5.14441">
        <ele>1188.81</ele>
        <time>2012-08-25T06:57:03Z</time>
      </trkpt>
      <trkpt lat="44.42487" lon="5.14439">
        <ele>1192.17</ele>
        <time>2012-08-25T06:57:05Z</time>
      </trkpt>
      <trkpt lat="44.42495" lon="5.14434">
        <ele>1189.77</ele>
        <time>2012-08-25T06:57:14Z</time>
      </trkpt>
      <trkpt lat="44.42496" lon="5.14434">
        <ele>1190.25</ele>
        <time>2012-08-25T06:57:15Z</time>
      </trkpt>
      <trkpt lat="44.42497" lon="5.14434">
        <ele>1194.58</ele>
        <time>2012-08-25T06:57:16Z</time>
      </trkpt>
      <trkpt lat="44.42497" lon="5.14434">
        <ele>1194.58</ele>
        <time>2012-08-25T06:57:17Z</time>
      </trkpt>
      <trkpt lat="44.42498" lon="5.14435">
        <ele>1191.69</ele>
        <time>2012-08-25T06:57:19Z</time>
      </trkpt>
      <trkpt lat="44.42498" lon="5.14436">
        <ele>1195.06</ele>
        <time>2012-08-25T06:57:20Z</time>
      </trkpt>
      <trkpt lat="44.42499" lon="5.14441">
        <ele>1196.98</ele>
        <time>2012-08-25T06:57:24Z</time>
      </trkpt>
      <trkpt lat="44.42499" lon="5.14442">
        <ele>1197.94</ele>
        <time>2012-08-25T06:57:25Z</time>
      </trkpt>
      <trkpt lat="44.42498" lon="5.14446">
        <ele>1197.46</ele>
        <time>2012-08-25T06:57:29Z</time>
      </trkpt>
      <trkpt lat="44.42498" lon="5.14449">
        <ele>1198.9</ele>
        <time>2012-08-25T06:57:31Z</time>
      </trkpt>
      <trkpt lat="44.42498" lon="5.1445">
        <ele>1193.61</ele>
        <time>2012-08-25T06:57:32Z</time>
      </trkpt>
      <trkpt lat="44.42497" lon="5.14452">
        <ele>1197.46</ele>
        <time>2012-08-25T06:57:33Z</time>
      </trkpt>
      <trkpt lat="44.42497" lon="5.14454">
        <ele>1198.9</ele>
        <time>2012-08-25T06:57:35Z</time>
      </trkpt>
      <trkpt lat="44.42498" lon="5.14466">
        <ele>1200.82</ele>
        <time>2012-08-25T06:57:43Z</time>
      </trkpt>
      <trkpt lat="44.425" lon="5.14476">
        <ele>1201.3</ele>
        <time>2012-08-25T06:57:49Z</time>
      </trkpt>
      <trkpt lat="44.425" lon="5.14487">
        <ele>1204.67</ele>
        <time>2012-08-25T06:57:56Z</time>
      </trkpt>
      <trkpt lat="44.425" lon="5.1449">
        <ele>1205.63</ele>
        <time>2012-08-25T06:57:58Z</time>
      </trkpt>
      <trkpt lat="44.425" lon="5.14493">
        <ele>1202.75</ele>
        <time>2012-08-25T06:58:00Z</time>
      </trkpt>
      <trkpt lat="44.42499" lon="5.14505">
        <ele>1206.11</ele>
        <time>2012-08-25T06:58:08Z</time>
      </trkpt>
      <trkpt lat="44.42498" lon="5.1452">
        <ele>1203.71</ele>
        <time>2012-08-25T06:58:23Z</time>
      </trkpt>
      <trkpt lat="44.42498" lon="5.1452">
        <ele>1207.55</ele>
        <time>2012-08-25T06:58:24Z</time>
      </trkpt>
      <trkpt lat="44.42498" lon="5.1452">
        <ele>1199.38</ele>
        <time>2012-08-25T06:58:27Z</time>
      </trkpt>
      <trkpt lat="44.42498" lon="5.1452">
        <ele>1209</ele>
        <time>2012-08-25T06:58:28Z</time>
      </trkpt>
      <trkpt lat="44.42498" lon="5.14521">
        <ele>1205.63</ele>
        <time>2012-08-25T06:58:36Z</time>
      </trkpt>
      <trkpt lat="44.42499" lon="5.14521">
        <ele>1210.44</ele>
        <time>2012-08-25T06:58:41Z</time>
      </trkpt>
      <trkpt lat="44.42499" lon="5.14521">
        <ele>1207.55</ele>
        <time>2012-08-25T06:58:42Z</time>
      </trkpt>
      <trkpt lat="44.42499" lon="5.1452">
        <ele>1209</ele>
        <time>2012-08-25T06:58:46Z</time>
      </trkpt>
      <trkpt lat="44.42499" lon="5.1452">
        <ele>1207.55</ele>
        <time>2012-08-25T06:59:12Z</time>
      </trkpt>
      <trkpt lat="44.425" lon="5.14521">
        <ele>1208.03</ele>
        <time>2012-08-25T06:59:34Z</time>
      </trkpt>
      <trkpt lat="44.425" lon="5.14521">
        <ele>1208.03</ele>
        <time>2012-08-25T06:59:51Z</time>
      </trkpt>
      <trkpt lat="44.42501" lon="5.14523">
        <ele>1207.55</ele>
        <time>2012-08-25T07:00:07Z</time>
      </trkpt>
      <trkpt lat="44.425" lon="5.14523">
        <ele>1207.55</ele>
        <time>2012-08-25T07:00:22Z</time>
      </trkpt>
      <trkpt lat="44.425" lon="5.14523">
        <ele>1210.92</ele>
        <time>2012-08-25T07:00:30Z</time>
      </trkpt>
      <trkpt lat="44.425" lon="5.14523">
        <ele>1207.55</ele>
        <time>2012-08-25T07:00:31Z</time>
      </trkpt>
      <trkpt lat="44.425" lon="5.14523">
        <ele>1202.75</ele>
        <time>2012-08-25T07:00:36Z</time>
      </trkpt>
      <trkpt lat="44.42499" lon="5.14523">
        <ele>1208.51</ele>
        <time>2012-08-25T07:00:37Z</time>
      </trkpt>
      <trkpt lat="44.42499" lon="5.14523">
        <ele>1193.13</ele>
        <time>2012-08-25T07:00:41Z</time>
      </trkpt>
      <trkpt lat="44.425" lon="5.14523">
        <ele>1211.4</ele>
        <time>2012-08-25T07:00:42Z</time>
      </trkpt>
      <trkpt lat="44.42499" lon="5.14523">
        <ele>1196.02</ele>
        <time>2012-08-25T07:00:43Z</time>
      </trkpt>
      <trkpt lat="44.42499" lon="5.14523">
        <ele>1209.96</ele>
        <time>2012-08-25T07:00:44Z</time>
      </trkpt>
      <trkpt lat="44.42499" lon="5.14523">
        <ele>1198.9</ele>
        <time>2012-08-25T07:00:46Z</time>
      </trkpt>
      <trkpt lat="44.42499" lon="5.14523">
        <ele>1207.07</ele>
        <time>2012-08-25T07:00:47Z</time>
      </trkpt>
      <trkpt lat="44.42499" lon="5.14523">
        <ele>1215.24</ele>
        <time>2012-08-25T07:00:48Z</time>
      </trkpt>
      <trkpt lat="44.42499" lon="5.14523">
        <ele>1215.24</ele>
        <time>2012-08-25T07:00:49Z</time>
      </trkpt>
      <trkpt lat="44.42499" lon="5.14523">
        <ele>1208.51</ele>
        <time>2012-08-25T07:00:50Z</time>
      </trkpt>
      <trkpt lat="44.42499" lon="5.14523">
        <ele>1208.03</ele>
        <time>2012-08-25T07:00:51Z</time>
      </trkpt>
      <trkpt lat="44.42499" lon="5.14523">
        <ele>1198.9</ele>
        <time>2012-08-25T07:00:52Z</time>
      </trkpt>
      <trkpt lat="44.42499" lon="5.14523">
        <ele>1209.48</ele>
        <time>2012-08-25T07:00:53Z</time>
      </trkpt>
      <trkpt lat="44.425" lon="5.14523">
        <ele>1202.27</ele>
        <time>2012-08-25T07:00:54Z</time>
      </trkpt>
      <trkpt lat="44.425" lon="5.14524">
        <ele>1210.44</ele>
        <time>2012-08-25T07:00:55Z</time>
      </trkpt>
      <trkpt lat="44.425" lon="5.14524">
        <ele>1201.79</ele>
        <time>2012-08-25T07:00:58Z</time>
      </trkpt>
      <trkpt lat="44.425" lon="5.14524">
        <ele>1210.44</ele>
        <time>2012-08-25T07:00:59Z</time>
      </trkpt>
      <trkpt lat="44.425" lon="5.14524">
        <ele>1205.15</ele>
        <time>2012-08-25T07:01:03Z</time>
      </trkpt>
      <trkpt lat="44.425" lon="5.14524">
        <ele>1212.36</ele>
        <time>2012-08-25T07:01:04Z</time>
      </trkpt>
      <trkpt lat="44.425" lon="5.14524">
        <ele>1208.51</ele>
        <time>2012-08-25T07:01:05Z</time>
      </trkpt>
      <trkpt lat="44.425" lon="5.14524">
        <ele>1195.06</ele>
        <time>2012-08-25T07:01:14Z</time>
      </trkpt>
      <trkpt lat="44.425" lon="5.14524">
        <ele>1210.92</ele>
        <time>2012-08-25T07:01:15Z</time>
      </trkpt>
      <trkpt lat="44.425" lon="5.14524">
        <ele>1207.55</ele>
        <time>2012-08-25T07:01:19Z</time>
      </trkpt>
      <trkpt lat="44.425" lon="5.14524">
        <ele>1208.03</ele>
        <time>2012-08-25T07:01:45Z</time>
      </trkpt>
      <trkpt lat="44.425" lon="5.14524">
        <ele>1207.55</ele>
        <time>2012-08-25T07:02:06Z</time>
      </trkpt>
      <trkpt lat="44.42501" lon="5.14524">
        <ele>1208.03</ele>
        <time>2012-08-25T07:02:33Z</time>
      </trkpt>
      <trkpt lat="44.42501" lon="5.14524">
        <ele>1202.27</ele>
        <time>2012-08-25T07:02:37Z</time>
      </trkpt>
      <trkpt lat="44.42501" lon="5.14524">
        <ele>1210.92</ele>
        <time>2012-08-25T07:02:39Z</time>
      </trkpt>
      <trkpt lat="44.42501" lon="5.14524">
        <ele>1208.51</ele>
        <time>2012-08-25T07:02:40Z</time>
      </trkpt>
      <trkpt lat="44.42501" lon="5.14524">
        <ele>1214.28</ele>
        <time>2012-08-25T07:02:41Z</time>
      </trkpt>
      <trkpt lat="44.42501" lon="5.14525">
        <ele>1209</ele>
        <time>2012-08-25T07:02:42Z</time>
      </trkpt>
      <trkpt lat="44.42501" lon="5.14525">
        <ele>1200.34</ele>
        <time>2012-08-25T07:02:43Z</time>
      </trkpt>
      <trkpt lat="44.42501" lon="5.14525">
        <ele>1209.48</ele>
        <time>2012-08-25T07:02:44Z</time>
      </trkpt>
      <trkpt lat="44.42501" lon="5.14524">
        <ele>1214.28</ele>
        <time>2012-08-25T07:02:49Z</time>
      </trkpt>
      <trkpt lat="44.42501" lon="5.14524">
        <ele>1211.88</ele>
        <time>2012-08-25T07:02:50Z</time>
      </trkpt>
      <trkpt lat="44.42501" lon="5.14524">
        <ele>1206.11</ele>
        <time>2012-08-25T07:02:51Z</time>
      </trkpt>
      <trkpt lat="44.42501" lon="5.14524">
        <ele>1209.48</ele>
        <time>2012-08-25T07:02:52Z</time>
      </trkpt>
      <trkpt lat="44.42501" lon="5.14524">
        <ele>1217.65</ele>
        <time>2012-08-25T07:02:53Z</time>
      </trkpt>
      <trkpt lat="44.42501" lon="5.14524">
        <ele>1205.15</ele>
        <time>2012-08-25T07:02:54Z</time>
      </trkpt>
      <trkpt lat="44.42501" lon="5.14524">
        <ele>1210.92</ele>
        <time>2012-08-25T07:02:55Z</time>
      </trkpt>
      <trkpt lat="44.42501" lon="5.14524">
        <ele>1215.24</ele>
        <time>2012-08-25T07:02:56Z</time>
      </trkpt>
      <trkpt lat="44.42501" lon="5.14524">
        <ele>1208.03</ele>
        <time>2012-08-25T07:02:57Z</time>
      </trkpt>
      <trkpt lat="44.42501" lon="5.14524">
        <ele>1214.76</ele>
        <time>2012-08-25T07:02:58Z</time>
      </trkpt>
      <trkpt lat="44.42501" lon="5.14524">
        <ele>1208.51</ele>
        <time>2012-08-25T07:02:59Z</time>
      </trkpt>
      <trkpt lat="44.42501" lon="5.14524">
        <ele>1212.36</ele>
        <time>2012-08-25T07:03:00Z</time>
      </trkpt>
      <trkpt lat="44.42501" lon="5.14524">
        <ele>1208.51</ele>
        <time>2012-08-25T07:03:04Z</time>
      </trkpt>
      <trkpt lat="44.42501" lon="5.14524">
        <ele>1210.92</ele>
        <time>2012-08-25T07:03:05Z</time>
      </trkpt>
      <trkpt lat="44.42501" lon="5.14524">
        <ele>1200.34</ele>
        <time>2012-08-25T07:03:08Z</time>
      </trkpt>
      <trkpt lat="44.42501" lon="5.14524">
        <ele>1211.4</ele>
        <time>2012-08-25T07:03:09Z</time>
      </trkpt>
      <trkpt lat="44.42501" lon="5.14524">
        <ele>1204.67</ele>
        <time>2012-08-25T07:03:11Z</time>
      </trkpt>
      <trkpt lat="44.42501" lon="5.14524">
        <ele>1212.36</ele>
        <time>2012-08-25T07:03:12Z</time>
      </trkpt>
      <trkpt lat="44.42501" lon="5.14524">
        <ele>1204.67</ele>
        <time>2012-08-25T07:03:13Z</time>
      </trkpt>
      <trkpt lat="44.42501" lon="5.14524">
        <ele>1209</ele>
        <time>2012-08-25T07:03:14Z</time>
      </trkpt>
      <trkpt lat="44.425" lon="5.14525">
        <ele>1209</ele>
        <time>2012-08-25T07:03:26Z</time>
      </trkpt>
      <trkpt lat="44.425" lon="5.14525">
        <ele>1190.73</ele>
        <time>2012-08-25T07:03:33Z</time>
      </trkpt>
      <trkpt lat="44.425" lon="5.14525">
        <ele>1211.88</ele>
        <time>2012-08-25T07:03:34Z</time>
      </trkpt>
      <trkpt lat="44.425" lon="5.14525">
        <ele>1192.65</ele>
        <time>2012-08-25T07:03:35Z</time>
      </trkpt>
      <trkpt lat="44.425" lon="5.14525">
        <ele>1210.44</ele>
        <time>2012-08-25T07:03:36Z</time>
      </trkpt>
      <trkpt lat="44.425" lon="5.14525">
        <ele>1222.93</ele>
        <time>2012-08-25T07:03:39Z</time>
      </trkpt>
      <trkpt lat="44.425" lon="5.14525">
        <ele>1213.8</ele>
        <time>2012-08-25T07:03:40Z</time>
      </trkpt>
      <trkpt lat="44.425" lon="5.14525">
        <ele>1209</ele>
        <time>2012-08-25T07:03:41Z</time>
      </trkpt>
      <trkpt lat="44.425" lon="5.14525">
        <ele>1211.4</ele>
        <time>2012-08-25T07:03:42Z</time>
      </trkpt>
      <trkpt lat="44.425" lon="5.14524">
        <ele>1196.98</ele>
        <time>2012-08-25T07:03:44Z</time>
      </trkpt>
      <trkpt lat="44.425" lon="5.14524">
        <ele>1206.59</ele>
        <time>2012-08-25T07:03:45Z</time>
      </trkpt>
      <trkpt lat="44.425" lon="5.14524">
        <ele>1210.92</ele>
        <time>2012-08-25T07:03:46Z</time>
      </trkpt>
      <trkpt lat="44.425" lon="5.14524">
        <ele>1214.76</ele>
        <time>2012-08-25T07:03:49Z</time>
      </trkpt>
      <trkpt lat="44.425" lon="5.14524">
        <ele>1209.48</ele>
        <time>2012-08-25T07:03:51Z</time>
      </trkpt>
      <trkpt lat="44.425" lon="5.14524">
        <ele>1215.24</ele>
        <time>2012-08-25T07:03:52Z</time>
      </trkpt>
      <trkpt lat="44.42499" lon="5.14524">
        <ele>1205.63</ele>
        <time>2012-08-25T07:03:53Z</time>
      </trkpt>
      <trkpt lat="44.42499" lon="5.14524">
        <ele>1197.46</ele>
        <time>2012-08-25T07:03:54Z</time>
      </trkpt>
      <trkpt lat="44.42499" lon="5.14524">
        <ele>1205.63</ele>
        <time>2012-08-25T07:03:55Z</time>
      </trkpt>
      <trkpt lat="44.42499" lon="5.14524">
        <ele>1213.8</ele>
        <time>2012-08-25T07:03:56Z</time>
      </trkpt>
      <trkpt lat="44.42499" lon="5.14524">
        <ele>1209</ele>
        <time>2012-08-25T07:03:57Z</time>
      </trkpt>
      <trkpt lat="44.42499" lon="5.14524">
        <ele>1213.8</ele>
        <time>2012-08-25T07:04:00Z</time>
      </trkpt>
      <trkpt lat="44.42499" lon="5.14524">
        <ele>1202.27</ele>
        <time>2012-08-25T07:04:01Z</time>
      </trkpt>
      <trkpt lat="44.42499" lon="5.14524">
        <ele>1210.44</ele>
        <time>2012-08-25T07:04:02Z</time>
      </trkpt>
      <trkpt lat="44.42499" lon="5.14524">
        <ele>1209</ele>
        <time>2012-08-25T07:04:05Z</time>
      </trkpt>
      <trkpt lat="44.42499" lon="5.14524">
        <ele>1214.76</ele>
        <time>2012-08-25T07:04:06Z</time>
      </trkpt>
      <trkpt lat="44.42499" lon="5.14524">
        <ele>1209</ele>
        <time>2012-08-25T07:04:07Z</time>
      </trkpt>
      <trkpt lat="44.42499" lon="5.14524">
        <ele>1205.15</ele>
        <time>2012-08-25T07:04:08Z</time>
      </trkpt>
      <trkpt lat="44.42499" lon="5.14524">
        <ele>1209</ele>
        <time>2012-08-25T07:04:09Z</time>
      </trkpt>
      <trkpt lat="44.42499" lon="5.14524">
        <ele>1212.84</ele>
        <time>2012-08-25T07:04:10Z</time>
      </trkpt>
      <trkpt lat="44.42499" lon="5.14524">
        <ele>1212.36</ele>
        <time>2012-08-25T07:04:11Z</time>
      </trkpt>
      <trkpt lat="44.42499" lon="5.14524">
        <ele>1208.51</ele>
        <time>2012-08-25T07:04:12Z</time>
      </trkpt>
      <trkpt lat="44.42499" lon="5.14524">
        <ele>1213.32</ele>
        <time>2012-08-25T07:04:13Z</time>
      </trkpt>
      <trkpt lat="44.42499" lon="5.14524">
        <ele>1198.42</ele>
        <time>2012-08-25T07:04:15Z</time>
      </trkpt>
      <trkpt lat="44.42499" lon="5.14524">
        <ele>1209</ele>
        <time>2012-08-25T07:04:16Z</time>
      </trkpt>
      <trkpt lat="44.42499" lon="5.14524">
        <ele>1214.28</ele>
        <time>2012-08-25T07:04:17Z</time>
      </trkpt>
      <trkpt lat="44.42499" lon="5.14524">
        <ele>1207.55</ele>
        <time>2012-08-25T07:04:18Z</time>
      </trkpt>
      <trkpt lat="44.425" lon="5.14524">
        <ele>1203.71</ele>
        <time>2012-08-25T07:04:27Z</time>
      </trkpt>
      <trkpt lat="44.425" lon="5.14524">
        <ele>1209</ele>
        <time>2012-08-25T07:04:28Z</time>
      </trkpt>
      <trkpt lat="44.425" lon="5.14524">
        <ele>1211.88</ele>
        <time>2012-08-25T07:04:31Z</time>
      </trkpt>
      <trkpt lat="44.425" lon="5.14524">
        <ele>1208.51</ele>
        <time>2012-08-25T07:04:32Z</time>
      </trkpt>
      <trkpt lat="44.42501" lon="5.14519">
        <ele>1208.03</ele>
        <time>2012-08-25T07:04:36Z</time>
      </trkpt>
      <trkpt lat="44.425" lon="5.14513">
        <ele>1206.59</ele>
        <time>2012-08-25T07:04:40Z</time>
      </trkpt>
      <trkpt lat="44.42499" lon="5.14506">
        <ele>1206.59</ele>
        <time>2012-08-25T07:04:45Z</time>
      </trkpt>
      <trkpt lat="44.42498" lon="5.14493">
        <ele>1206.11</ele>
        <time>2012-08-25T07:04:53Z</time>
      </trkpt>
      <trkpt lat="44.42497" lon="5.14482">
        <ele>1204.19</ele>
        <time>2012-08-25T07:04:59Z</time>
      </trkpt>
      <trkpt lat="44.42498" lon="5.1448">
        <ele>1200.82</ele>
        <time>2012-08-25T07:05:01Z</time>
      </trkpt>
      <trkpt lat="44.42498" lon="5.14479">
        <ele>1205.15</ele>
        <time>2012-08-25T07:05:02Z</time>
      </trkpt>
      <trkpt lat="44.42498" lon="5.14479">
        <ele>1204.67</ele>
        <time>2012-08-25T07:05:07Z</time>
      </trkpt>
      <trkpt lat="44.42499" lon="5.14476">
        <ele>1203.23</ele>
        <time>2012-08-25T07:05:09Z</time>
      </trkpt>
      <trkpt lat="44.425" lon="5.14462">
        <ele>1201.79</ele>
        <time>2012-08-25T07:05:15Z</time>
      </trkpt>
      <trkpt lat="44.425" lon="5.14448">
        <ele>1199.38</ele>
        <time>2012-08-25T07:05:21Z</time>
      </trkpt>
      <trkpt lat="44.42502" lon="5.14442">
        <ele>1197.94</ele>
        <time>2012-08-25T07:05:24Z</time>
      </trkpt>
      <trkpt lat="44.42506" lon="5.14435">
        <ele>1196.5</ele>
        <time>2012-08-25T07:05:28Z</time>
      </trkpt>
      <trkpt lat="44.42507" lon="5.14426">
        <ele>1194.58</ele>
        <time>2012-08-25T07:05:32Z</time>
      </trkpt>
      <trkpt lat="44.42509" lon="5.14407">
        <ele>1190.25</ele>
        <time>2012-08-25T07:05:39Z</time>
      </trkpt>
      <trkpt lat="44.42511" lon="5.14399">
        <ele>1188.81</ele>
        <time>2012-08-25T07:05:42Z</time>
      </trkpt>
      <trkpt lat="44.42518" lon="5.14369">
        <ele>1184.48</ele>
        <time>2012-08-25T07:05:51Z</time>
      </trkpt>
      <trkpt lat="44.42519" lon="5.14349">
        <ele>1184</ele>
        <time>2012-08-25T07:05:57Z</time>
      </trkpt>
      <trkpt lat="44.42514" lon="5.14344">
        <ele>1180.16</ele>
        <time>2012-08-25T07:06:03Z</time>
      </trkpt>
      <trkpt lat="44.42511" lon="5.14345">
        <ele>1183.52</ele>
        <time>2012-08-25T07:06:07Z</time>
      </trkpt>
      <trkpt lat="44.4251" lon="5.14346">
        <ele>1179.67</ele>
        <time>2012-08-25T07:06:09Z</time>
      </trkpt>
      <trkpt lat="44.4251" lon="5.14347">
        <ele>1181.12</ele>
        <time>2012-08-25T07:06:10Z</time>
      </trkpt>
      <trkpt lat="44.42507" lon="5.14352">
        <ele>1181.6</ele>
        <time>2012-08-25T07:06:13Z</time>
      </trkpt>
      <trkpt lat="44.42492" lon="5.14386">
        <ele>1184.96</ele>
        <time>2012-08-25T07:06:29Z</time>
      </trkpt>
      <trkpt lat="44.42488" lon="5.14392">
        <ele>1184</ele>
        <time>2012-08-25T07:06:35Z</time>
      </trkpt>
      <trkpt lat="44.42485" lon="5.14392">
        <ele>1182.08</ele>
        <time>2012-08-25T07:06:38Z</time>
      </trkpt>
      <trkpt lat="44.42478" lon="5.14401">
        <ele>1178.23</ele>
        <time>2012-08-25T07:06:43Z</time>
      </trkpt>
      <trkpt lat="44.42476" lon="5.14409">
        <ele>1183.52</ele>
        <time>2012-08-25T07:06:46Z</time>
      </trkpt>
      <trkpt lat="44.42474" lon="5.14417">
        <ele>1182.56</ele>
        <time>2012-08-25T07:06:50Z</time>
      </trkpt>
      <trkpt lat="44.42472" lon="5.14421">
        <ele>1185.92</ele>
        <time>2012-08-25T07:06:54Z</time>
      </trkpt>
      <trkpt lat="44.42472" lon="5.14422">
        <ele>1182.08</ele>
        <time>2012-08-25T07:06:55Z</time>
      </trkpt>
      <trkpt lat="44.42472" lon="5.14423">
        <ele>1185.92</ele>
        <time>2012-08-25T07:06:56Z</time>
      </trkpt>
      <trkpt lat="44.42472" lon="5.14425">
        <ele>1184</ele>
        <time>2012-08-25T07:06:57Z</time>
      </trkpt>
      <trkpt lat="44.42475" lon="5.14432">
        <ele>1188.33</ele>
        <time>2012-08-25T07:07:05Z</time>
      </trkpt>
      <trkpt lat="44.42471" lon="5.14435">
        <ele>1187.85</ele>
        <time>2012-08-25T07:07:09Z</time>
      </trkpt>
      <trkpt lat="44.42469" lon="5.14434">
        <ele>1187.37</ele>
        <time>2012-08-25T07:07:11Z</time>
      </trkpt>
      <trkpt lat="44.42466" lon="5.14432">
        <ele>1186.88</ele>
        <time>2012-08-25T07:07:13Z</time>
      </trkpt>
      <trkpt lat="44.42459" lon="5.14433">
        <ele>1183.52</ele>
        <time>2012-08-25T07:07:17Z</time>
      </trkpt>
      <trkpt lat="44.42453" lon="5.14434">
        <ele>1182.08</ele>
        <time>2012-08-25T07:07:21Z</time>
      </trkpt>
      <trkpt lat="44.42448" lon="5.14434">
        <ele>1178.71</ele>
        <time>2012-08-25T07:07:23Z</time>
      </trkpt>
      <trkpt lat="44.4244" lon="5.14435">
        <ele>1177.27</ele>
        <time>2012-08-25T07:07:26Z</time>
      </trkpt>
      <trkpt lat="44.4243" lon="5.14437">
        <ele>1175.83</ele>
        <time>2012-08-25T07:07:31Z</time>
      </trkpt>
      <trkpt lat="44.4242" lon="5.14437">
        <ele>1172.47</ele>
        <time>2012-08-25T07:07:37Z</time>
      </trkpt>
      <trkpt lat="44.42413" lon="5.14437">
        <ele>1171.5</ele>
        <time>2012-08-25T07:07:41Z</time>
      </trkpt>
      <trkpt lat="44.42401" lon="5.14439">
        <ele>1167.66</ele>
        <time>2012-08-25T07:07:47Z</time>
      </trkpt>
      <trkpt lat="44.4238" lon="5.14452">
        <ele>1162.85</ele>
        <time>2012-08-25T07:07:58Z</time>
      </trkpt>
      <trkpt lat="44.42371" lon="5.14458">
        <ele>1163.33</ele>
        <time>2012-08-25T07:08:02Z</time>
      </trkpt>
      <trkpt lat="44.42358" lon="5.14466">
        <ele>1159.49</ele>
        <time>2012-08-25T07:08:09Z</time>
      </trkpt>
      <trkpt lat="44.42353" lon="5.14467">
        <ele>1162.85</ele>
        <time>2012-08-25T07:08:11Z</time>
      </trkpt>
      <trkpt lat="44.42343" lon="5.14465">
        <ele>1159.01</ele>
        <time>2012-08-25T07:08:16Z</time>
      </trkpt>
      <trkpt lat="44.42325" lon="5.14463">
        <ele>1156.12</ele>
        <time>2012-08-25T07:08:23Z</time>
      </trkpt>
      <trkpt lat="44.42321" lon="5.14465">
        <ele>1154.68</ele>
        <time>2012-08-25T07:08:25Z</time>
      </trkpt>
      <trkpt lat="44.4231" lon="5.14472">
        <ele>1151.32</ele>
        <time>2012-08-25T07:08:32Z</time>
      </trkpt>
      <trkpt lat="44.42302" lon="5.14475">
        <ele>1147.95</ele>
        <time>2012-08-25T07:08:36Z</time>
      </trkpt>
      <trkpt lat="44.42287" lon="5.14473">
        <ele>1146.03</ele>
        <time>2012-08-25T07:08:43Z</time>
      </trkpt>
      <trkpt lat="44.4228" lon="5.14473">
        <ele>1142.66</ele>
        <time>2012-08-25T07:08:46Z</time>
      </trkpt>
      <trkpt lat="44.42277" lon="5.14473">
        <ele>1143.63</ele>
        <time>2012-08-25T07:08:47Z</time>
      </trkpt>
      <trkpt lat="44.42262" lon="5.14477">
        <ele>1140.26</ele>
        <time>2012-08-25T07:08:54Z</time>
      </trkpt>
      <trkpt lat="44.42252" lon="5.14481">
        <ele>1137.38</ele>
        <time>2012-08-25T07:08:58Z</time>
      </trkpt>
      <trkpt lat="44.42239" lon="5.14488">
        <ele>1135.94</ele>
        <time>2012-08-25T07:09:03Z</time>
      </trkpt>
      <trkpt lat="44.4223" lon="5.14486">
        <ele>1133.05</ele>
        <time>2012-08-25T07:09:07Z</time>
      </trkpt>
      <trkpt lat="44.4222" lon="5.1448">
        <ele>1128.73</ele>
        <time>2012-08-25T07:09:12Z</time>
      </trkpt>
      <trkpt lat="44.42212" lon="5.14483">
        <ele>1129.21</ele>
        <time>2012-08-25T07:09:15Z</time>
      </trkpt>
      <trkpt lat="44.42207" lon="5.14486">
        <ele>1125.36</ele>
        <time>2012-08-25T07:09:17Z</time>
      </trkpt>
      <trkpt lat="44.42205" lon="5.14487">
        <ele>1125.84</ele>
        <time>2012-08-25T07:09:18Z</time>
      </trkpt>
      <trkpt lat="44.4219" lon="5.1449">
        <ele>1122.48</ele>
        <time>2012-08-25T07:09:24Z</time>
      </trkpt>
      <trkpt lat="44.42188" lon="5.14491">
        <ele>1122.96</ele>
        <time>2012-08-25T07:09:25Z</time>
      </trkpt>
      <trkpt lat="44.42163" lon="5.145">
        <ele>1119.59</ele>
        <time>2012-08-25T07:09:36Z</time>
      </trkpt>
      <trkpt lat="44.42158" lon="5.145">
        <ele>1118.63</ele>
        <time>2012-08-25T07:09:38Z</time>
      </trkpt>
      <trkpt lat="44.42145" lon="5.145">
        <ele>1114.79</ele>
        <time>2012-08-25T07:09:43Z</time>
      </trkpt>
      <trkpt lat="44.42143" lon="5.145">
        <ele>1115.27</ele>
        <time>2012-08-25T07:09:44Z</time>
      </trkpt>
      <trkpt lat="44.42136" lon="5.14501">
        <ele>1113.34</ele>
        <time>2012-08-25T07:09:47Z</time>
      </trkpt>
      <trkpt lat="44.42127" lon="5.14501">
        <ele>1111.42</ele>
        <time>2012-08-25T07:09:50Z</time>
      </trkpt>
      <trkpt lat="44.42119" lon="5.14502">
        <ele>1108.54</ele>
        <time>2012-08-25T07:09:53Z</time>
      </trkpt>
      <trkpt lat="44.42111" lon="5.145">
        <ele>1105.65</ele>
        <time>2012-08-25T07:09:57Z</time>
      </trkpt>
      <trkpt lat="44.42099" lon="5.14499">
        <ele>1101.81</ele>
        <time>2012-08-25T07:10:03Z</time>
      </trkpt>
      <trkpt lat="44.42097" lon="5.145">
        <ele>1101.81</ele>
        <time>2012-08-25T07:10:04Z</time>
      </trkpt>
      <trkpt lat="44.42089" lon="5.14499">
        <ele>1098.44</ele>
        <time>2012-08-25T07:10:08Z</time>
      </trkpt>
      <trkpt lat="44.42074" lon="5.14499">
        <ele>1095.08</ele>
        <time>2012-08-25T07:10:15Z</time>
      </trkpt>
      <trkpt lat="44.42061" lon="5.14498">
        <ele>1090.27</ele>
        <time>2012-08-25T07:10:21Z</time>
      </trkpt>
      <trkpt lat="44.42058" lon="5.14498">
        <ele>1090.75</ele>
        <time>2012-08-25T07:10:22Z</time>
      </trkpt>
      <trkpt lat="44.42054" lon="5.14499">
        <ele>1088.83</ele>
        <time>2012-08-25T07:10:24Z</time>
      </trkpt>
      <trkpt lat="44.42037" lon="5.14493">
        <ele>1084.5</ele>
        <time>2012-08-25T07:10:31Z</time>
      </trkpt>
      <trkpt lat="44.42034" lon="5.14492">
        <ele>1084.5</ele>
        <time>2012-08-25T07:10:32Z</time>
      </trkpt>
      <trkpt lat="44.42023" lon="5.14491">
        <ele>1084.02</ele>
        <time>2012-08-25T07:10:36Z</time>
      </trkpt>
      <trkpt lat="44.42011" lon="5.14492">
        <ele>1080.66</ele>
        <time>2012-08-25T07:10:41Z</time>
      </trkpt>
      <trkpt lat="44.41989" lon="5.145">
        <ele>1075.37</ele>
        <time>2012-08-25T07:10:50Z</time>
      </trkpt>
      <trkpt lat="44.41982" lon="5.14501">
        <ele>1070.57</ele>
        <time>2012-08-25T07:10:53Z</time>
      </trkpt>
      <trkpt lat="44.41979" lon="5.145">
        <ele>1076.81</ele>
        <time>2012-08-25T07:10:54Z</time>
      </trkpt>
      <trkpt lat="44.41974" lon="5.14502">
        <ele>1072.97</ele>
        <time>2012-08-25T07:10:56Z</time>
      </trkpt>
      <trkpt lat="44.41972" lon="5.14502">
        <ele>1073.45</ele>
        <time>2012-08-25T07:10:57Z</time>
      </trkpt>
      <trkpt lat="44.41967" lon="5.14503">
        <ele>1069.6</ele>
        <time>2012-08-25T07:10:59Z</time>
      </trkpt>
      <trkpt lat="44.41963" lon="5.14506">
        <ele>1069.12</ele>
        <time>2012-08-25T07:11:01Z</time>
      </trkpt>
      <trkpt lat="44.41957" lon="5.14509">
        <ele>1067.68</ele>
        <time>2012-08-25T07:11:04Z</time>
      </trkpt>
      <trkpt lat="44.41951" lon="5.14511">
        <ele>1064.32</ele>
        <time>2012-08-25T07:11:07Z</time>
      </trkpt>
      <trkpt lat="44.41949" lon="5.14511">
        <ele>1065.28</ele>
        <time>2012-08-25T07:11:08Z</time>
      </trkpt>
      <trkpt lat="44.41938" lon="5.14512">
        <ele>1062.87</ele>
        <time>2012-08-25T07:11:12Z</time>
      </trkpt>
      <trkpt lat="44.41933" lon="5.14513">
        <ele>1059.51</ele>
        <time>2012-08-25T07:11:14Z</time>
      </trkpt>
      <trkpt lat="44.41924" lon="5.14519">
        <ele>1057.59</ele>
        <time>2012-08-25T07:11:19Z</time>
      </trkpt>
      <trkpt lat="44.41918" lon="5.14525">
        <ele>1055.67</ele>
        <time>2012-08-25T07:11:22Z</time>
      </trkpt>
      <trkpt lat="44.41916" lon="5.14526">
        <ele>1052.78</ele>
        <time>2012-08-25T07:11:23Z</time>
      </trkpt>
      <trkpt lat="44.41914" lon="5.14528">
        <ele>1053.26</ele>
        <time>2012-08-25T07:11:24Z</time>
      </trkpt>
      <trkpt lat="44.41904" lon="5.14535">
        <ele>1049.9</ele>
        <time>2012-08-25T07:11:29Z</time>
      </trkpt>
      <trkpt lat="44.419" lon="5.14537">
        <ele>1048.94</ele>
        <time>2012-08-25T07:11:31Z</time>
      </trkpt>
      <trkpt lat="44.41888" lon="5.14542">
        <ele>1045.09</ele>
        <time>2012-08-25T07:11:37Z</time>
      </trkpt>
      <trkpt lat="44.41876" lon="5.14549">
        <ele>1040.76</ele>
        <time>2012-08-25T07:11:43Z</time>
      </trkpt>
      <trkpt lat="44.41873" lon="5.14549">
        <ele>1041.73</ele>
        <time>2012-08-25T07:11:44Z</time>
      </trkpt>
      <trkpt lat="44.41861" lon="5.14551">
        <ele>1038.84</ele>
        <time>2012-08-25T07:11:49Z</time>
      </trkpt>
      <trkpt lat="44.41852" lon="5.14553">
        <ele>1036.92</ele>
        <time>2012-08-25T07:11:53Z</time>
      </trkpt>
      <trkpt lat="44.41845" lon="5.14555">
        <ele>1033.55</ele>
        <time>2012-08-25T07:11:56Z</time>
      </trkpt>
      <trkpt lat="44.41843" lon="5.14555">
        <ele>1033.55</ele>
        <time>2012-08-25T07:11:57Z</time>
      </trkpt>
      <trkpt lat="44.41831" lon="5.1456">
        <ele>1030.67</ele>
        <time>2012-08-25T07:12:02Z</time>
      </trkpt>
      <trkpt lat="44.41825" lon="5.14564">
        <ele>1028.27</ele>
        <time>2012-08-25T07:12:05Z</time>
      </trkpt>
      <trkpt lat="44.41811" lon="5.1457">
        <ele>1024.9</ele>
        <time>2012-08-25T07:12:10Z</time>
      </trkpt>
      <trkpt lat="44.41806" lon="5.14571">
        <ele>1024.42</ele>
        <time>2012-08-25T07:12:12Z</time>
      </trkpt>
      <trkpt lat="44.41799" lon="5.14572">
        <ele>1022.5</ele>
        <time>2012-08-25T07:12:15Z</time>
      </trkpt>
      <trkpt lat="44.41784" lon="5.14578">
        <ele>1018.17</ele>
        <time>2012-08-25T07:12:22Z</time>
      </trkpt>
      <trkpt lat="44.41764" lon="5.14587">
        <ele>1014.81</ele>
        <time>2012-08-25T07:12:30Z</time>
      </trkpt>
      <trkpt lat="44.41751" lon="5.14591">
        <ele>1011.44</ele>
        <time>2012-08-25T07:12:35Z</time>
      </trkpt>
      <trkpt lat="44.4173" lon="5.146">
        <ele>1007.6</ele>
        <time>2012-08-25T07:12:44Z</time>
      </trkpt>
      <trkpt lat="44.41727" lon="5.14601">
        <ele>1008.08</ele>
        <time>2012-08-25T07:12:45Z</time>
      </trkpt>
      <trkpt lat="44.41721" lon="5.14602">
        <ele>1006.64</ele>
        <time>2012-08-25T07:12:48Z</time>
      </trkpt>
      <trkpt lat="44.41715" lon="5.14601">
        <ele>1004.23</ele>
        <time>2012-08-25T07:12:51Z</time>
      </trkpt>
      <trkpt lat="44.4171" lon="5.14596">
        <ele>1002.79</ele>
        <time>2012-08-25T07:12:54Z</time>
      </trkpt>
      <trkpt lat="44.41706" lon="5.14594">
        <ele>1000.39</ele>
        <time>2012-08-25T07:12:56Z</time>
      </trkpt>
      <trkpt lat="44.41695" lon="5.14594">
        <ele>996.06</ele>
        <time>2012-08-25T07:13:02Z</time>
      </trkpt>
      <trkpt lat="44.41688" lon="5.14598">
        <ele>992.22</ele>
        <time>2012-08-25T07:13:11Z</time>
      </trkpt>
      <trkpt lat="44.41688" lon="5.14598">
        <ele>996.06</ele>
        <time>2012-08-25T07:13:12Z</time>
      </trkpt>
      <trkpt lat="44.41688" lon="5.14598">
        <ele>993.18</ele>
        <time>2012-08-25T07:13:18Z</time>
      </trkpt>
      <trkpt lat="44.41688" lon="5.14598">
        <ele>996.54</ele>
        <time>2012-08-25T07:13:20Z</time>
      </trkpt>
      <trkpt lat="44.41688" lon="5.14598">
        <ele>993.18</ele>
        <time>2012-08-25T07:13:44Z</time>
      </trkpt>
      <trkpt lat="44.41688" lon="5.14598">
        <ele>994.62</ele>
        <time>2012-08-25T07:14:13Z</time>
      </trkpt>
      <trkpt lat="44.41688" lon="5.14601">
        <ele>995.1</ele>
        <time>2012-08-25T07:14:16Z</time>
      </trkpt>
      <trkpt lat="44.41686" lon="5.14608">
        <ele>994.14</ele>
        <time>2012-08-25T07:14:22Z</time>
      </trkpt>
      <trkpt lat="44.41684" lon="5.14617">
        <ele>989.33</ele>
        <time>2012-08-25T07:14:27Z</time>
      </trkpt>
      <trkpt lat="44.41684" lon="5.1462">
        <ele>988.37</ele>
        <time>2012-08-25T07:14:29Z</time>
      </trkpt>
      <trkpt lat="44.41684" lon="5.14626">
        <ele>986.45</ele>
        <time>2012-08-25T07:14:34Z</time>
      </trkpt>
      <trkpt lat="44.41682" lon="5.14626">
        <ele>986.45</ele>
        <time>2012-08-25T07:14:36Z</time>
      </trkpt>
      <trkpt lat="44.41677" lon="5.14626">
        <ele>984.53</ele>
        <time>2012-08-25T07:14:40Z</time>
      </trkpt>
      <trkpt lat="44.41679" lon="5.14632">
        <ele>982.12</ele>
        <time>2012-08-25T07:14:43Z</time>
      </trkpt>
      <trkpt lat="44.41678" lon="5.14636">
        <ele>981.16</ele>
        <time>2012-08-25T07:14:47Z</time>
      </trkpt>
      <trkpt lat="44.41673" lon="5.14638">
        <ele>978.76</ele>
        <time>2012-08-25T07:14:51Z</time>
      </trkpt>
      <trkpt lat="44.41671" lon="5.14637">
        <ele>977.8</ele>
        <time>2012-08-25T07:14:54Z</time>
      </trkpt>
      <trkpt lat="44.41662" lon="5.14639">
        <ele>972.03</ele>
        <time>2012-08-25T07:15:02Z</time>
      </trkpt>
      <trkpt lat="44.41661" lon="5.14639">
        <ele>973.47</ele>
        <time>2012-08-25T07:15:03Z</time>
      </trkpt>
      <trkpt lat="44.41658" lon="5.14639">
        <ele>971.55</ele>
        <time>2012-08-25T07:15:05Z</time>
      </trkpt>
      <trkpt lat="44.4165" lon="5.14644">
        <ele>968.67</ele>
        <time>2012-08-25T07:15:10Z</time>
      </trkpt>
      <trkpt lat="44.41655" lon="5.14652">
        <ele>968.67</ele>
        <time>2012-08-25T07:15:15Z</time>
      </trkpt>
      <trkpt lat="44.41657" lon="5.14653">
        <ele>965.3</ele>
        <time>2012-08-25T07:15:16Z</time>
      </trkpt>
      <trkpt lat="44.41661" lon="5.14658">
        <ele>962.42</ele>
        <time>2012-08-25T07:15:21Z</time>
      </trkpt>
      <trkpt lat="44.41665" lon="5.14663">
        <ele>962.42</ele>
        <time>2012-08-25T07:15:24Z</time>
      </trkpt>
      <trkpt lat="44.41669" lon="5.14663">
        <ele>960.98</ele>
        <time>2012-08-25T07:15:27Z</time>
      </trkpt>
      <trkpt lat="44.41669" lon="5.14669">
        <ele>957.61</ele>
        <time>2012-08-25T07:15:32Z</time>
      </trkpt>
      <trkpt lat="44.41672" lon="5.14672">
        <ele>957.13</ele>
        <time>2012-08-25T07:15:34Z</time>
      </trkpt>
      <trkpt lat="44.41677" lon="5.14676">
        <ele>953.77</ele>
        <time>2012-08-25T07:15:38Z</time>
      </trkpt>
      <trkpt lat="44.41677" lon="5.1468">
        <ele>954.73</ele>
        <time>2012-08-25T07:15:40Z</time>
      </trkpt>
      <trkpt lat="44.41672" lon="5.14688">
        <ele>949.92</ele>
        <time>2012-08-25T07:15:45Z</time>
      </trkpt>
      <trkpt lat="44.41672" lon="5.1469">
        <ele>949.92</ele>
        <time>2012-08-25T07:15:46Z</time>
      </trkpt>
      <trkpt lat="44.41673" lon="5.14691">
        <ele>949.92</ele>
        <time>2012-08-25T07:15:47Z</time>
      </trkpt>
      <trkpt lat="44.41683" lon="5.14698">
        <ele>944.63</ele>
        <time>2012-08-25T07:15:54Z</time>
      </trkpt>
      <trkpt lat="44.41685" lon="5.14704">
        <ele>941.75</ele>
        <time>2012-08-25T07:15:59Z</time>
      </trkpt>
      <trkpt lat="44.41679" lon="5.14708">
        <ele>940.79</ele>
        <time>2012-08-25T07:16:03Z</time>
      </trkpt>
      <trkpt lat="44.41683" lon="5.14713">
        <ele>937.42</ele>
        <time>2012-08-25T07:16:07Z</time>
      </trkpt>
      <trkpt lat="44.41686" lon="5.14714">
        <ele>935.02</ele>
        <time>2012-08-25T07:16:13Z</time>
      </trkpt>
      <trkpt lat="44.41693" lon="5.1472">
        <ele>933.58</ele>
        <time>2012-08-25T07:16:18Z</time>
      </trkpt>
      <trkpt lat="44.41701" lon="5.14727">
        <ele>929.25</ele>
        <time>2012-08-25T07:16:22Z</time>
      </trkpt>
      <trkpt lat="44.41703" lon="5.14728">
        <ele>931.17</ele>
        <time>2012-08-25T07:16:23Z</time>
      </trkpt>
      <trkpt lat="44.41709" lon="5.1473">
        <ele>928.77</ele>
        <time>2012-08-25T07:16:26Z</time>
      </trkpt>
      <trkpt lat="44.41712" lon="5.14733">
        <ele>927.33</ele>
        <time>2012-08-25T07:16:29Z</time>
      </trkpt>
      <trkpt lat="44.41698" lon="5.14738">
        <ele>920.6</ele>
        <time>2012-08-25T07:16:36Z</time>
      </trkpt>
      <trkpt lat="44.41697" lon="5.14739">
        <ele>922.52</ele>
        <time>2012-08-25T07:16:37Z</time>
      </trkpt>
      <trkpt lat="44.41696" lon="5.1474">
        <ele>920.6</ele>
        <time>2012-08-25T07:16:38Z</time>
      </trkpt>
      <trkpt lat="44.41698" lon="5.14749">
        <ele>918.68</ele>
        <time>2012-08-25T07:16:42Z</time>
      </trkpt>
      <trkpt lat="44.417" lon="5.14752">
        <ele>919.16</ele>
        <time>2012-08-25T07:16:44Z</time>
      </trkpt>
      <trkpt lat="44.41705" lon="5.14757">
        <ele>916.75</ele>
        <time>2012-08-25T07:16:47Z</time>
      </trkpt>
      <trkpt lat="44.41714" lon="5.1476">
        <ele>913.39</ele>
        <time>2012-08-25T07:16:52Z</time>
      </trkpt>
      <trkpt lat="44.41727" lon="5.14769">
        <ele>909.54</ele>
        <time>2012-08-25T07:17:00Z</time>
      </trkpt>
      <trkpt lat="44.4173" lon="5.14772">
        <ele>908.58</ele>
        <time>2012-08-25T07:17:02Z</time>
      </trkpt>
      <trkpt lat="44.41736" lon="5.14778">
        <ele>905.7</ele>
        <time>2012-08-25T07:17:06Z</time>
      </trkpt>
      <trkpt lat="44.4174" lon="5.1478">
        <ele>905.22</ele>
        <time>2012-08-25T07:17:08Z</time>
      </trkpt>
      <trkpt lat="44.4175" lon="5.14787">
        <ele>902.33</ele>
        <time>2012-08-25T07:17:14Z</time>
      </trkpt>
      <trkpt lat="44.41752" lon="5.14788">
        <ele>901.85</ele>
        <time>2012-08-25T07:17:15Z</time>
      </trkpt>
      <trkpt lat="44.4177" lon="5.14797">
        <ele>898.01</ele>
        <time>2012-08-25T07:17:23Z</time>
      </trkpt>
      <trkpt lat="44.41772" lon="5.14798">
        <ele>898.01</ele>
        <time>2012-08-25T07:17:24Z</time>
      </trkpt>
      <trkpt lat="44.41781" lon="5.14805">
        <ele>894.16</ele>
        <time>2012-08-25T07:17:29Z</time>
      </trkpt>
      <trkpt lat="44.41783" lon="5.14806">
        <ele>893.68</ele>
        <time>2012-08-25T07:17:30Z</time>
      </trkpt>
      <trkpt lat="44.41787" lon="5.14809">
        <ele>892.72</ele>
        <time>2012-08-25T07:17:32Z</time>
      </trkpt>
      <trkpt lat="44.41801" lon="5.14816">
        <ele>889.84</ele>
        <time>2012-08-25T07:17:38Z</time>
      </trkpt>
      <trkpt lat="44.41814" lon="5.14823">
        <ele>885.51</ele>
        <time>2012-08-25T07:17:44Z</time>
      </trkpt>
      <trkpt lat="44.41815" lon="5.14825">
        <ele>887.43</ele>
        <time>2012-08-25T07:17:45Z</time>
      </trkpt>
      <trkpt lat="44.41819" lon="5.14827">
        <ele>884.07</ele>
        <time>2012-08-25T07:17:47Z</time>
      </trkpt>
      <trkpt lat="44.4183" lon="5.14839">
        <ele>882.63</ele>
        <time>2012-08-25T07:17:54Z</time>
      </trkpt>
      <trkpt lat="44.41834" lon="5.14843">
        <ele>881.67</ele>
        <time>2012-08-25T07:17:56Z</time>
      </trkpt>
      <trkpt lat="44.41838" lon="5.14857">
        <ele>877.82</ele>
        <time>2012-08-25T07:18:01Z</time>
      </trkpt>
      <trkpt lat="44.4184" lon="5.14861">
        <ele>877.82</ele>
        <time>2012-08-25T07:18:02Z</time>
      </trkpt>
      <trkpt lat="44.41847" lon="5.14874">
        <ele>874.46</ele>
        <time>2012-08-25T07:18:07Z</time>
      </trkpt>
      <trkpt lat="44.41848" lon="5.14881">
        <ele>872.05</ele>
        <time>2012-08-25T07:18:09Z</time>
      </trkpt>
      <trkpt lat="44.41851" lon="5.14888">
        <ele>870.13</ele>
        <time>2012-08-25T07:18:11Z</time>
      </trkpt>
      <trkpt lat="44.41866" lon="5.14896">
        <ele>868.69</ele>
        <time>2012-08-25T07:18:17Z</time>
      </trkpt>
      <trkpt lat="44.41872" lon="5.14899">
        <ele>866.77</ele>
        <time>2012-08-25T07:18:19Z</time>
      </trkpt>
      <trkpt lat="44.41885" lon="5.14911">
        <ele>862.92</ele>
        <time>2012-08-25T07:18:24Z</time>
      </trkpt>
      <trkpt lat="44.41887" lon="5.14914">
        <ele>862.92</ele>
        <time>2012-08-25T07:18:25Z</time>
      </trkpt>
      <trkpt lat="44.41895" lon="5.14923">
        <ele>861</ele>
        <time>2012-08-25T07:18:28Z</time>
      </trkpt>
      <trkpt lat="44.41901" lon="5.1493">
        <ele>858.11</ele>
        <time>2012-08-25T07:18:31Z</time>
      </trkpt>
      <trkpt lat="44.41909" lon="5.14939">
        <ele>854.27</ele>
        <time>2012-08-25T07:18:35Z</time>
      </trkpt>
      <trkpt lat="44.41917" lon="5.1495">
        <ele>851.38</ele>
        <time>2012-08-25T07:18:39Z</time>
      </trkpt>
      <trkpt lat="44.41922" lon="5.14957">
        <ele>849.46</ele>
        <time>2012-08-25T07:18:42Z</time>
      </trkpt>
      <trkpt lat="44.41926" lon="5.14964">
        <ele>846.58</ele>
        <time>2012-08-25T07:18:45Z</time>
      </trkpt>
      <trkpt lat="44.41928" lon="5.1497">
        <ele>845.62</ele>
        <time>2012-08-25T07:18:47Z</time>
      </trkpt>
      <trkpt lat="44.41932" lon="5.14979">
        <ele>841.77</ele>
        <time>2012-08-25T07:18:50Z</time>
      </trkpt>
      <trkpt lat="44.41937" lon="5.14988">
        <ele>838.89</ele>
        <time>2012-08-25T07:18:53Z</time>
      </trkpt>
      <trkpt lat="44.41944" lon="5.15">
        <ele>835.52</ele>
        <time>2012-08-25T07:18:57Z</time>
      </trkpt>
      <trkpt lat="44.41946" lon="5.15002">
        <ele>836.48</ele>
        <time>2012-08-25T07:18:58Z</time>
      </trkpt>
      <trkpt lat="44.4196" lon="5.15013">
        <ele>833.12</ele>
        <time>2012-08-25T07:19:03Z</time>
      </trkpt>
      <trkpt lat="44.41973" lon="5.15026">
        <ele>829.76</ele>
        <time>2012-08-25T07:19:09Z</time>
      </trkpt>
      <trkpt lat="44.41978" lon="5.15034">
        <ele>828.31</ele>
        <time>2012-08-25T07:19:12Z</time>
      </trkpt>
      <trkpt lat="44.41981" lon="5.15041">
        <ele>826.87</ele>
        <time>2012-08-25T07:19:14Z</time>
      </trkpt>
      <trkpt lat="44.41985" lon="5.15047">
        <ele>824.47</ele>
        <time>2012-08-25T07:19:16Z</time>
      </trkpt>
      <trkpt lat="44.41989" lon="5.15051">
        <ele>822.55</ele>
        <time>2012-08-25T07:19:18Z</time>
      </trkpt>
      <trkpt lat="44.41998" lon="5.15063">
        <ele>820.14</ele>
        <time>2012-08-25T07:19:23Z</time>
      </trkpt>
      <trkpt lat="44.4201" lon="5.15075">
        <ele>815.82</ele>
        <time>2012-08-25T07:19:28Z</time>
      </trkpt>
      <trkpt lat="44.42027" lon="5.15098">
        <ele>811.49</ele>
        <time>2012-08-25T07:19:36Z</time>
      </trkpt>
      <trkpt lat="44.42033" lon="5.15105">
        <ele>809.09</ele>
        <time>2012-08-25T07:19:39Z</time>
      </trkpt>
      <trkpt lat="44.42043" lon="5.15124">
        <ele>805.72</ele>
        <time>2012-08-25T07:19:45Z</time>
      </trkpt>
      <trkpt lat="44.42044" lon="5.15128">
        <ele>806.2</ele>
        <time>2012-08-25T07:19:46Z</time>
      </trkpt>
      <trkpt lat="44.42055" lon="5.15147">
        <ele>800.44</ele>
        <time>2012-08-25T07:19:52Z</time>
      </trkpt>
      <trkpt lat="44.42056" lon="5.1515">
        <ele>801.4</ele>
        <time>2012-08-25T07:19:53Z</time>
      </trkpt>
      <trkpt lat="44.4206" lon="5.15175">
        <ele>798.99</ele>
        <time>2012-08-25T07:20:00Z</time>
      </trkpt>
      <trkpt lat="44.42059" lon="5.15181">
        <ele>797.55</ele>
        <time>2012-08-25T07:20:02Z</time>
      </trkpt>
      <trkpt lat="44.42058" lon="5.15189">
        <ele>795.63</ele>
        <time>2012-08-25T07:20:04Z</time>
      </trkpt>
      <trkpt lat="44.42063" lon="5.15211">
        <ele>791.78</ele>
        <time>2012-08-25T07:20:10Z</time>
      </trkpt>
      <trkpt lat="44.42066" lon="5.15225">
        <ele>790.34</ele>
        <time>2012-08-25T07:20:14Z</time>
      </trkpt>
      <trkpt lat="44.42065" lon="5.15237">
        <ele>789.86</ele>
        <time>2012-08-25T07:20:17Z</time>
      </trkpt>
      <trkpt lat="44.42059" lon="5.15246">
        <ele>786.98</ele>
        <time>2012-08-25T07:20:20Z</time>
      </trkpt>
      <trkpt lat="44.42054" lon="5.15252">
        <ele>785.53</ele>
        <time>2012-08-25T07:20:22Z</time>
      </trkpt>
      <trkpt lat="44.42046" lon="5.1526">
        <ele>781.21</ele>
        <time>2012-08-25T07:20:25Z</time>
      </trkpt>
      <trkpt lat="44.42044" lon="5.15262">
        <ele>781.69</ele>
        <time>2012-08-25T07:20:26Z</time>
      </trkpt>
      <trkpt lat="44.42035" lon="5.15268">
        <ele>778.81</ele>
        <time>2012-08-25T07:20:29Z</time>
      </trkpt>
      <trkpt lat="44.42028" lon="5.15275">
        <ele>775.44</ele>
        <time>2012-08-25T07:20:32Z</time>
      </trkpt>
      <trkpt lat="44.42025" lon="5.15277">
        <ele>775.92</ele>
        <time>2012-08-25T07:20:33Z</time>
      </trkpt>
      <trkpt lat="44.42016" lon="5.15286">
        <ele>773.04</ele>
        <time>2012-08-25T07:20:37Z</time>
      </trkpt>
      <trkpt lat="44.42011" lon="5.15297">
        <ele>771.6</ele>
        <time>2012-08-25T07:20:40Z</time>
      </trkpt>
      <trkpt lat="44.42008" lon="5.15303">
        <ele>768.23</ele>
        <time>2012-08-25T07:20:42Z</time>
      </trkpt>
      <trkpt lat="44.42003" lon="5.15307">
        <ele>767.27</ele>
        <time>2012-08-25T07:20:44Z</time>
      </trkpt>
      <trkpt lat="44.41998" lon="5.15311">
        <ele>763.9</ele>
        <time>2012-08-25T07:20:46Z</time>
      </trkpt>
      <trkpt lat="44.41986" lon="5.15317">
        <ele>759.58</ele>
        <time>2012-08-25T07:20:51Z</time>
      </trkpt>
      <trkpt lat="44.41983" lon="5.15318">
        <ele>760.54</ele>
        <time>2012-08-25T07:20:52Z</time>
      </trkpt>
      <trkpt lat="44.41976" lon="5.15327">
        <ele>756.21</ele>
        <time>2012-08-25T07:20:56Z</time>
      </trkpt>
      <trkpt lat="44.41973" lon="5.15329">
        <ele>756.21</ele>
        <time>2012-08-25T07:20:57Z</time>
      </trkpt>
      <trkpt lat="44.41966" lon="5.15334">
        <ele>754.77</ele>
        <time>2012-08-25T07:21:00Z</time>
      </trkpt>
      <trkpt lat="44.4196" lon="5.15337">
        <ele>753.33</ele>
        <time>2012-08-25T07:21:02Z</time>
      </trkpt>
      <trkpt lat="44.41946" lon="5.15337">
        <ele>747.08</ele>
        <time>2012-08-25T07:21:07Z</time>
      </trkpt>
      <trkpt lat="44.41944" lon="5.15336">
        <ele>749.49</ele>
        <time>2012-08-25T07:21:08Z</time>
      </trkpt>
      <trkpt lat="44.41934" lon="5.15331">
        <ele>748.04</ele>
        <time>2012-08-25T07:21:12Z</time>
      </trkpt>
      <trkpt lat="44.41924" lon="5.15338">
        <ele>743.72</ele>
        <time>2012-08-25T07:21:17Z</time>
      </trkpt>
      <trkpt lat="44.41903" lon="5.15342">
        <ele>739.87</ele>
        <time>2012-08-25T07:21:25Z</time>
      </trkpt>
      <trkpt lat="44.41894" lon="5.15347">
        <ele>738.91</ele>
        <time>2012-08-25T07:21:29Z</time>
      </trkpt>
      <trkpt lat="44.41892" lon="5.1535">
        <ele>735.55</ele>
        <time>2012-08-25T07:21:30Z</time>
      </trkpt>
      <trkpt lat="44.4189" lon="5.15352">
        <ele>736.99</ele>
        <time>2012-08-25T07:21:31Z</time>
      </trkpt>
      <trkpt lat="44.41883" lon="5.15358">
        <ele>735.07</ele>
        <time>2012-08-25T07:21:34Z</time>
      </trkpt>
      <trkpt lat="44.41877" lon="5.15362">
        <ele>733.14</ele>
        <time>2012-08-25T07:21:36Z</time>
      </trkpt>
      <trkpt lat="44.41864" lon="5.15363">
        <ele>729.78</ele>
        <time>2012-08-25T07:21:41Z</time>
      </trkpt>
      <trkpt lat="44.41861" lon="5.15365">
        <ele>728.34</ele>
        <time>2012-08-25T07:21:43Z</time>
      </trkpt>
      <trkpt lat="44.41855" lon="5.1537">
        <ele>725.93</ele>
        <time>2012-08-25T07:21:46Z</time>
      </trkpt>
      <trkpt lat="44.4185" lon="5.15372">
        <ele>723.05</ele>
        <time>2012-08-25T07:21:49Z</time>
      </trkpt>
      <trkpt lat="44.41839" lon="5.15378">
        <ele>722.57</ele>
        <time>2012-08-25T07:21:53Z</time>
      </trkpt>
      <trkpt lat="44.41829" lon="5.15389">
        <ele>718.24</ele>
        <time>2012-08-25T07:21:58Z</time>
      </trkpt>
      <trkpt lat="44.41817" lon="5.15399">
        <ele>714.88</ele>
        <time>2012-08-25T07:22:04Z</time>
      </trkpt>
      <trkpt lat="44.41811" lon="5.15403">
        <ele>713.92</ele>
        <time>2012-08-25T07:22:06Z</time>
      </trkpt>
      <trkpt lat="44.41803" lon="5.15408">
        <ele>709.59</ele>
        <time>2012-08-25T07:22:09Z</time>
      </trkpt>
      <trkpt lat="44.41792" lon="5.15411">
        <ele>706.23</ele>
        <time>2012-08-25T07:22:13Z</time>
      </trkpt>
      <trkpt lat="44.41782" lon="5.15416">
        <ele>704.3</ele>
        <time>2012-08-25T07:22:19Z</time>
      </trkpt>
      <trkpt lat="44.41776" lon="5.15418">
        <ele>700.94</ele>
        <time>2012-08-25T07:22:22Z</time>
      </trkpt>
      <trkpt lat="44.41763" lon="5.1542">
        <ele>697.57</ele>
        <time>2012-08-25T07:22:27Z</time>
      </trkpt>
      <trkpt lat="44.41761" lon="5.1542">
        <ele>697.57</ele>
        <time>2012-08-25T07:22:28Z</time>
      </trkpt>
      <trkpt lat="44.41755" lon="5.15422">
        <ele>694.21</ele>
        <time>2012-08-25T07:22:30Z</time>
      </trkpt>
      <trkpt lat="44.41746" lon="5.15428">
        <ele>691.33</ele>
        <time>2012-08-25T07:22:34Z</time>
      </trkpt>
      <trkpt lat="44.41731" lon="5.15442">
        <ele>686.04</ele>
        <time>2012-08-25T07:22:41Z</time>
      </trkpt>
      <trkpt lat="44.41729" lon="5.15444">
        <ele>687</ele>
        <time>2012-08-25T07:22:42Z</time>
      </trkpt>
      <trkpt lat="44.41724" lon="5.15458">
        <ele>683.15</ele>
        <time>2012-08-25T07:22:46Z</time>
      </trkpt>
      <trkpt lat="44.4172" lon="5.15472">
        <ele>679.31</ele>
        <time>2012-08-25T07:22:50Z</time>
      </trkpt>
      <trkpt lat="44.41718" lon="5.15475">
        <ele>679.79</ele>
        <time>2012-08-25T07:22:51Z</time>
      </trkpt>
      <trkpt lat="44.41714" lon="5.15483">
        <ele>677.87</ele>
        <time>2012-08-25T07:22:53Z</time>
      </trkpt>
      <trkpt lat="44.41711" lon="5.15492">
        <ele>676.42</ele>
        <time>2012-08-25T07:22:55Z</time>
      </trkpt>
      <trkpt lat="44.41708" lon="5.15501">
        <ele>674.98</ele>
        <time>2012-08-25T07:22:57Z</time>
      </trkpt>
      <trkpt lat="44.41703" lon="5.15511">
        <ele>671.62</ele>
        <time>2012-08-25T07:23:00Z</time>
      </trkpt>
      <trkpt lat="44.41697" lon="5.15532">
        <ele>667.77</ele>
        <time>2012-08-25T07:23:05Z</time>
      </trkpt>
      <trkpt lat="44.41694" lon="5.15556">
        <ele>663.93</ele>
        <time>2012-08-25T07:23:11Z</time>
      </trkpt>
      <trkpt lat="44.4169" lon="5.15594">
        <ele>659.6</ele>
        <time>2012-08-25T07:23:19Z</time>
      </trkpt>
      <trkpt lat="44.41674" lon="5.15618">
        <ele>654.8</ele>
        <time>2012-08-25T07:23:26Z</time>
      </trkpt>
      <trkpt lat="44.41672" lon="5.15621">
        <ele>653.35</ele>
        <time>2012-08-25T07:23:27Z</time>
      </trkpt>
      <trkpt lat="44.41672" lon="5.15637">
        <ele>651.91</ele>
        <time>2012-08-25T07:23:31Z</time>
      </trkpt>
      <trkpt lat="44.41671" lon="5.15641">
        <ele>651.91</ele>
        <time>2012-08-25T07:23:32Z</time>
      </trkpt>
      <trkpt lat="44.41667" lon="5.15659">
        <ele>649.99</ele>
        <time>2012-08-25T07:23:36Z</time>
      </trkpt>
      <trkpt lat="44.4166" lon="5.15674">
        <ele>647.1</ele>
        <time>2012-08-25T07:23:40Z</time>
      </trkpt>
      <trkpt lat="44.41657" lon="5.1568">
        <ele>645.18</ele>
        <time>2012-08-25T07:23:42Z</time>
      </trkpt>
      <trkpt lat="44.41648" lon="5.15715">
        <ele>640.38</ele>
        <time>2012-08-25T07:23:51Z</time>
      </trkpt>
      <trkpt lat="44.41644" lon="5.15722">
        <ele>639.89</ele>
        <time>2012-08-25T07:23:53Z</time>
      </trkpt>
      <trkpt lat="44.41634" lon="5.15738">
        <ele>636.53</ele>
        <time>2012-08-25T07:23:58Z</time>
      </trkpt>
      <trkpt lat="44.41638" lon="5.15739">
        <ele>637.01</ele>
        <time>2012-08-25T07:24:03Z</time>
      </trkpt>
      <trkpt lat="44.41647" lon="5.15735">
        <ele>634.13</ele>
        <time>2012-08-25T07:24:06Z</time>
      </trkpt>
      <trkpt lat="44.41651" lon="5.15734">
        <ele>633.65</ele>
        <time>2012-08-25T07:24:07Z</time>
      </trkpt>
      <trkpt lat="44.41657" lon="5.15733">
        <ele>632.68</ele>
        <time>2012-08-25T07:24:09Z</time>
      </trkpt>
      <trkpt lat="44.41671" lon="5.15729">
        <ele>628.84</ele>
        <time>2012-08-25T07:24:13Z</time>
      </trkpt>
      <trkpt lat="44.41675" lon="5.15728">
        <ele>630.28</ele>
        <time>2012-08-25T07:24:14Z</time>
      </trkpt>
      <trkpt lat="44.41693" lon="5.15723">
        <ele>627.88</ele>
        <time>2012-08-25T07:24:19Z</time>
      </trkpt>
      <trkpt lat="44.41722" lon="5.15712">
        <ele>626.92</ele>
        <time>2012-08-25T07:24:30Z</time>
      </trkpt>
      <trkpt lat="44.41726" lon="5.15717">
        <ele>624.03</ele>
        <time>2012-08-25T07:24:34Z</time>
      </trkpt>
      <trkpt lat="44.41721" lon="5.1573">
        <ele>623.07</ele>
        <time>2012-08-25T07:24:39Z</time>
      </trkpt>
      <trkpt lat="44.41724" lon="5.15746">
        <ele>621.63</ele>
        <time>2012-08-25T07:24:44Z</time>
      </trkpt>
      <trkpt lat="44.41729" lon="5.15759">
        <ele>617.3</ele>
        <time>2012-08-25T07:24:48Z</time>
      </trkpt>
      <trkpt lat="44.4173" lon="5.15762">
        <ele>618.75</ele>
        <time>2012-08-25T07:24:49Z</time>
      </trkpt>
      <trkpt lat="44.41739" lon="5.15781">
        <ele>614.42</ele>
        <time>2012-08-25T07:24:55Z</time>
      </trkpt>
      <trkpt lat="44.41741" lon="5.15784">
        <ele>614.9</ele>
        <time>2012-08-25T07:24:56Z</time>
      </trkpt>
      <trkpt lat="44.41751" lon="5.15795">
        <ele>612.5</ele>
        <time>2012-08-25T07:25:01Z</time>
      </trkpt>
      <trkpt lat="44.4176" lon="5.15803">
        <ele>610.57</ele>
        <time>2012-08-25T07:25:05Z</time>
      </trkpt>
      <trkpt lat="44.41757" lon="5.15814">
        <ele>610.09</ele>
        <time>2012-08-25T07:25:09Z</time>
      </trkpt>
      <trkpt lat="44.41742" lon="5.15824">
        <ele>607.69</ele>
        <time>2012-08-25T07:25:15Z</time>
      </trkpt>
      <trkpt lat="44.4174" lon="5.15826">
        <ele>607.21</ele>
        <time>2012-08-25T07:25:16Z</time>
      </trkpt>
      <trkpt lat="44.41739" lon="5.15843">
        <ele>606.25</ele>
        <time>2012-08-25T07:25:20Z</time>
      </trkpt>
      <trkpt lat="44.41741" lon="5.15852">
        <ele>602.88</ele>
        <time>2012-08-25T07:25:22Z</time>
      </trkpt>
      <trkpt lat="44.41745" lon="5.15866">
        <ele>602.4</ele>
        <time>2012-08-25T07:25:26Z</time>
      </trkpt>
      <trkpt lat="44.41751" lon="5.15889">
        <ele>599.04</ele>
        <time>2012-08-25T07:25:32Z</time>
      </trkpt>
      <trkpt lat="44.41767" lon="5.15919">
        <ele>597.6</ele>
        <time>2012-08-25T07:25:40Z</time>
      </trkpt>
      <trkpt lat="44.4179" lon="5.15958">
        <ele>597.6</ele>
        <time>2012-08-25T07:25:51Z</time>
      </trkpt>
      <trkpt lat="44.41796" lon="5.15971">
        <ele>595.19</ele>
        <time>2012-08-25T07:25:55Z</time>
      </trkpt>
      <trkpt lat="44.41835" lon="5.15978">
        <ele>593.27</ele>
        <time>2012-08-25T07:26:08Z</time>
      </trkpt>
      <trkpt lat="44.41854" lon="5.15982">
        <ele>592.79</ele>
        <time>2012-08-25T07:26:14Z</time>
      </trkpt>
      <trkpt lat="44.4189" lon="5.15988">
        <ele>591.83</ele>
        <time>2012-08-25T07:26:26Z</time>
      </trkpt>
      <trkpt lat="44.41918" lon="5.16007">
        <ele>590.39</ele>
        <time>2012-08-25T07:26:38Z</time>
      </trkpt>
      <trkpt lat="44.41958" lon="5.16015">
        <ele>591.83</ele>
        <time>2012-08-25T07:26:52Z</time>
      </trkpt>
      <trkpt lat="44.41982" lon="5.16014">
        <ele>593.75</ele>
        <time>2012-08-25T07:27:02Z</time>
      </trkpt>
      <trkpt lat="44.42007" lon="5.1603">
        <ele>594.71</ele>
        <time>2012-08-25T07:27:15Z</time>
      </trkpt>
      <trkpt lat="44.42034" lon="5.16062">
        <ele>597.12</ele>
        <time>2012-08-25T07:27:29Z</time>
      </trkpt>
      <trkpt lat="44.42055" lon="5.16095">
        <ele>598.08</ele>
        <time>2012-08-25T07:27:41Z</time>
      </trkpt>
      <trkpt lat="44.42075" lon="5.1612">
        <ele>595.67</ele>
        <time>2012-08-25T07:27:51Z</time>
      </trkpt>
      <trkpt lat="44.42097" lon="5.16151">
        <ele>593.27</ele>
        <time>2012-08-25T07:28:03Z</time>
      </trkpt>
      <trkpt lat="44.42112" lon="5.16201">
        <ele>589.43</ele>
        <time>2012-08-25T07:28:16Z</time>
      </trkpt>
      <trkpt lat="44.42129" lon="5.16236">
        <ele>587.98</ele>
        <time>2012-08-25T07:28:25Z</time>
      </trkpt>
      <trkpt lat="44.42141" lon="5.16262">
        <ele>585.58</ele>
        <time>2012-08-25T07:28:32Z</time>
      </trkpt>
      <trkpt lat="44.42175" lon="5.163">
        <ele>582.7</ele>
        <time>2012-08-25T07:28:45Z</time>
      </trkpt>
      <trkpt lat="44.42213" lon="5.1632">
        <ele>579.33</ele>
        <time>2012-08-25T07:28:57Z</time>
      </trkpt>
      <trkpt lat="44.42231" lon="5.16327">
        <ele>578.37</ele>
        <time>2012-08-25T07:29:03Z</time>
      </trkpt>
      <trkpt lat="44.42254" lon="5.16329">
        <ele>577.41</ele>
        <time>2012-08-25T07:29:10Z</time>
      </trkpt>
      <trkpt lat="44.42287" lon="5.1635">
        <ele>575.97</ele>
        <time>2012-08-25T07:29:22Z</time>
      </trkpt>
      <trkpt lat="44.42296" lon="5.16356">
        <ele>574.04</ele>
        <time>2012-08-25T07:29:25Z</time>
      </trkpt>
      <trkpt lat="44.42329" lon="5.16348">
        <ele>571.64</ele>
        <time>2012-08-25T07:29:35Z</time>
      </trkpt>
      <trkpt lat="44.42337" lon="5.16348">
        <ele>572.12</ele>
        <time>2012-08-25T07:29:38Z</time>
      </trkpt>
      <trkpt lat="44.42343" lon="5.16353">
        <ele>570.68</ele>
        <time>2012-08-25T07:29:41Z</time>
      </trkpt>
      <trkpt lat="44.42345" lon="5.16375">
        <ele>572.12</ele>
        <time>2012-08-25T07:29:48Z</time>
      </trkpt>
      <trkpt lat="44.42339" lon="5.16418">
        <ele>576.45</ele>
        <time>2012-08-25T07:30:00Z</time>
      </trkpt>
      <trkpt lat="44.42338" lon="5.16434">
        <ele>573.08</ele>
        <time>2012-08-25T07:30:04Z</time>
      </trkpt>
      <trkpt lat="44.42334" lon="5.16455">
        <ele>573.08</ele>
        <time>2012-08-25T07:30:09Z</time>
      </trkpt>
      <trkpt lat="44.42327" lon="5.16475">
        <ele>569.72</ele>
        <time>2012-08-25T07:30:14Z</time>
      </trkpt>
      <trkpt lat="44.42319" lon="5.16497">
        <ele>566.35</ele>
        <time>2012-08-25T07:30:20Z</time>
      </trkpt>
      <trkpt lat="44.42312" lon="5.16523">
        <ele>564.43</ele>
        <time>2012-08-25T07:30:26Z</time>
      </trkpt>
      <trkpt lat="44.42298" lon="5.16552">
        <ele>561.07</ele>
        <time>2012-08-25T07:30:34Z</time>
      </trkpt>
      <trkpt lat="44.42288" lon="5.16569">
        <ele>558.18</ele>
        <time>2012-08-25T07:30:39Z</time>
      </trkpt>
      <trkpt lat="44.42273" lon="5.1659">
        <ele>553.86</ele>
        <time>2012-08-25T07:30:46Z</time>
      </trkpt>
      <trkpt lat="44.42253" lon="5.16615">
        <ele>550.97</ele>
        <time>2012-08-25T07:30:54Z</time>
      </trkpt>
      <trkpt lat="44.42251" lon="5.16618">
        <ele>551.45</ele>
        <time>2012-08-25T07:30:55Z</time>
      </trkpt>
      <trkpt lat="44.42234" lon="5.16637">
        <ele>548.09</ele>
        <time>2012-08-25T07:31:02Z</time>
      </trkpt>
      <trkpt lat="44.42214" lon="5.16661">
        <ele>545.2</ele>
        <time>2012-08-25T07:31:10Z</time>
      </trkpt>
      <trkpt lat="44.422" lon="5.16686">
        <ele>542.8</ele>
        <time>2012-08-25T07:31:17Z</time>
      </trkpt>
      <trkpt lat="44.42177" lon="5.16733">
        <ele>539.44</ele>
        <time>2012-08-25T07:31:30Z</time>
      </trkpt>
      <trkpt lat="44.42167" lon="5.16754">
        <ele>536.07</ele>
        <time>2012-08-25T07:31:36Z</time>
      </trkpt>
      <trkpt lat="44.4217" lon="5.16797">
        <ele>535.11</ele>
        <time>2012-08-25T07:31:46Z</time>
      </trkpt>
      <trkpt lat="44.42171" lon="5.16801">
        <ele>534.15</ele>
        <time>2012-08-25T07:31:47Z</time>
      </trkpt>
      <trkpt lat="44.4217" lon="5.16809">
        <ele>533.67</ele>
        <time>2012-08-25T07:31:49Z</time>
      </trkpt>
      <trkpt lat="44.42135" lon="5.16827">
        <ele>530.79</ele>
        <time>2012-08-25T07:32:02Z</time>
      </trkpt>
      <trkpt lat="44.42121" lon="5.16834">
        <ele>529.82</ele>
        <time>2012-08-25T07:32:07Z</time>
      </trkpt>
      <trkpt lat="44.42106" lon="5.16851">
        <ele>528.86</ele>
        <time>2012-08-25T07:32:13Z</time>
      </trkpt>
      <trkpt lat="44.42091" lon="5.16896">
        <ele>527.42</ele>
        <time>2012-08-25T07:32:24Z</time>
      </trkpt>
      <trkpt lat="44.42077" lon="5.1694">
        <ele>527.9</ele>
        <time>2012-08-25T07:32:36Z</time>
      </trkpt>
      <trkpt lat="44.42073" lon="5.16972">
        <ele>528.86</ele>
        <time>2012-08-25T07:32:46Z</time>
      </trkpt>
      <trkpt lat="44.42066" lon="5.17001">
        <ele>532.23</ele>
        <time>2012-08-25T07:32:57Z</time>
      </trkpt>
      <trkpt lat="44.42065" lon="5.17041">
        <ele>535.11</ele>
        <time>2012-08-25T07:33:12Z</time>
      </trkpt>
      <trkpt lat="44.42058" lon="5.17074">
        <ele>537.51</ele>
        <time>2012-08-25T07:33:26Z</time>
      </trkpt>
      <trkpt lat="44.42052" lon="5.17088">
        <ele>539.92</ele>
        <time>2012-08-25T07:33:33Z</time>
      </trkpt>
      <trkpt lat="44.42048" lon="5.17093">
        <ele>541.36</ele>
        <time>2012-08-25T07:33:36Z</time>
      </trkpt>
      <trkpt lat="44.4203" lon="5.1711">
        <ele>544.72</ele>
        <time>2012-08-25T07:33:49Z</time>
      </trkpt>
      <trkpt lat="44.42017" lon="5.17142">
        <ele>546.65</ele>
        <time>2012-08-25T07:34:03Z</time>
      </trkpt>
      <trkpt lat="44.42022" lon="5.17188">
        <ele>546.17</ele>
        <time>2012-08-25T07:34:16Z</time>
      </trkpt>
      <trkpt lat="44.42019" lon="5.17204">
        <ele>547.61</ele>
        <time>2012-08-25T07:34:23Z</time>
      </trkpt>
      <trkpt lat="44.42013" lon="5.17203">
        <ele>549.53</ele>
        <time>2012-08-25T07:34:28Z</time>
      </trkpt>
      <trkpt lat="44.42009" lon="5.17205">
        <ele>549.53</ele>
        <time>2012-08-25T07:34:34Z</time>
      </trkpt>
      <trkpt lat="44.42002" lon="5.17217">
        <ele>553.86</ele>
        <time>2012-08-25T07:34:43Z</time>
      </trkpt>
      <trkpt lat="44.41997" lon="5.17224">
        <ele>554.34</ele>
        <time>2012-08-25T07:34:52Z</time>
      </trkpt>
      <trkpt lat="44.41995" lon="5.17225">
        <ele>555.3</ele>
        <time>2012-08-25T07:34:55Z</time>
      </trkpt>
      <trkpt lat="44.41981" lon="5.17244">
        <ele>557.7</ele>
        <time>2012-08-25T07:35:07Z</time>
      </trkpt>
      <trkpt lat="44.41968" lon="5.17251">
        <ele>561.07</ele>
        <time>2012-08-25T07:35:16Z</time>
      </trkpt>
      <trkpt lat="44.41967" lon="5.17253">
        <ele>560.11</ele>
        <time>2012-08-25T07:35:17Z</time>
      </trkpt>
      <trkpt lat="44.4196" lon="5.17264">
        <ele>562.99</ele>
        <time>2012-08-25T07:35:25Z</time>
      </trkpt>
      <trkpt lat="44.41957" lon="5.17279">
        <ele>563.47</ele>
        <time>2012-08-25T07:35:33Z</time>
      </trkpt>
      <trkpt lat="44.41944" lon="5.17321">
        <ele>568.76</ele>
        <time>2012-08-25T07:35:51Z</time>
      </trkpt>
      <trkpt lat="44.41939" lon="5.17346">
        <ele>568.76</ele>
        <time>2012-08-25T07:36:01Z</time>
      </trkpt>
      <trkpt lat="44.41935" lon="5.17366">
        <ele>567.8</ele>
        <time>2012-08-25T07:36:09Z</time>
      </trkpt>
      <trkpt lat="44.4192" lon="5.17409">
        <ele>565.39</ele>
        <time>2012-08-25T07:36:21Z</time>
      </trkpt>
      <trkpt lat="44.41918" lon="5.17422">
        <ele>563.47</ele>
        <time>2012-08-25T07:36:24Z</time>
      </trkpt>
      <trkpt lat="44.41914" lon="5.17439">
        <ele>561.07</ele>
        <time>2012-08-25T07:36:28Z</time>
      </trkpt>
      <trkpt lat="44.41906" lon="5.17451">
        <ele>558.66</ele>
        <time>2012-08-25T07:36:32Z</time>
      </trkpt>
      <trkpt lat="44.41907" lon="5.17463">
        <ele>557.7</ele>
        <time>2012-08-25T07:36:35Z</time>
      </trkpt>
      <trkpt lat="44.41912" lon="5.17469">
        <ele>556.74</ele>
        <time>2012-08-25T07:36:37Z</time>
      </trkpt>
      <trkpt lat="44.41932" lon="5.17489">
        <ele>555.3</ele>
        <time>2012-08-25T07:36:46Z</time>
      </trkpt>
      <trkpt lat="44.41931" lon="5.17513">
        <ele>552.41</ele>
        <time>2012-08-25T07:36:53Z</time>
      </trkpt>
      <trkpt lat="44.41915" lon="5.17531">
        <ele>548.09</ele>
        <time>2012-08-25T07:37:00Z</time>
      </trkpt>
      <trkpt lat="44.41912" lon="5.17534">
        <ele>550.01</ele>
        <time>2012-08-25T07:37:01Z</time>
      </trkpt>
      <trkpt lat="44.41908" lon="5.17554">
        <ele>546.65</ele>
        <time>2012-08-25T07:37:06Z</time>
      </trkpt>
      <trkpt lat="44.41907" lon="5.17562">
        <ele>546.65</ele>
        <time>2012-08-25T07:37:08Z</time>
      </trkpt>
      <trkpt lat="44.41905" lon="5.17586">
        <ele>543.28</ele>
        <time>2012-08-25T07:37:13Z</time>
      </trkpt>
      <trkpt lat="44.41908" lon="5.17627">
        <ele>538.96</ele>
        <time>2012-08-25T07:37:21Z</time>
      </trkpt>
      <trkpt lat="44.41908" lon="5.17632">
        <ele>540.4</ele>
        <time>2012-08-25T07:37:22Z</time>
      </trkpt>
      <trkpt lat="44.41907" lon="5.17648">
        <ele>539.92</ele>
        <time>2012-08-25T07:37:25Z</time>
      </trkpt>
      <trkpt lat="44.41903" lon="5.17669">
        <ele>537.03</ele>
        <time>2012-08-25T07:37:29Z</time>
      </trkpt>
      <trkpt lat="44.41903" lon="5.1769">
        <ele>533.67</ele>
        <time>2012-08-25T07:37:33Z</time>
      </trkpt>
      <trkpt lat="44.41905" lon="5.1772">
        <ele>533.19</ele>
        <time>2012-08-25T07:37:39Z</time>
      </trkpt>
      <trkpt lat="44.41901" lon="5.17739">
        <ele>529.34</ele>
        <time>2012-08-25T07:37:43Z</time>
      </trkpt>
      <trkpt lat="44.41893" lon="5.1777">
        <ele>525.5</ele>
        <time>2012-08-25T07:37:50Z</time>
      </trkpt>
      <trkpt lat="44.41893" lon="5.17775">
        <ele>526.94</ele>
        <time>2012-08-25T07:37:51Z</time>
      </trkpt>
      <trkpt lat="44.41893" lon="5.17795">
        <ele>522.61</ele>
        <time>2012-08-25T07:37:55Z</time>
      </trkpt>
      <trkpt lat="44.41879" lon="5.17833">
        <ele>518.29</ele>
        <time>2012-08-25T07:38:04Z</time>
      </trkpt>
      <trkpt lat="44.41867" lon="5.17872">
        <ele>514.92</ele>
        <time>2012-08-25T07:38:13Z</time>
      </trkpt>
      <trkpt lat="44.41858" lon="5.1788">
        <ele>512.52</ele>
        <time>2012-08-25T07:38:16Z</time>
      </trkpt>
      <trkpt lat="44.41855" lon="5.17881">
        <ele>508.19</ele>
        <time>2012-08-25T07:38:17Z</time>
      </trkpt>
      <trkpt lat="44.41852" lon="5.17883">
        <ele>510.6</ele>
        <time>2012-08-25T07:38:18Z</time>
      </trkpt>
      <trkpt lat="44.41837" lon="5.17898">
        <ele>508.67</ele>
        <time>2012-08-25T07:38:24Z</time>
      </trkpt>
      <trkpt lat="44.41832" lon="5.17903">
        <ele>506.75</ele>
        <time>2012-08-25T07:38:26Z</time>
      </trkpt>
      <trkpt lat="44.41821" lon="5.17917">
        <ele>503.39</ele>
        <time>2012-08-25T07:38:30Z</time>
      </trkpt>
      <trkpt lat="44.41818" lon="5.17919">
        <ele>503.87</ele>
        <time>2012-08-25T07:38:31Z</time>
      </trkpt>
      <trkpt lat="44.41806" lon="5.17921">
        <ele>501.46</ele>
        <time>2012-08-25T07:38:35Z</time>
      </trkpt>
      <trkpt lat="44.41804" lon="5.17923">
        <ele>500.98</ele>
        <time>2012-08-25T07:38:36Z</time>
      </trkpt>
      <trkpt lat="44.41802" lon="5.17927">
        <ele>499.06</ele>
        <time>2012-08-25T07:38:37Z</time>
      </trkpt>
      <trkpt lat="44.418" lon="5.17931">
        <ele>499.06</ele>
        <time>2012-08-25T07:38:38Z</time>
      </trkpt>
      <trkpt lat="44.41799" lon="5.17936">
        <ele>497.14</ele>
        <time>2012-08-25T07:38:39Z</time>
      </trkpt>
      <trkpt lat="44.41798" lon="5.17942">
        <ele>498.1</ele>
        <time>2012-08-25T07:38:40Z</time>
      </trkpt>
      <trkpt lat="44.41797" lon="5.17947">
        <ele>495.22</ele>
        <time>2012-08-25T07:38:41Z</time>
      </trkpt>
      <trkpt lat="44.41795" lon="5.17952">
        <ele>495.22</ele>
        <time>2012-08-25T07:38:42Z</time>
      </trkpt>
      <trkpt lat="44.41783" lon="5.1799">
        <ele>492.33</ele>
        <time>2012-08-25T07:38:50Z</time>
      </trkpt>
      <trkpt lat="44.41783" lon="5.17995">
        <ele>490.89</ele>
        <time>2012-08-25T07:38:51Z</time>
      </trkpt>
      <trkpt lat="44.41782" lon="5.18001">
        <ele>491.85</ele>
        <time>2012-08-25T07:38:52Z</time>
      </trkpt>
      <trkpt lat="44.41782" lon="5.18004">
        <ele>491.85</ele>
        <time>2012-08-25T07:38:53Z</time>
      </trkpt>
      <trkpt lat="44.41782" lon="5.18008">
        <ele>491.37</ele>
        <time>2012-08-25T07:38:54Z</time>
      </trkpt>
      <trkpt lat="44.41782" lon="5.18011">
        <ele>489.45</ele>
        <time>2012-08-25T07:38:55Z</time>
      </trkpt>
      <trkpt lat="44.41782" lon="5.18014">
        <ele>491.85</ele>
        <time>2012-08-25T07:38:56Z</time>
      </trkpt>
      <trkpt lat="44.41781" lon="5.18017">
        <ele>489.93</ele>
        <time>2012-08-25T07:38:57Z</time>
      </trkpt>
      <trkpt lat="44.4178" lon="5.18019">
        <ele>492.33</ele>
        <time>2012-08-25T07:38:58Z</time>
      </trkpt>
      <trkpt lat="44.4178" lon="5.18022">
        <ele>490.89</ele>
        <time>2012-08-25T07:38:59Z</time>
      </trkpt>
      <trkpt lat="44.41781" lon="5.18026">
        <ele>490.41</ele>
        <time>2012-08-25T07:39:00Z</time>
      </trkpt>
      <trkpt lat="44.41781" lon="5.1803">
        <ele>491.85</ele>
        <time>2012-08-25T07:39:01Z</time>
      </trkpt>
      <trkpt lat="44.41781" lon="5.18034">
        <ele>489.93</ele>
        <time>2012-08-25T07:39:02Z</time>
      </trkpt>
      <trkpt lat="44.4178" lon="5.18038">
        <ele>489.93</ele>
        <time>2012-08-25T07:39:03Z</time>
      </trkpt>
      <trkpt lat="44.41781" lon="5.1805">
        <ele>490.41</ele>
        <time>2012-08-25T07:39:06Z</time>
      </trkpt>
      <trkpt lat="44.41782" lon="5.18053">
        <ele>489.93</ele>
        <time>2012-08-25T07:39:07Z</time>
      </trkpt>
      <trkpt lat="44.41786" lon="5.18082">
        <ele>493.29</ele>
        <time>2012-08-25T07:39:16Z</time>
      </trkpt>
      <trkpt lat="44.41786" lon="5.18092">
        <ele>493.29</ele>
        <time>2012-08-25T07:39:20Z</time>
      </trkpt>
      <trkpt lat="44.41784" lon="5.18095">
        <ele>494.26</ele>
        <time>2012-08-25T07:39:22Z</time>
      </trkpt>
      <trkpt lat="44.41781" lon="5.18098">
        <ele>496.66</ele>
        <time>2012-08-25T07:39:24Z</time>
      </trkpt>
      <trkpt lat="44.41777" lon="5.18102">
        <ele>500.02</ele>
        <time>2012-08-25T07:39:27Z</time>
      </trkpt>
      <trkpt lat="44.41776" lon="5.1811">
        <ele>500.98</ele>
        <time>2012-08-25T07:39:31Z</time>
      </trkpt>
      <trkpt lat="44.41782" lon="5.18113">
        <ele>501.46</ele>
        <time>2012-08-25T07:39:34Z</time>
      </trkpt>
      <trkpt lat="44.41802" lon="5.18125">
        <ele>498.1</ele>
        <time>2012-08-25T07:39:45Z</time>
      </trkpt>
      <trkpt lat="44.41821" lon="5.1815">
        <ele>497.62</ele>
        <time>2012-08-25T07:39:54Z</time>
      </trkpt>
      <trkpt lat="44.41823" lon="5.18157">
        <ele>500.02</ele>
        <time>2012-08-25T07:39:56Z</time>
      </trkpt>
      <trkpt lat="44.41828" lon="5.18166">
        <ele>497.14</ele>
        <time>2012-08-25T07:39:59Z</time>
      </trkpt>
      <trkpt lat="44.41831" lon="5.18176">
        <ele>498.58</ele>
        <time>2012-08-25T07:40:02Z</time>
      </trkpt>
      <trkpt lat="44.4186" lon="5.18215">
        <ele>496.18</ele>
        <time>2012-08-25T07:40:16Z</time>
      </trkpt>
      <trkpt lat="44.41881" lon="5.18257">
        <ele>495.22</ele>
        <time>2012-08-25T07:40:28Z</time>
      </trkpt>
      <trkpt lat="44.41888" lon="5.18287">
        <ele>492.33</ele>
        <time>2012-08-25T07:40:36Z</time>
      </trkpt>
      <trkpt lat="44.41878" lon="5.18318">
        <ele>492.33</ele>
        <time>2012-08-25T07:40:45Z</time>
      </trkpt>
      <trkpt lat="44.41864" lon="5.18336">
        <ele>494.74</ele>
        <time>2012-08-25T07:40:54Z</time>
      </trkpt>
      <trkpt lat="44.41843" lon="5.18348">
        <ele>496.66</ele>
        <time>2012-08-25T07:41:05Z</time>
      </trkpt>
      <trkpt lat="44.41822" lon="5.18357">
        <ele>496.18</ele>
        <time>2012-08-25T07:41:15Z</time>
      </trkpt>
      <trkpt lat="44.41815" lon="5.18359">
        <ele>499.06</ele>
        <time>2012-08-25T07:41:18Z</time>
      </trkpt>
      <trkpt lat="44.4179" lon="5.18379">
        <ele>498.1</ele>
        <time>2012-08-25T07:41:31Z</time>
      </trkpt>
      <trkpt lat="44.41781" lon="5.18384">
        <ele>498.58</ele>
        <time>2012-08-25T07:41:35Z</time>
      </trkpt>
      <trkpt lat="44.41753" lon="5.184">
        <ele>495.7</ele>
        <time>2012-08-25T07:41:45Z</time>
      </trkpt>
      <trkpt lat="44.41723" lon="5.18424">
        <ele>495.7</ele>
        <time>2012-08-25T07:41:57Z</time>
      </trkpt>
      <trkpt lat="44.41718" lon="5.18429">
        <ele>496.66</ele>
        <time>2012-08-25T07:41:59Z</time>
      </trkpt>
      <trkpt lat="44.41691" lon="5.18445">
        <ele>493.29</ele>
        <time>2012-08-25T07:42:10Z</time>
      </trkpt>
      <trkpt lat="44.41672" lon="5.1847">
        <ele>494.74</ele>
        <time>2012-08-25T07:42:20Z</time>
      </trkpt>
      <trkpt lat="44.41667" lon="5.18502">
        <ele>496.18</ele>
        <time>2012-08-25T07:42:30Z</time>
      </trkpt>
      <trkpt lat="44.41647" lon="5.18543">
        <ele>497.14</ele>
        <time>2012-08-25T07:42:46Z</time>
      </trkpt>
      <trkpt lat="44.41627" lon="5.18573">
        <ele>496.18</ele>
        <time>2012-08-25T07:42:58Z</time>
      </trkpt>
      <trkpt lat="44.41625" lon="5.18575">
        <ele>496.18</ele>
        <time>2012-08-25T07:42:59Z</time>
      </trkpt>
      <trkpt lat="44.41609" lon="5.18616">
        <ele>494.74</ele>
        <time>2012-08-25T07:43:11Z</time>
      </trkpt>
      <trkpt lat="44.41598" lon="5.18669">
        <ele>494.26</ele>
        <time>2012-08-25T07:43:25Z</time>
      </trkpt>
      <trkpt lat="44.41575" lon="5.18712">
        <ele>493.77</ele>
        <time>2012-08-25T07:43:39Z</time>
      </trkpt>
      <trkpt lat="44.41557" lon="5.18746">
        <ele>494.74</ele>
        <time>2012-08-25T07:43:50Z</time>
      </trkpt>
      <trkpt lat="44.41528" lon="5.18772">
        <ele>493.77</ele>
        <time>2012-08-25T07:44:04Z</time>
      </trkpt>
      <trkpt lat="44.41522" lon="5.18775">
        <ele>493.29</ele>
        <time>2012-08-25T07:44:06Z</time>
      </trkpt>
      <trkpt lat="44.41517" lon="5.18777">
        <ele>494.26</ele>
        <time>2012-08-25T07:44:08Z</time>
      </trkpt>
      <trkpt lat="44.41492" lon="5.18782">
        <ele>494.74</ele>
        <time>2012-08-25T07:44:21Z</time>
      </trkpt>
      <trkpt lat="44.41466" lon="5.18782">
        <ele>493.29</ele>
        <time>2012-08-25T07:44:35Z</time>
      </trkpt>
      <trkpt lat="44.41437" lon="5.18783">
        <ele>489.93</ele>
        <time>2012-08-25T07:44:46Z</time>
      </trkpt>
      <trkpt lat="44.4141" lon="5.1881">
        <ele>487.05</ele>
        <time>2012-08-25T07:44:58Z</time>
      </trkpt>
      <trkpt lat="44.41396" lon="5.18847">
        <ele>488.49</ele>
        <time>2012-08-25T07:45:09Z</time>
      </trkpt>
      <trkpt lat="44.4138" lon="5.18891">
        <ele>487.53</ele>
        <time>2012-08-25T07:45:22Z</time>
      </trkpt>
      <trkpt lat="44.4135" lon="5.18943">
        <ele>486.08</ele>
        <time>2012-08-25T07:45:39Z</time>
      </trkpt>
      <trkpt lat="44.4134" lon="5.18969">
        <ele>486.08</ele>
        <time>2012-08-25T07:45:47Z</time>
      </trkpt>
      <trkpt lat="44.41331" lon="5.18988">
        <ele>484.64</ele>
        <time>2012-08-25T07:45:53Z</time>
      </trkpt>
      <trkpt lat="44.41322" lon="5.19008">
        <ele>483.68</ele>
        <time>2012-08-25T07:45:58Z</time>
      </trkpt>
      <trkpt lat="44.41307" lon="5.19036">
        <ele>483.2</ele>
        <time>2012-08-25T07:46:06Z</time>
      </trkpt>
      <trkpt lat="44.41277" lon="5.19076">
        <ele>484.64</ele>
        <time>2012-08-25T07:46:20Z</time>
      </trkpt>
      <trkpt lat="44.41246" lon="5.1911">
        <ele>484.64</ele>
        <time>2012-08-25T07:46:35Z</time>
      </trkpt>
      <trkpt lat="44.41236" lon="5.1912">
        <ele>485.12</ele>
        <time>2012-08-25T07:46:40Z</time>
      </trkpt>
      <trkpt lat="44.41202" lon="5.1914">
        <ele>486.56</ele>
        <time>2012-08-25T07:46:54Z</time>
      </trkpt>
      <trkpt lat="44.41177" lon="5.19156">
        <ele>487.53</ele>
        <time>2012-08-25T07:47:05Z</time>
      </trkpt>
      <trkpt lat="44.41153" lon="5.19177">
        <ele>488.49</ele>
        <time>2012-08-25T07:47:16Z</time>
      </trkpt>
      <trkpt lat="44.41125" lon="5.192">
        <ele>488.49</ele>
        <time>2012-08-25T07:47:28Z</time>
      </trkpt>
      <trkpt lat="44.41113" lon="5.19208">
        <ele>487.05</ele>
        <time>2012-08-25T07:47:33Z</time>
      </trkpt>
      <trkpt lat="44.41108" lon="5.19212">
        <ele>488.01</ele>
        <time>2012-08-25T07:47:35Z</time>
      </trkpt>
      <trkpt lat="44.41086" lon="5.19247">
        <ele>485.12</ele>
        <time>2012-08-25T07:47:47Z</time>
      </trkpt>
      <trkpt lat="44.41072" lon="5.19283">
        <ele>483.68</ele>
        <time>2012-08-25T07:47:56Z</time>
      </trkpt>
      <trkpt lat="44.41047" lon="5.19318">
        <ele>484.16</ele>
        <time>2012-08-25T07:48:08Z</time>
      </trkpt>
      <trkpt lat="44.41026" lon="5.19339">
        <ele>480.8</ele>
        <time>2012-08-25T07:48:16Z</time>
      </trkpt>
      <trkpt lat="44.41023" lon="5.19347">
        <ele>479.35</ele>
        <time>2012-08-25T07:48:18Z</time>
      </trkpt>
      <trkpt lat="44.41015" lon="5.19382">
        <ele>476.47</ele>
        <time>2012-08-25T07:48:26Z</time>
      </trkpt>
      <trkpt lat="44.41001" lon="5.19434">
        <ele>472.63</ele>
        <time>2012-08-25T07:48:38Z</time>
      </trkpt>
      <trkpt lat="44.41" lon="5.19438">
        <ele>472.63</ele>
        <time>2012-08-25T07:48:39Z</time>
      </trkpt>
      <trkpt lat="44.40985" lon="5.19474">
        <ele>469.26</ele>
        <time>2012-08-25T07:48:49Z</time>
      </trkpt>
      <trkpt lat="44.40971" lon="5.19493">
        <ele>467.34</ele>
        <time>2012-08-25T07:48:55Z</time>
      </trkpt>
      <trkpt lat="44.40958" lon="5.19531">
        <ele>463.49</ele>
        <time>2012-08-25T07:49:04Z</time>
      </trkpt>
      <trkpt lat="44.40959" lon="5.19535">
        <ele>464.93</ele>
        <time>2012-08-25T07:49:05Z</time>
      </trkpt>
      <trkpt lat="44.40986" lon="5.19568">
        <ele>460.61</ele>
        <time>2012-08-25T07:49:16Z</time>
      </trkpt>
      <trkpt lat="44.40989" lon="5.19569">
        <ele>461.09</ele>
        <time>2012-08-25T07:49:17Z</time>
      </trkpt>
      <trkpt lat="44.4101" lon="5.19571">
        <ele>459.17</ele>
        <time>2012-08-25T07:49:24Z</time>
      </trkpt>
      <trkpt lat="44.41028" lon="5.19602">
        <ele>457.24</ele>
        <time>2012-08-25T07:49:34Z</time>
      </trkpt>
      <trkpt lat="44.41041" lon="5.19633">
        <ele>452.44</ele>
        <time>2012-08-25T07:49:43Z</time>
      </trkpt>
      <trkpt lat="44.41041" lon="5.19636">
        <ele>454.36</ele>
        <time>2012-08-25T07:49:44Z</time>
      </trkpt>
      <trkpt lat="44.41034" lon="5.19637">
        <ele>452.44</ele>
        <time>2012-08-25T07:49:49Z</time>
      </trkpt>
      <trkpt lat="44.41031" lon="5.19634">
        <ele>451.96</ele>
        <time>2012-08-25T07:49:50Z</time>
      </trkpt>
      <trkpt lat="44.41018" lon="5.19619">
        <ele>450.03</ele>
        <time>2012-08-25T07:49:55Z</time>
      </trkpt>
      <trkpt lat="44.40987" lon="5.19615">
        <ele>446.19</ele>
        <time>2012-08-25T07:50:05Z</time>
      </trkpt>
      <trkpt lat="44.40958" lon="5.19626">
        <ele>442.82</ele>
        <time>2012-08-25T07:50:15Z</time>
      </trkpt>
      <trkpt lat="44.40955" lon="5.19626">
        <ele>442.82</ele>
        <time>2012-08-25T07:50:16Z</time>
      </trkpt>
      <trkpt lat="44.40933" lon="5.19616">
        <ele>439.46</ele>
        <time>2012-08-25T07:50:24Z</time>
      </trkpt>
      <trkpt lat="44.40908" lon="5.19607">
        <ele>436.1</ele>
        <time>2012-08-25T07:50:33Z</time>
      </trkpt>
      <trkpt lat="44.40885" lon="5.19603">
        <ele>434.17</ele>
        <time>2012-08-25T07:50:40Z</time>
      </trkpt>
      <trkpt lat="44.4086" lon="5.19601">
        <ele>431.77</ele>
        <time>2012-08-25T07:50:48Z</time>
      </trkpt>
      <trkpt lat="44.40834" lon="5.19585">
        <ele>428.4</ele>
        <time>2012-08-25T07:50:57Z</time>
      </trkpt>
      <trkpt lat="44.40829" lon="5.19578">
        <ele>427.92</ele>
        <time>2012-08-25T07:50:59Z</time>
      </trkpt>
      <trkpt lat="44.40821" lon="5.19568">
        <ele>425.52</ele>
        <time>2012-08-25T07:51:03Z</time>
      </trkpt>
      <trkpt lat="44.40796" lon="5.1958">
        <ele>422.64</ele>
        <time>2012-08-25T07:51:12Z</time>
      </trkpt>
      <trkpt lat="44.40781" lon="5.19607">
        <ele>419.27</ele>
        <time>2012-08-25T07:51:20Z</time>
      </trkpt>
      <trkpt lat="44.40768" lon="5.19617">
        <ele>417.83</ele>
        <time>2012-08-25T07:51:25Z</time>
      </trkpt>
      <trkpt lat="44.40746" lon="5.19636">
        <ele>414.95</ele>
        <time>2012-08-25T07:51:33Z</time>
      </trkpt>
      <trkpt lat="44.40724" lon="5.19665">
        <ele>412.54</ele>
        <time>2012-08-25T07:51:43Z</time>
      </trkpt>
      <trkpt lat="44.40721" lon="5.19714">
        <ele>410.14</ele>
        <time>2012-08-25T07:51:54Z</time>
      </trkpt>
      <trkpt lat="44.4072" lon="5.19757">
        <ele>405.81</ele>
        <time>2012-08-25T07:52:05Z</time>
      </trkpt>
      <trkpt lat="44.40721" lon="5.1976">
        <ele>406.29</ele>
        <time>2012-08-25T07:52:06Z</time>
      </trkpt>
      <trkpt lat="44.40722" lon="5.19775">
        <ele>402.93</ele>
        <time>2012-08-25T07:52:11Z</time>
      </trkpt>
      <trkpt lat="44.40726" lon="5.19793">
        <ele>398.6</ele>
        <time>2012-08-25T07:52:16Z</time>
      </trkpt>
      <trkpt lat="44.40727" lon="5.19797">
        <ele>399.57</ele>
        <time>2012-08-25T07:52:17Z</time>
      </trkpt>
      <trkpt lat="44.40725" lon="5.1981">
        <ele>396.68</ele>
        <time>2012-08-25T07:52:20Z</time>
      </trkpt>
      <trkpt lat="44.40724" lon="5.19817">
        <ele>395.24</ele>
        <time>2012-08-25T07:52:22Z</time>
      </trkpt>
      <trkpt lat="44.40724" lon="5.19829">
        <ele>391.87</ele>
        <time>2012-08-25T07:52:25Z</time>
      </trkpt>
      <trkpt lat="44.40726" lon="5.19843">
        <ele>390.43</ele>
        <time>2012-08-25T07:52:29Z</time>
      </trkpt>
      <trkpt lat="44.40742" lon="5.19869">
        <ele>387.55</ele>
        <time>2012-08-25T07:52:37Z</time>
      </trkpt>
      <trkpt lat="44.40748" lon="5.19899">
        <ele>382.74</ele>
        <time>2012-08-25T07:52:44Z</time>
      </trkpt>
      <trkpt lat="44.40748" lon="5.19947">
        <ele>379.86</ele>
        <time>2012-08-25T07:52:55Z</time>
      </trkpt>
      <trkpt lat="44.40747" lon="5.19971">
        <ele>379.86</ele>
        <time>2012-08-25T07:53:07Z</time>
      </trkpt>
      <trkpt lat="44.40748" lon="5.19981">
        <ele>379.86</ele>
        <time>2012-08-25T07:53:19Z</time>
      </trkpt>
      <trkpt lat="44.4075" lon="5.19987">
        <ele>383.7</ele>
        <time>2012-08-25T07:53:33Z</time>
      </trkpt>
      <trkpt lat="44.4075" lon="5.19987">
        <ele>380.34</ele>
        <time>2012-08-25T07:53:34Z</time>
      </trkpt>
      <trkpt lat="44.40751" lon="5.19988">
        <ele>376.97</ele>
        <time>2012-08-25T07:53:40Z</time>
      </trkpt>
      <trkpt lat="44.40752" lon="5.19989">
        <ele>380.34</ele>
        <time>2012-08-25T07:53:46Z</time>
      </trkpt>
      <trkpt lat="44.40754" lon="5.19991">
        <ele>379.38</ele>
        <time>2012-08-25T07:54:07Z</time>
      </trkpt>
      <trkpt lat="44.40753" lon="5.19991">
        <ele>379.38</ele>
        <time>2012-08-25T07:54:27Z</time>
      </trkpt>
      <trkpt lat="44.40753" lon="5.19992">
        <ele>379.38</ele>
        <time>2012-08-25T07:54:56Z</time>
      </trkpt>
      <trkpt lat="44.40754" lon="5.19992">
        <ele>373.13</ele>
        <time>2012-08-25T07:54:59Z</time>
      </trkpt>
      <trkpt lat="44.40754" lon="5.19992">
        <ele>379.38</ele>
        <time>2012-08-25T07:55:00Z</time>
      </trkpt>
      <trkpt lat="44.40754" lon="5.19992">
        <ele>372.17</ele>
        <time>2012-08-25T07:55:03Z</time>
      </trkpt>
      <trkpt lat="44.40754" lon="5.19992">
        <ele>379.86</ele>
        <time>2012-08-25T07:55:04Z</time>
      </trkpt>
      <trkpt lat="44.40754" lon="5.19992">
        <ele>385.15</ele>
        <time>2012-08-25T07:55:05Z</time>
      </trkpt>
      <trkpt lat="44.40754" lon="5.19992">
        <ele>381.3</ele>
        <time>2012-08-25T07:55:06Z</time>
      </trkpt>
      <trkpt lat="44.40754" lon="5.19992">
        <ele>376.01</ele>
        <time>2012-08-25T07:55:10Z</time>
      </trkpt>
      <trkpt lat="44.40754" lon="5.19992">
        <ele>379.86</ele>
        <time>2012-08-25T07:55:11Z</time>
      </trkpt>
    </trkseg>
  </trk>
  <trk>
    <name><![CDATA[2015-01-20T16:18:06Z]]></name>
    <extensions>
      <line xmlns="http://www.topografix.com/GPX/gpx_style/0/2">
        <color>0000FF</color>
        <width>4</width>
      </line>
    </extensions>
    <trkseg>
      <trkpt lat="44.42929" lon="5.12026">
        <ele>821</ele>
      </trkpt>
      <trkpt lat="44.42918" lon="5.12171">
        <ele>829</ele>
      </trkpt>
      <trkpt lat="44.42971" lon="5.12097">
        <ele>844</ele>
      </trkpt>
      <trkpt lat="44.43026" lon="5.12">
        <ele>845</ele>
      </trkpt>
      <trkpt lat="44.43049" lon="5.11925">
        <ele>844</ele>
      </trkpt>
      <trkpt lat="44.43049" lon="5.12015">
        <ele>864</ele>
      </trkpt>
      <trkpt lat="44.43088" lon="5.11941">
        <ele>862</ele>
      </trkpt>
      <trkpt lat="44.43142" lon="5.11995">
        <ele>877</ele>
      </trkpt>
      <trkpt lat="44.43209" lon="5.11995">
        <ele>881</ele>
      </trkpt>
      <trkpt lat="44.43263" lon="5.12032">
        <ele>896</ele>
      </trkpt>
      <trkpt lat="44.433" lon="5.1209">
        <ele>914</ele>
      </trkpt>
      <trkpt lat="44.43371" lon="5.12133">
        <ele>922</ele>
      </trkpt>
      <trkpt lat="44.4341" lon="5.12143">
        <ele>926</ele>
      </trkpt>
      <trkpt lat="44.43467" lon="5.12058">
        <ele>922</ele>
      </trkpt>
      <trkpt lat="44.43541" lon="5.12028">
        <ele>934</ele>
      </trkpt>
      <trkpt lat="44.43575" lon="5.11993">
        <ele>926</ele>
      </trkpt>
      <trkpt lat="44.43633" lon="5.11978">
        <ele>935</ele>
      </trkpt>
      <trkpt lat="44.43694" lon="5.11939">
        <ele>949</ele>
      </trkpt>
      <trkpt lat="44.4376" lon="5.1182">
        <ele>940</ele>
      </trkpt>
      <trkpt lat="44.43821" lon="5.11711">
        <ele>932</ele>
      </trkpt>
      <trkpt lat="44.4387" lon="5.11703">
        <ele>926</ele>
      </trkpt>
      <trkpt lat="44.43902" lon="5.11683">
        <ele>921</ele>
      </trkpt>
      <trkpt lat="44.43931" lon="5.11687">
        <ele>909</ele>
      </trkpt>
      <trkpt lat="44.43966" lon="5.11685">
        <ele>903</ele>
      </trkpt>
      <trkpt lat="44.43929" lon="5.11642">
        <ele>903</ele>
      </trkpt>
      <trkpt lat="44.43929" lon="5.1159">
        <ele>906</ele>
      </trkpt>
      <trkpt lat="44.43926" lon="5.11543">
        <ele>900</ele>
      </trkpt>
      <trkpt lat="44.43902" lon="5.11504">
        <ele>915</ele>
      </trkpt>
      <trkpt lat="44.43853" lon="5.11496">
        <ele>926</ele>
      </trkpt>
      <trkpt lat="44.43762" lon="5.11445">
        <ele>932</ele>
      </trkpt>
      <trkpt lat="44.43738" lon="5.11399">
        <ele>925</ele>
      </trkpt>
      <trkpt lat="44.43748" lon="5.11322">
        <ele>934</ele>
      </trkpt>
      <trkpt lat="44.43783" lon="5.11233">
        <ele>954</ele>
      </trkpt>
      <trkpt lat="44.43817" lon="5.11143">
        <ele>958</ele>
      </trkpt>
      <trkpt lat="44.4385" lon="5.11082">
        <ele>973</ele>
      </trkpt>
      <trkpt lat="44.43866" lon="5.10967">
        <ele>991</ele>
      </trkpt>
      <trkpt lat="44.43872" lon="5.10919">
        <ele>997</ele>
      </trkpt>
      <trkpt lat="44.43967" lon="5.10778">
        <ele>1078</ele>
      </trkpt>
      <trkpt lat="44.44022" lon="5.10679">
        <ele>1124</ele>
      </trkpt>
      <trkpt lat="44.44076" lon="5.10687">
        <ele>1132</ele>
      </trkpt>
      <trkpt lat="44.44213" lon="5.10655">
        <ele>1155</ele>
      </trkpt>
      <trkpt lat="44.44285" lon="5.10634">
        <ele>1156</ele>
      </trkpt>
      <trkpt lat="44.44345" lon="5.10638">
        <ele>1151</ele>
      </trkpt>
      <trkpt lat="44.44387" lon="5.1061">
        <ele>1151</ele>
      </trkpt>
      <trkpt lat="44.44401" lon="5.106">
        <ele>1152</ele>
      </trkpt>
      <trkpt lat="44.44444" lon="5.10571">
        <ele>1151</ele>
      </trkpt>
      <trkpt lat="44.44494" lon="5.10542">
        <ele>1150</ele>
      </trkpt>
      <trkpt lat="44.44558" lon="5.10489">
        <ele>1144</ele>
      </trkpt>
      <trkpt lat="44.44686" lon="5.10387">
        <ele>1141</ele>
      </trkpt>
      <trkpt lat="44.44722" lon="5.10333">
        <ele>1152</ele>
      </trkpt>
      <trkpt lat="44.44844" lon="5.10296">
        <ele>1188</ele>
      </trkpt>
      <trkpt lat="44.44992" lon="5.10265">
        <ele>1220</ele>
      </trkpt>
      <trkpt lat="44.4508" lon="5.1022">
        <ele>1244</ele>
      </trkpt>
      <trkpt lat="44.45137" lon="5.10229">
        <ele>1262</ele>
      </trkpt>
      <trkpt lat="44.45268" lon="5.10182">
        <ele>1287</ele>
      </trkpt>
      <trkpt lat="44.45339" lon="5.10166">
        <ele>1303</ele>
      </trkpt>
      <trkpt lat="44.45417" lon="5.10174">
        <ele>1308</ele>
      </trkpt>
      <trkpt lat="44.45493" lon="5.1018">
        <ele>1309</ele>
      </trkpt>
      <trkpt lat="44.45537" lon="5.10162">
        <ele>1315</ele>
      </trkpt>
      <trkpt lat="44.45612" lon="5.10106">
        <ele>1313</ele>
      </trkpt>
      <trkpt lat="44.45699" lon="5.10055">
        <ele>1314</ele>
      </trkpt>
      <trkpt lat="44.45787" lon="5.10069">
        <ele>1316</ele>
      </trkpt>
      <trkpt lat="44.45868" lon="5.1002">
        <ele>1310</ele>
      </trkpt>
      <trkpt lat="44.45919" lon="5.09974">
        <ele>1307</ele>
      </trkpt>
      <trkpt lat="44.45955" lon="5.09907">
        <ele>1310</ele>
      </trkpt>
      <trkpt lat="44.46029" lon="5.09788">
        <ele>1309</ele>
      </trkpt>
      <trkpt lat="44.46085" lon="5.0972">
        <ele>1307</ele>
      </trkpt>
      <trkpt lat="44.46143" lon="5.09687">
        <ele>1303</ele>
      </trkpt>
      <trkpt lat="44.46225" lon="5.09646">
        <ele>1300</ele>
      </trkpt>
      <trkpt lat="44.46252" lon="5.09513">
        <ele>1292</ele>
      </trkpt>
      <trkpt lat="44.46285" lon="5.09428">
        <ele>1283</ele>
      </trkpt>
      <trkpt lat="44.46345" lon="5.09385">
        <ele>1275</ele>
      </trkpt>
      <trkpt lat="44.46413" lon="5.09338">
        <ele>1273</ele>
      </trkpt>
      <trkpt lat="44.46472" lon="5.09201">
        <ele>1263</ele>
      </trkpt>
      <trkpt lat="44.46516" lon="5.09061">
        <ele>1252</ele>
      </trkpt>
      <trkpt lat="44.4658" lon="5.08936">
        <ele>1244</ele>
      </trkpt>
      <trkpt lat="44.46562" lon="5.08733">
        <ele>1220</ele>
      </trkpt>
      <trkpt lat="44.46526" lon="5.08659">
        <ele>1207</ele>
      </trkpt>
      <trkpt lat="44.46473" lon="5.08577">
        <ele>1186</ele>
      </trkpt>
      <trkpt lat="44.46436" lon="5.0847">
        <ele>1169</ele>
      </trkpt>
      <trkpt lat="44.46437" lon="5.08375">
        <ele>1158</ele>
      </trkpt>
      <trkpt lat="44.46521" lon="5.08287">
        <ele>1153</ele>
      </trkpt>
      <trkpt lat="44.46582" lon="5.08137">
        <ele>1129</ele>
      </trkpt>
      <trkpt lat="44.46504" lon="5.08121">
        <ele>1123</ele>
      </trkpt>
      <trkpt lat="44.46473" lon="5.08086">
        <ele>1116</ele>
      </trkpt>
      <trkpt lat="44.46484" lon="5.08024">
        <ele>1101</ele>
      </trkpt>
      <trkpt lat="44.46599" lon="5.07969">
        <ele>1094</ele>
      </trkpt>
      <trkpt lat="44.46663" lon="5.07914">
        <ele>1089</ele>
      </trkpt>
      <trkpt lat="44.46721" lon="5.07845">
        <ele>1089</ele>
      </trkpt>
      <trkpt lat="44.46765" lon="5.07739">
        <ele>1073</ele>
      </trkpt>
      <trkpt lat="44.46771" lon="5.0761">
        <ele>1058</ele>
      </trkpt>
      <trkpt lat="44.46779" lon="5.07583">
        <ele>1049</ele>
      </trkpt>
      <trkpt lat="44.46788" lon="5.07479">
        <ele>1034</ele>
      </trkpt>
      <trkpt lat="44.46793" lon="5.07397">
        <ele>1023</ele>
      </trkpt>
      <trkpt lat="44.46799" lon="5.07336">
        <ele>1020</ele>
      </trkpt>
      <trkpt lat="44.46818" lon="5.07289">
        <ele>1010</ele>
      </trkpt>
      <trkpt lat="44.46949" lon="5.07203">
        <ele>1017</ele>
      </trkpt>
      <trkpt lat="44.47077" lon="5.07157">
        <ele>1012</ele>
      </trkpt>
      <trkpt lat="44.47168" lon="5.07139">
        <ele>1002</ele>
      </trkpt>
      <trkpt lat="44.47254" lon="5.07151">
        <ele>999</ele>
      </trkpt>
      <trkpt lat="44.47326" lon="5.07166">
        <ele>1000</ele>
      </trkpt>
      <trkpt lat="44.47443" lon="5.07108">
        <ele>990</ele>
      </trkpt>
      <trkpt lat="44.47535" lon="5.071">
        <ele>980</ele>
      </trkpt>
      <trkpt lat="44.47585" lon="5.07096">
        <ele>971</ele>
      </trkpt>
      <trkpt lat="44.4756" lon="5.07163">
        <ele>976</ele>
      </trkpt>
      <trkpt lat="44.4756" lon="5.07124">
        <ele>978</ele>
      </trkpt>
      <trkpt lat="44.4749" lon="5.07155">
        <ele>990</ele>
      </trkpt>
      <trkpt lat="44.4748" lon="5.07252">
        <ele>994</ele>
      </trkpt>
      <trkpt lat="44.4748" lon="5.07441">
        <ele>992</ele>
      </trkpt>
      <trkpt lat="44.47466" lon="5.07588">
        <ele>996</ele>
      </trkpt>
      <trkpt lat="44.47463" lon="5.0772">
        <ele>1001</ele>
      </trkpt>
      <trkpt lat="44.4743" lon="5.07852">
        <ele>1016</ele>
      </trkpt>
      <trkpt lat="44.4733" lon="5.08054">
        <ele>1065</ele>
      </trkpt>
      <trkpt lat="44.47283" lon="5.08218">
        <ele>1077</ele>
      </trkpt>
      <trkpt lat="44.47241" lon="5.08328">
        <ele>1093</ele>
      </trkpt>
      <trkpt lat="44.47194" lon="5.08413">
        <ele>1099</ele>
      </trkpt>
      <trkpt lat="44.47141" lon="5.08552">
        <ele>1091</ele>
      </trkpt>
      <trkpt lat="44.47117" lon="5.08739">
        <ele>1067</ele>
      </trkpt>
      <trkpt lat="44.47117" lon="5.08827">
        <ele>1060</ele>
      </trkpt>
      <trkpt lat="44.47108" lon="5.08902">
        <ele>1057</ele>
      </trkpt>
      <trkpt lat="44.47099" lon="5.08972">
        <ele>1053</ele>
      </trkpt>
      <trkpt lat="44.47074" lon="5.09009">
        <ele>1063</ele>
      </trkpt>
      <trkpt lat="44.47061" lon="5.09105">
        <ele>1053</ele>
      </trkpt>
      <trkpt lat="44.47057" lon="5.09122">
        <ele>1053</ele>
      </trkpt>
      <trkpt lat="44.4697" lon="5.09135">
        <ele>1077</ele>
      </trkpt>
      <trkpt lat="44.46926" lon="5.09178">
        <ele>1079</ele>
      </trkpt>
      <trkpt lat="44.46897" lon="5.09258">
        <ele>1087</ele>
      </trkpt>
      <trkpt lat="44.4685" lon="5.09311">
        <ele>1096</ele>
      </trkpt>
      <trkpt lat="44.46809" lon="5.09386">
        <ele>1122</ele>
      </trkpt>
      <trkpt lat="44.46765" lon="5.09512">
        <ele>1123</ele>
      </trkpt>
      <trkpt lat="44.4671" lon="5.0974">
        <ele>1142</ele>
      </trkpt>
      <trkpt lat="44.46613" lon="5.10009">
        <ele>1134</ele>
      </trkpt>
      <trkpt lat="44.46616" lon="5.10099">
        <ele>1110</ele>
      </trkpt>
      <trkpt lat="44.46613" lon="5.10177">
        <ele>1091</ele>
      </trkpt>
      <trkpt lat="44.46663" lon="5.1022">
        <ele>1079</ele>
      </trkpt>
      <trkpt lat="44.46658" lon="5.10379">
        <ele>1030</ele>
      </trkpt>
      <trkpt lat="44.46663" lon="5.10457">
        <ele>1006</ele>
      </trkpt>
      <trkpt lat="44.46588" lon="5.10535">
        <ele>985</ele>
      </trkpt>
      <trkpt lat="44.46542" lon="5.10611">
        <ele>956</ele>
      </trkpt>
      <trkpt lat="44.46531" lon="5.10709">
        <ele>926</ele>
      </trkpt>
      <trkpt lat="44.46514" lon="5.10767">
        <ele>903</ele>
      </trkpt>
      <trkpt lat="44.465" lon="5.10837">
        <ele>884</ele>
      </trkpt>
      <trkpt lat="44.46522" lon="5.10895">
        <ele>863</ele>
      </trkpt>
      <trkpt lat="44.46572" lon="5.10925">
        <ele>843</ele>
      </trkpt>
      <trkpt lat="44.46603" lon="5.11042">
        <ele>812</ele>
      </trkpt>
      <trkpt lat="44.46647" lon="5.11066">
        <ele>808</ele>
      </trkpt>
      <trkpt lat="44.46542" lon="5.11082">
        <ele>812</ele>
      </trkpt>
      <trkpt lat="44.46478" lon="5.11187">
        <ele>803</ele>
      </trkpt>
      <trkpt lat="44.46392" lon="5.11292">
        <ele>803</ele>
      </trkpt>
      <trkpt lat="44.464" lon="5.11351">
        <ele>790</ele>
      </trkpt>
      <trkpt lat="44.46381" lon="5.1137">
        <ele>789</ele>
      </trkpt>
      <trkpt lat="44.46392" lon="5.11436">
        <ele>776</ele>
      </trkpt>
      <trkpt lat="44.46381" lon="5.1158">
        <ele>757</ele>
      </trkpt>
      <trkpt lat="44.46417" lon="5.11697">
        <ele>731</ele>
      </trkpt>
      <trkpt lat="44.46361" lon="5.11755">
        <ele>736</ele>
      </trkpt>
      <trkpt lat="44.46356" lon="5.11872">
        <ele>731</ele>
      </trkpt>
      <trkpt lat="44.46334" lon="5.12028">
        <ele>723</ele>
      </trkpt>
      <trkpt lat="44.46295" lon="5.12016">
        <ele>722</ele>
      </trkpt>
      <trkpt lat="44.46245" lon="5.11996">
        <ele>725</ele>
      </trkpt>
      <trkpt lat="44.46181" lon="5.12009">
        <ele>720</ele>
      </trkpt>
      <trkpt lat="44.4615" lon="5.12036">
        <ele>723</ele>
      </trkpt>
      <trkpt lat="44.46067" lon="5.12005">
        <ele>736</ele>
      </trkpt>
      <trkpt lat="44.45987" lon="5.1195">
        <ele>761</ele>
      </trkpt>
      <trkpt lat="44.45923" lon="5.11837">
        <ele>784</ele>
      </trkpt>
      <trkpt lat="44.45895" lon="5.11763">
        <ele>802</ele>
      </trkpt>
      <trkpt lat="44.45873" lon="5.11697">
        <ele>813</ele>
      </trkpt>
      <trkpt lat="44.45918" lon="5.11552">
        <ele>843</ele>
      </trkpt>
      <trkpt lat="44.45898" lon="5.11455">
        <ele>847</ele>
      </trkpt>
      <trkpt lat="44.45879" lon="5.11343">
        <ele>867</ele>
      </trkpt>
      <trkpt lat="44.45807" lon="5.11261">
        <ele>888</ele>
      </trkpt>
      <trkpt lat="44.45774" lon="5.11183">
        <ele>908</ele>
      </trkpt>
      <trkpt lat="44.45746" lon="5.11171">
        <ele>913</ele>
      </trkpt>
      <trkpt lat="44.45732" lon="5.11062">
        <ele>941</ele>
      </trkpt>
      <trkpt lat="44.45737" lon="5.10887">
        <ele>975</ele>
      </trkpt>
      <trkpt lat="44.45715" lon="5.10872">
        <ele>977</ele>
      </trkpt>
      <trkpt lat="44.45696" lon="5.10925">
        <ele>961</ele>
      </trkpt>
      <trkpt lat="44.45654" lon="5.10905">
        <ele>978</ele>
      </trkpt>
      <trkpt lat="44.45641" lon="5.11007">
        <ele>967</ele>
      </trkpt>
      <trkpt lat="44.45588" lon="5.11072">
        <ele>979</ele>
      </trkpt>
      <trkpt lat="44.4553" lon="5.1113">
        <ele>993</ele>
      </trkpt>
      <trkpt lat="44.45487" lon="5.11201">
        <ele>998</ele>
      </trkpt>
      <trkpt lat="44.45431" lon="5.11259">
        <ele>998</ele>
      </trkpt>
      <trkpt lat="44.454" lon="5.11189">
        <ele>986</ele>
      </trkpt>
      <trkpt lat="44.4535" lon="5.11134">
        <ele>974</ele>
      </trkpt>
      <trkpt lat="44.45328" lon="5.1106">
        <ele>959</ele>
      </trkpt>
      <trkpt lat="44.45314" lon="5.11018">
        <ele>960</ele>
      </trkpt>
      <trkpt lat="44.45267" lon="5.11057">
        <ele>949</ele>
      </trkpt>
      <trkpt lat="44.4522" lon="5.11111">
        <ele>925</ele>
      </trkpt>
      <trkpt lat="44.45185" lon="5.11068">
        <ele>932</ele>
      </trkpt>
      <trkpt lat="44.45118" lon="5.11154">
        <ele>909</ele>
      </trkpt>
      <trkpt lat="44.45085" lon="5.11263">
        <ele>891</ele>
      </trkpt>
      <trkpt lat="44.45048" lon="5.11318">
        <ele>881</ele>
      </trkpt>
      <trkpt lat="44.45016" lon="5.11327">
        <ele>875</ele>
      </trkpt>
      <trkpt lat="44.4501" lon="5.11385">
        <ele>873</ele>
      </trkpt>
      <trkpt lat="44.4498" lon="5.11419">
        <ele>853</ele>
      </trkpt>
      <trkpt lat="44.44949" lon="5.11525">
        <ele>848</ele>
      </trkpt>
      <trkpt lat="44.44908" lon="5.11584">
        <ele>834</ele>
      </trkpt>
      <trkpt lat="44.44852" lon="5.1158">
        <ele>810</ele>
      </trkpt>
      <trkpt lat="44.44844" lon="5.11549">
        <ele>811</ele>
      </trkpt>
      <trkpt lat="44.44841" lon="5.11474">
        <ele>812</ele>
      </trkpt>
      <trkpt lat="44.44805" lon="5.11513">
        <ele>797</ele>
      </trkpt>
      <trkpt lat="44.4478" lon="5.11661">
        <ele>786</ele>
      </trkpt>
      <trkpt lat="44.44782" lon="5.11763">
        <ele>780</ele>
      </trkpt>
      <trkpt lat="44.44757" lon="5.11872">
        <ele>773</ele>
      </trkpt>
      <trkpt lat="44.44738" lon="5.1193">
        <ele>751</ele>
      </trkpt>
      <trkpt lat="44.44727" lon="5.11797">
        <ele>756</ele>
      </trkpt>
      <trkpt lat="44.44677" lon="5.11829">
        <ele>743</ele>
      </trkpt>
      <trkpt lat="44.4461" lon="5.11907">
        <ele>729</ele>
      </trkpt>
      <trkpt lat="44.44577" lon="5.12055">
        <ele>727</ele>
      </trkpt>
      <trkpt lat="44.44663" lon="5.12229">
        <ele>702</ele>
      </trkpt>
      <trkpt lat="44.44708" lon="5.12338">
        <ele>696</ele>
      </trkpt>
      <trkpt lat="44.44671" lon="5.12334">
        <ele>697</ele>
      </trkpt>
      <trkpt lat="44.44644" lon="5.12385">
        <ele>710</ele>
      </trkpt>
      <trkpt lat="44.44616" lon="5.12369">
        <ele>715</ele>
      </trkpt>
      <trkpt lat="44.44546" lon="5.12225">
        <ele>738</ele>
      </trkpt>
      <trkpt lat="44.44488" lon="5.12003">
        <ele>762</ele>
      </trkpt>
      <trkpt lat="44.44443" lon="5.11999">
        <ele>771</ele>
      </trkpt>
      <trkpt lat="44.44382" lon="5.11995">
        <ele>795</ele>
      </trkpt>
      <trkpt lat="44.44298" lon="5.11983">
        <ele>827</ele>
      </trkpt>
      <trkpt lat="44.44282" lon="5.11929">
        <ele>825</ele>
      </trkpt>
      <trkpt lat="44.44246" lon="5.11882">
        <ele>839</ele>
      </trkpt>
      <trkpt lat="44.44229" lon="5.11827">
        <ele>828</ele>
      </trkpt>
      <trkpt lat="44.44188" lon="5.11859">
        <ele>847</ele>
      </trkpt>
      <trkpt lat="44.44135" lon="5.11831">
        <ele>863</ele>
      </trkpt>
      <trkpt lat="44.4409" lon="5.11762">
        <ele>869</ele>
      </trkpt>
      <trkpt lat="44.44021" lon="5.11712">
        <ele>883</ele>
      </trkpt>
      <trkpt lat="44.43959" lon="5.11684">
        <ele>905</ele>
      </trkpt>
      <trkpt lat="44.43912" lon="5.11696">
        <ele>922</ele>
      </trkpt>
      <trkpt lat="44.43851" lon="5.11688">
        <ele>928</ele>
      </trkpt>
      <trkpt lat="44.43815" lon="5.11696">
        <ele>932</ele>
      </trkpt>
      <trkpt lat="44.43745" lon="5.11708">
        <ele>923</ele>
      </trkpt>
      <trkpt lat="44.43706" lon="5.11708">
        <ele>920</ele>
      </trkpt>
      <trkpt lat="44.43637" lon="5.11688">
        <ele>901</ele>
      </trkpt>
      <trkpt lat="44.43593" lon="5.1168">
        <ele>895</ele>
      </trkpt>
      <trkpt lat="44.43546" lon="5.11708">
        <ele>872</ele>
      </trkpt>
      <trkpt lat="44.43557" lon="5.11751">
        <ele>872</ele>
      </trkpt>
      <trkpt lat="44.43585" lon="5.11774">
        <ele>889</ele>
      </trkpt>
      <trkpt lat="44.43574" lon="5.11809">
        <ele>877</ele>
      </trkpt>
      <trkpt lat="44.43526" lon="5.11809">
        <ele>871</ele>
      </trkpt>
      <trkpt lat="44.43487" lon="5.1179">
        <ele>858</ele>
      </trkpt>
      <trkpt lat="44.43474" lon="5.11783">
        <ele>857</ele>
      </trkpt>
      <trkpt lat="44.43445" lon="5.1174">
        <ele>846</ele>
      </trkpt>
      <trkpt lat="44.43394" lon="5.11718">
        <ele>834</ele>
      </trkpt>
      <trkpt lat="44.43321" lon="5.11669">
        <ele>822</ele>
      </trkpt>
      <trkpt lat="44.43275" lon="5.1165">
        <ele>808</ele>
      </trkpt>
      <trkpt lat="44.43274" lon="5.11625">
        <ele>806</ele>
      </trkpt>
      <trkpt lat="44.43237" lon="5.11645">
        <ele>794</ele>
      </trkpt>
      <trkpt lat="44.43225" lon="5.11707">
        <ele>806</ele>
      </trkpt>
      <trkpt lat="44.43183" lon="5.11699">
        <ele>802</ele>
      </trkpt>
      <trkpt lat="44.43143" lon="5.11695">
        <ele>797</ele>
      </trkpt>
      <trkpt lat="44.43105" lon="5.11713">
        <ele>799</ele>
      </trkpt>
      <trkpt lat="44.43038" lon="5.11788">
        <ele>805</ele>
      </trkpt>
      <trkpt lat="44.42999" lon="5.11838">
        <ele>802</ele>
      </trkpt>
      <trkpt lat="44.42973" lon="5.11913">
        <ele>804</ele>
      </trkpt>
      <trkpt lat="44.42953" lon="5.11938">
        <ele>810</ele>
      </trkpt>
      <trkpt lat="44.42964" lon="5.11983">
        <ele>817</ele>
      </trkpt>
      <trkpt lat="44.42934" lon="5.12009">
        <ele>818</ele>
      </trkpt>
      <trkpt lat="44.42926" lon="5.12027">
        <ele>820</ele>
      </trkpt>
    </trkseg>
  </trk>
</gpx>